<?xml version="1.0" encoding="UTF-8" standalone="no" ?>
<gpx xmlns="http://www.topografix.com/GPX/1/1" xmlns:xsi="http://www.w3.org/2001/XMLSchema-instance" xsi:schemaLocation="http://www.topografix.com/GPX/1/1 http://www.topografix.com/GPX/1/1/gpx.xsd" version="1.1" creator="VisuGPX - https://www.visugpx.com">
  <metadata>
    <name>0818@J11#Queyras - Villargaudin -&amp;gt; Refuge Furfande par le col de Fontouse</name>
  </metadata>
  <trk>
    <name><![CDATA[J11#Queyras - Villargaudin -> Refuge Furfande par le col de Fontouse]]></name>
    <trkseg>
      <trkpt lat="44.74476" lon="6.75707">
        <ele>1600.6</ele>
        <time>2018-08-11T05:56:03Z</time>
      </trkpt>
      <trkpt lat="44.74476" lon="6.75707">
        <ele>1600.7</ele>
        <time>2018-08-11T05:56:04Z</time>
      </trkpt>
      <trkpt lat="44.74474" lon="6.75702">
        <ele>1601.2</ele>
        <time>2018-08-11T05:56:10Z</time>
      </trkpt>
      <trkpt lat="44.74473" lon="6.75696">
        <ele>1601.7</ele>
        <time>2018-08-11T05:56:16Z</time>
      </trkpt>
      <trkpt lat="44.7447" lon="6.7569">
        <ele>1602.5</ele>
        <time>2018-08-11T05:56:22Z</time>
      </trkpt>
      <trkpt lat="44.74469" lon="6.75685">
        <ele>1603</ele>
        <time>2018-08-11T05:56:26Z</time>
      </trkpt>
      <trkpt lat="44.74467" lon="6.7568">
        <ele>1603.5</ele>
        <time>2018-08-11T05:56:30Z</time>
      </trkpt>
      <trkpt lat="44.74465" lon="6.75675">
        <ele>1604.1</ele>
        <time>2018-08-11T05:56:34Z</time>
      </trkpt>
      <trkpt lat="44.74464" lon="6.75669">
        <ele>1604.6</ele>
        <time>2018-08-11T05:56:39Z</time>
      </trkpt>
      <trkpt lat="44.74464" lon="6.75663">
        <ele>1605</ele>
        <time>2018-08-11T05:57:16Z</time>
      </trkpt>
      <trkpt lat="44.74462" lon="6.75658">
        <ele>1605</ele>
        <time>2018-08-11T05:57:20Z</time>
      </trkpt>
      <trkpt lat="44.74461" lon="6.75653">
        <ele>1605</ele>
        <time>2018-08-11T05:57:25Z</time>
      </trkpt>
      <trkpt lat="44.74459" lon="6.75648">
        <ele>1605.5</ele>
        <time>2018-08-11T05:57:31Z</time>
      </trkpt>
      <trkpt lat="44.74458" lon="6.75642">
        <ele>1606.1</ele>
        <time>2018-08-11T05:57:38Z</time>
      </trkpt>
      <trkpt lat="44.74457" lon="6.75637">
        <ele>1606.7</ele>
        <time>2018-08-11T05:58:27Z</time>
      </trkpt>
      <trkpt lat="44.74455" lon="6.75632">
        <ele>1606.8</ele>
        <time>2018-08-11T05:58:32Z</time>
      </trkpt>
      <trkpt lat="44.74454" lon="6.75627">
        <ele>1606.9</ele>
        <time>2018-08-11T05:58:39Z</time>
      </trkpt>
      <trkpt lat="44.7445" lon="6.75625">
        <ele>1606.9</ele>
        <time>2018-08-11T05:58:45Z</time>
      </trkpt>
      <trkpt lat="44.74446" lon="6.75623">
        <ele>1606.5</ele>
        <time>2018-08-11T05:58:51Z</time>
      </trkpt>
      <trkpt lat="44.74442" lon="6.75622">
        <ele>1605.9</ele>
        <time>2018-08-11T05:58:58Z</time>
      </trkpt>
      <trkpt lat="44.74434" lon="6.75618">
        <ele>1605</ele>
        <time>2018-08-11T05:59:13Z</time>
      </trkpt>
      <trkpt lat="44.74426" lon="6.75609">
        <ele>1605</ele>
        <time>2018-08-11T05:59:27Z</time>
      </trkpt>
      <trkpt lat="44.74421" lon="6.75597">
        <ele>1606.9</ele>
        <time>2018-08-11T05:59:40Z</time>
      </trkpt>
      <trkpt lat="44.7442" lon="6.75584">
        <ele>1609.9</ele>
        <time>2018-08-11T05:59:56Z</time>
      </trkpt>
      <trkpt lat="44.74416" lon="6.75572">
        <ele>1612.1</ele>
        <time>2018-08-11T06:00:08Z</time>
      </trkpt>
      <trkpt lat="44.74418" lon="6.7556">
        <ele>1615.3</ele>
        <time>2018-08-11T06:00:19Z</time>
      </trkpt>
      <trkpt lat="44.74417" lon="6.75547">
        <ele>1618.2</ele>
        <time>2018-08-11T06:01:03Z</time>
      </trkpt>
      <trkpt lat="44.74419" lon="6.75534">
        <ele>1622.5</ele>
        <time>2018-08-11T06:01:20Z</time>
      </trkpt>
      <trkpt lat="44.7442" lon="6.7552">
        <ele>1626.9</ele>
        <time>2018-08-11T06:01:33Z</time>
      </trkpt>
      <trkpt lat="44.74421" lon="6.75508">
        <ele>1632.4</ele>
        <time>2018-08-11T06:01:48Z</time>
      </trkpt>
      <trkpt lat="44.74423" lon="6.75495">
        <ele>1639.8</ele>
        <time>2018-08-11T06:02:07Z</time>
      </trkpt>
      <trkpt lat="44.74422" lon="6.75482">
        <ele>1646</ele>
        <time>2018-08-11T06:02:32Z</time>
      </trkpt>
      <trkpt lat="44.74415" lon="6.75474">
        <ele>1646</ele>
        <time>2018-08-11T06:03:33Z</time>
      </trkpt>
      <trkpt lat="44.74407" lon="6.75478">
        <ele>1641.8</ele>
        <time>2018-08-11T06:09:18Z</time>
      </trkpt>
      <trkpt lat="44.74414" lon="6.75485">
        <ele>1636.6</ele>
        <time>2018-08-11T06:11:22Z</time>
      </trkpt>
      <trkpt lat="44.74418" lon="6.75497">
        <ele>1631</ele>
        <time>2018-08-11T06:11:32Z</time>
      </trkpt>
      <trkpt lat="44.74419" lon="6.75509">
        <ele>1628</ele>
        <time>2018-08-11T06:11:44Z</time>
      </trkpt>
      <trkpt lat="44.74428" lon="6.75516">
        <ele>1624.9</ele>
        <time>2018-08-11T06:11:56Z</time>
      </trkpt>
      <trkpt lat="44.74435" lon="6.75524">
        <ele>1623.6</ele>
        <time>2018-08-11T06:12:07Z</time>
      </trkpt>
      <trkpt lat="44.74439" lon="6.75512">
        <ele>1620</ele>
        <time>2018-08-11T06:12:38Z</time>
      </trkpt>
      <trkpt lat="44.74439" lon="6.755">
        <ele>1624.5</ele>
        <time>2018-08-11T06:13:42Z</time>
      </trkpt>
      <trkpt lat="44.74441" lon="6.75487">
        <ele>1629</ele>
        <time>2018-08-11T06:13:53Z</time>
      </trkpt>
      <trkpt lat="44.7445" lon="6.75485">
        <ele>1633.4</ele>
        <time>2018-08-11T06:14:11Z</time>
      </trkpt>
      <trkpt lat="44.74455" lon="6.75474">
        <ele>1640</ele>
        <time>2018-08-11T06:14:23Z</time>
      </trkpt>
      <trkpt lat="44.74464" lon="6.7547">
        <ele>1644.8</ele>
        <time>2018-08-11T06:14:38Z</time>
      </trkpt>
      <trkpt lat="44.74472" lon="6.75463">
        <ele>1649.6</ele>
        <time>2018-08-11T06:14:53Z</time>
      </trkpt>
      <trkpt lat="44.74481" lon="6.75459">
        <ele>1655</ele>
        <time>2018-08-11T06:15:06Z</time>
      </trkpt>
      <trkpt lat="44.74489" lon="6.75453">
        <ele>1658.3</ele>
        <time>2018-08-11T06:15:22Z</time>
      </trkpt>
      <trkpt lat="44.74498" lon="6.75448">
        <ele>1661.8</ele>
        <time>2018-08-11T06:15:32Z</time>
      </trkpt>
      <trkpt lat="44.74508" lon="6.75446">
        <ele>1666</ele>
        <time>2018-08-11T06:15:42Z</time>
      </trkpt>
      <trkpt lat="44.74517" lon="6.75445">
        <ele>1669.3</ele>
        <time>2018-08-11T06:15:51Z</time>
      </trkpt>
      <trkpt lat="44.74527" lon="6.75445">
        <ele>1671.8</ele>
        <time>2018-08-11T06:16:03Z</time>
      </trkpt>
      <trkpt lat="44.74536" lon="6.75445">
        <ele>1675.6</ele>
        <time>2018-08-11T06:16:14Z</time>
      </trkpt>
      <trkpt lat="44.74546" lon="6.75446">
        <ele>1677.3</ele>
        <time>2018-08-11T06:16:24Z</time>
      </trkpt>
      <trkpt lat="44.7454" lon="6.75436">
        <ele>1678.3</ele>
        <time>2018-08-11T06:16:39Z</time>
      </trkpt>
      <trkpt lat="44.74532" lon="6.75428">
        <ele>1679.5</ele>
        <time>2018-08-11T06:16:54Z</time>
      </trkpt>
      <trkpt lat="44.74524" lon="6.75421">
        <ele>1680.3</ele>
        <time>2018-08-11T06:17:06Z</time>
      </trkpt>
      <trkpt lat="44.74515" lon="6.75419">
        <ele>1681.2</ele>
        <time>2018-08-11T06:17:21Z</time>
      </trkpt>
      <trkpt lat="44.74505" lon="6.75416">
        <ele>1681.3</ele>
        <time>2018-08-11T06:17:38Z</time>
      </trkpt>
      <trkpt lat="44.74509" lon="6.75405">
        <ele>1684.1</ele>
        <time>2018-08-11T06:18:18Z</time>
      </trkpt>
      <trkpt lat="44.74517" lon="6.75399">
        <ele>1685.8</ele>
        <time>2018-08-11T06:18:33Z</time>
      </trkpt>
      <trkpt lat="44.74526" lon="6.75397">
        <ele>1688</ele>
        <time>2018-08-11T06:18:50Z</time>
      </trkpt>
      <trkpt lat="44.74521" lon="6.75386">
        <ele>1689.1</ele>
        <time>2018-08-11T06:19:07Z</time>
      </trkpt>
      <trkpt lat="44.74525" lon="6.75375">
        <ele>1692.9</ele>
        <time>2018-08-11T06:19:29Z</time>
      </trkpt>
      <trkpt lat="44.74516" lon="6.75372">
        <ele>1697.5</ele>
        <time>2018-08-11T06:20:00Z</time>
      </trkpt>
      <trkpt lat="44.74524" lon="6.75364">
        <ele>1702.2</ele>
        <time>2018-08-11T06:20:33Z</time>
      </trkpt>
      <trkpt lat="44.74518" lon="6.75353">
        <ele>1703.8</ele>
        <time>2018-08-11T06:21:05Z</time>
      </trkpt>
      <trkpt lat="44.74512" lon="6.75341">
        <ele>1710</ele>
        <time>2018-08-11T06:21:19Z</time>
      </trkpt>
      <trkpt lat="44.74513" lon="6.75329">
        <ele>1715.3</ele>
        <time>2018-08-11T06:22:02Z</time>
      </trkpt>
      <trkpt lat="44.74512" lon="6.75316">
        <ele>1720.3</ele>
        <time>2018-08-11T06:22:23Z</time>
      </trkpt>
      <trkpt lat="44.74509" lon="6.75303">
        <ele>1726</ele>
        <time>2018-08-11T06:22:34Z</time>
      </trkpt>
      <trkpt lat="44.74512" lon="6.75291">
        <ele>1730</ele>
        <time>2018-08-11T06:22:56Z</time>
      </trkpt>
      <trkpt lat="44.74507" lon="6.7528">
        <ele>1735.4</ele>
        <time>2018-08-11T06:23:07Z</time>
      </trkpt>
      <trkpt lat="44.74508" lon="6.75267">
        <ele>1739.8</ele>
        <time>2018-08-11T06:23:42Z</time>
      </trkpt>
      <trkpt lat="44.74502" lon="6.75256">
        <ele>1743.9</ele>
        <time>2018-08-11T06:24:05Z</time>
      </trkpt>
      <trkpt lat="44.74496" lon="6.75247">
        <ele>1747.9</ele>
        <time>2018-08-11T06:24:24Z</time>
      </trkpt>
      <trkpt lat="44.7449" lon="6.75237">
        <ele>1750.8</ele>
        <time>2018-08-11T06:24:30Z</time>
      </trkpt>
      <trkpt lat="44.74487" lon="6.7522">
        <ele>1754</ele>
        <time>2018-08-11T06:24:32Z</time>
      </trkpt>
      <trkpt lat="44.74486" lon="6.75207">
        <ele>1756.1</ele>
        <time>2018-08-11T06:24:38Z</time>
      </trkpt>
      <trkpt lat="44.74477" lon="6.75209">
        <ele>1758.5</ele>
        <time>2018-08-11T06:24:48Z</time>
      </trkpt>
      <trkpt lat="44.74467" lon="6.75207">
        <ele>1760.4</ele>
        <time>2018-08-11T06:24:55Z</time>
      </trkpt>
      <trkpt lat="44.74461" lon="6.75195">
        <ele>1763.4</ele>
        <time>2018-08-11T06:25:05Z</time>
      </trkpt>
      <trkpt lat="44.74456" lon="6.75183">
        <ele>1767.3</ele>
        <time>2018-08-11T06:25:16Z</time>
      </trkpt>
      <trkpt lat="44.74455" lon="6.7517">
        <ele>1769.7</ele>
        <time>2018-08-11T06:25:38Z</time>
      </trkpt>
      <trkpt lat="44.74452" lon="6.75158">
        <ele>1772.4</ele>
        <time>2018-08-11T06:25:49Z</time>
      </trkpt>
      <trkpt lat="44.74444" lon="6.75151">
        <ele>1775</ele>
        <time>2018-08-11T06:25:59Z</time>
      </trkpt>
      <trkpt lat="44.74435" lon="6.75145">
        <ele>1776.4</ele>
        <time>2018-08-11T06:26:09Z</time>
      </trkpt>
      <trkpt lat="44.74427" lon="6.75137">
        <ele>1777.6</ele>
        <time>2018-08-11T06:26:17Z</time>
      </trkpt>
      <trkpt lat="44.7442" lon="6.75128">
        <ele>1778.6</ele>
        <time>2018-08-11T06:26:27Z</time>
      </trkpt>
      <trkpt lat="44.74413" lon="6.75119">
        <ele>1780.1</ele>
        <time>2018-08-11T06:26:37Z</time>
      </trkpt>
      <trkpt lat="44.74406" lon="6.75109">
        <ele>1783.3</ele>
        <time>2018-08-11T06:26:46Z</time>
      </trkpt>
      <trkpt lat="44.744" lon="6.75098">
        <ele>1786.2</ele>
        <time>2018-08-11T06:26:55Z</time>
      </trkpt>
      <trkpt lat="44.74395" lon="6.75086">
        <ele>1791.2</ele>
        <time>2018-08-11T06:27:08Z</time>
      </trkpt>
      <trkpt lat="44.74393" lon="6.75071">
        <ele>1796.5</ele>
        <time>2018-08-11T06:27:15Z</time>
      </trkpt>
      <trkpt lat="44.74403" lon="6.75074">
        <ele>1798</ele>
        <time>2018-08-11T06:27:36Z</time>
      </trkpt>
      <trkpt lat="44.74411" lon="6.75079">
        <ele>1798.6</ele>
        <time>2018-08-11T06:27:42Z</time>
      </trkpt>
      <trkpt lat="44.74419" lon="6.75085">
        <ele>1796.4</ele>
        <time>2018-08-11T06:27:48Z</time>
      </trkpt>
      <trkpt lat="44.74424" lon="6.75098">
        <ele>1795.5</ele>
        <time>2018-08-11T06:27:56Z</time>
      </trkpt>
      <trkpt lat="44.74432" lon="6.75103">
        <ele>1793.8</ele>
        <time>2018-08-11T06:28:05Z</time>
      </trkpt>
      <trkpt lat="44.74438" lon="6.75113">
        <ele>1793.9</ele>
        <time>2018-08-11T06:28:18Z</time>
      </trkpt>
      <trkpt lat="44.74447" lon="6.75116">
        <ele>1794.6</ele>
        <time>2018-08-11T06:28:27Z</time>
      </trkpt>
      <trkpt lat="44.74457" lon="6.7512">
        <ele>1795.8</ele>
        <time>2018-08-11T06:28:36Z</time>
      </trkpt>
      <trkpt lat="44.74466" lon="6.75125">
        <ele>1796.9</ele>
        <time>2018-08-11T06:28:46Z</time>
      </trkpt>
      <trkpt lat="44.74473" lon="6.75133">
        <ele>1797.7</ele>
        <time>2018-08-11T06:28:59Z</time>
      </trkpt>
      <trkpt lat="44.7448" lon="6.75141">
        <ele>1797.5</ele>
        <time>2018-08-11T06:29:10Z</time>
      </trkpt>
      <trkpt lat="44.7449" lon="6.75138">
        <ele>1797.6</ele>
        <time>2018-08-11T06:29:25Z</time>
      </trkpt>
      <trkpt lat="44.74499" lon="6.75133">
        <ele>1799.6</ele>
        <time>2018-08-11T06:29:36Z</time>
      </trkpt>
      <trkpt lat="44.74508" lon="6.75128">
        <ele>1801.4</ele>
        <time>2018-08-11T06:29:44Z</time>
      </trkpt>
      <trkpt lat="44.74517" lon="6.75121">
        <ele>1803.5</ele>
        <time>2018-08-11T06:29:56Z</time>
      </trkpt>
      <trkpt lat="44.74524" lon="6.75114">
        <ele>1805.1</ele>
        <time>2018-08-11T06:30:07Z</time>
      </trkpt>
      <trkpt lat="44.74533" lon="6.75106">
        <ele>1806.8</ele>
        <time>2018-08-11T06:30:18Z</time>
      </trkpt>
      <trkpt lat="44.74542" lon="6.75102">
        <ele>1807.4</ele>
        <time>2018-08-11T06:30:26Z</time>
      </trkpt>
      <trkpt lat="44.74548" lon="6.7509">
        <ele>1809</ele>
        <time>2018-08-11T06:30:41Z</time>
      </trkpt>
      <trkpt lat="44.74558" lon="6.75086">
        <ele>1811.2</ele>
        <time>2018-08-11T06:30:48Z</time>
      </trkpt>
      <trkpt lat="44.74563" lon="6.75074">
        <ele>1813.6</ele>
        <time>2018-08-11T06:31:03Z</time>
      </trkpt>
      <trkpt lat="44.74568" lon="6.75062">
        <ele>1814.9</ele>
        <time>2018-08-11T06:31:12Z</time>
      </trkpt>
      <trkpt lat="44.74576" lon="6.75055">
        <ele>1817</ele>
        <time>2018-08-11T06:31:23Z</time>
      </trkpt>
      <trkpt lat="44.74584" lon="6.75051">
        <ele>1819.1</ele>
        <time>2018-08-11T06:31:37Z</time>
      </trkpt>
      <trkpt lat="44.74592" lon="6.75044">
        <ele>1820.6</ele>
        <time>2018-08-11T06:31:48Z</time>
      </trkpt>
      <trkpt lat="44.74599" lon="6.75036">
        <ele>1822.6</ele>
        <time>2018-08-11T06:31:57Z</time>
      </trkpt>
      <trkpt lat="44.74608" lon="6.75026">
        <ele>1823.8</ele>
        <time>2018-08-11T06:32:06Z</time>
      </trkpt>
      <trkpt lat="44.74612" lon="6.75015">
        <ele>1824.7</ele>
        <time>2018-08-11T06:32:20Z</time>
      </trkpt>
      <trkpt lat="44.7462" lon="6.75018">
        <ele>1824.8</ele>
        <time>2018-08-11T06:32:46Z</time>
      </trkpt>
      <trkpt lat="44.74615" lon="6.7503">
        <ele>1824.8</ele>
        <time>2018-08-11T06:33:03Z</time>
      </trkpt>
      <trkpt lat="44.74615" lon="6.75016">
        <ele>1825.9</ele>
        <time>2018-08-11T06:34:10Z</time>
      </trkpt>
      <trkpt lat="44.74623" lon="6.7501">
        <ele>1825.7</ele>
        <time>2018-08-11T06:34:33Z</time>
      </trkpt>
      <trkpt lat="44.7463" lon="6.75002">
        <ele>1826.7</ele>
        <time>2018-08-11T06:34:40Z</time>
      </trkpt>
      <trkpt lat="44.74638" lon="6.74993">
        <ele>1827.7</ele>
        <time>2018-08-11T06:34:51Z</time>
      </trkpt>
      <trkpt lat="44.74646" lon="6.74983">
        <ele>1828.6</ele>
        <time>2018-08-11T06:34:57Z</time>
      </trkpt>
      <trkpt lat="44.74655" lon="6.74975">
        <ele>1829.7</ele>
        <time>2018-08-11T06:35:05Z</time>
      </trkpt>
      <trkpt lat="44.74664" lon="6.7497">
        <ele>1830.9</ele>
        <time>2018-08-11T06:35:13Z</time>
      </trkpt>
      <trkpt lat="44.74671" lon="6.74961">
        <ele>1830</ele>
        <time>2018-08-11T06:35:20Z</time>
      </trkpt>
      <trkpt lat="44.74681" lon="6.74955">
        <ele>1830.8</ele>
        <time>2018-08-11T06:35:31Z</time>
      </trkpt>
      <trkpt lat="44.74692" lon="6.7495">
        <ele>1830.2</ele>
        <time>2018-08-11T06:35:41Z</time>
      </trkpt>
      <trkpt lat="44.74701" lon="6.74945">
        <ele>1831.9</ele>
        <time>2018-08-11T06:35:47Z</time>
      </trkpt>
      <trkpt lat="44.74707" lon="6.74935">
        <ele>1831</ele>
        <time>2018-08-11T06:35:56Z</time>
      </trkpt>
      <trkpt lat="44.74719" lon="6.74936">
        <ele>1828.7</ele>
        <time>2018-08-11T06:36:00Z</time>
      </trkpt>
      <trkpt lat="44.7473" lon="6.74937">
        <ele>1826.9</ele>
        <time>2018-08-11T06:36:05Z</time>
      </trkpt>
      <trkpt lat="44.7474" lon="6.74936">
        <ele>1829.9</ele>
        <time>2018-08-11T06:36:10Z</time>
      </trkpt>
      <trkpt lat="44.74747" lon="6.74923">
        <ele>1830.7</ele>
        <time>2018-08-11T06:36:22Z</time>
      </trkpt>
      <trkpt lat="44.74748" lon="6.7491">
        <ele>1831.5</ele>
        <time>2018-08-11T06:36:27Z</time>
      </trkpt>
      <trkpt lat="44.74757" lon="6.74905">
        <ele>1832.5</ele>
        <time>2018-08-11T06:36:36Z</time>
      </trkpt>
      <trkpt lat="44.74757" lon="6.74891">
        <ele>1833.3</ele>
        <time>2018-08-11T06:36:41Z</time>
      </trkpt>
      <trkpt lat="44.74757" lon="6.74878">
        <ele>1833.9</ele>
        <time>2018-08-11T06:36:48Z</time>
      </trkpt>
      <trkpt lat="44.74764" lon="6.74869">
        <ele>1834.3</ele>
        <time>2018-08-11T06:37:00Z</time>
      </trkpt>
      <trkpt lat="44.74772" lon="6.74858">
        <ele>1835.5</ele>
        <time>2018-08-11T06:37:11Z</time>
      </trkpt>
      <trkpt lat="44.74768" lon="6.74845">
        <ele>1837.4</ele>
        <time>2018-08-11T06:37:17Z</time>
      </trkpt>
      <trkpt lat="44.74771" lon="6.7483">
        <ele>1838.3</ele>
        <time>2018-08-11T06:37:25Z</time>
      </trkpt>
      <trkpt lat="44.7478" lon="6.7482">
        <ele>1839.6</ele>
        <time>2018-08-11T06:37:33Z</time>
      </trkpt>
      <trkpt lat="44.74784" lon="6.74809">
        <ele>1839.3</ele>
        <time>2018-08-11T06:37:41Z</time>
      </trkpt>
      <trkpt lat="44.74794" lon="6.74804">
        <ele>1839.6</ele>
        <time>2018-08-11T06:37:47Z</time>
      </trkpt>
      <trkpt lat="44.748" lon="6.74794">
        <ele>1840.9</ele>
        <time>2018-08-11T06:37:58Z</time>
      </trkpt>
      <trkpt lat="44.74805" lon="6.74783">
        <ele>1841.3</ele>
        <time>2018-08-11T06:38:09Z</time>
      </trkpt>
      <trkpt lat="44.74812" lon="6.74773">
        <ele>1842.1</ele>
        <time>2018-08-11T06:38:18Z</time>
      </trkpt>
      <trkpt lat="44.74817" lon="6.74762">
        <ele>1840.4</ele>
        <time>2018-08-11T06:38:24Z</time>
      </trkpt>
      <trkpt lat="44.74826" lon="6.74761">
        <ele>1838.4</ele>
        <time>2018-08-11T06:38:32Z</time>
      </trkpt>
      <trkpt lat="44.74836" lon="6.74759">
        <ele>1836.2</ele>
        <time>2018-08-11T06:38:40Z</time>
      </trkpt>
      <trkpt lat="44.74845" lon="6.74753">
        <ele>1834.4</ele>
        <time>2018-08-11T06:38:48Z</time>
      </trkpt>
      <trkpt lat="44.74855" lon="6.74754">
        <ele>1834.7</ele>
        <time>2018-08-11T06:38:57Z</time>
      </trkpt>
      <trkpt lat="44.74864" lon="6.74752">
        <ele>1832.9</ele>
        <time>2018-08-11T06:39:05Z</time>
      </trkpt>
      <trkpt lat="44.74873" lon="6.74747">
        <ele>1832.2</ele>
        <time>2018-08-11T06:39:14Z</time>
      </trkpt>
      <trkpt lat="44.74883" lon="6.74736">
        <ele>1832.6</ele>
        <time>2018-08-11T06:39:25Z</time>
      </trkpt>
      <trkpt lat="44.74884" lon="6.74723">
        <ele>1834.1</ele>
        <time>2018-08-11T06:39:27Z</time>
      </trkpt>
      <trkpt lat="44.74888" lon="6.7471">
        <ele>1836.5</ele>
        <time>2018-08-11T06:39:33Z</time>
      </trkpt>
      <trkpt lat="44.74899" lon="6.74701">
        <ele>1839.8</ele>
        <time>2018-08-11T06:39:41Z</time>
      </trkpt>
      <trkpt lat="44.74901" lon="6.74687">
        <ele>1842.6</ele>
        <time>2018-08-11T06:39:47Z</time>
      </trkpt>
      <trkpt lat="44.74906" lon="6.74675">
        <ele>1845.2</ele>
        <time>2018-08-11T06:39:57Z</time>
      </trkpt>
      <trkpt lat="44.74913" lon="6.74663">
        <ele>1846.6</ele>
        <time>2018-08-11T06:40:07Z</time>
      </trkpt>
      <trkpt lat="44.74922" lon="6.74651">
        <ele>1849.7</ele>
        <time>2018-08-11T06:40:17Z</time>
      </trkpt>
      <trkpt lat="44.74934" lon="6.74646">
        <ele>1850</ele>
        <time>2018-08-11T06:40:26Z</time>
      </trkpt>
      <trkpt lat="44.74939" lon="6.74635">
        <ele>1850.2</ele>
        <time>2018-08-11T06:40:36Z</time>
      </trkpt>
      <trkpt lat="44.74945" lon="6.74624">
        <ele>1849.8</ele>
        <time>2018-08-11T06:40:45Z</time>
      </trkpt>
      <trkpt lat="44.74951" lon="6.74615">
        <ele>1849</ele>
        <time>2018-08-11T06:40:52Z</time>
      </trkpt>
      <trkpt lat="44.7496" lon="6.74609">
        <ele>1848</ele>
        <time>2018-08-11T06:40:59Z</time>
      </trkpt>
      <trkpt lat="44.74971" lon="6.74612">
        <ele>1847</ele>
        <time>2018-08-11T06:41:04Z</time>
      </trkpt>
      <trkpt lat="44.74979" lon="6.74605">
        <ele>1846.7</ele>
        <time>2018-08-11T06:41:12Z</time>
      </trkpt>
      <trkpt lat="44.74988" lon="6.74609">
        <ele>1846.1</ele>
        <time>2018-08-11T06:41:15Z</time>
      </trkpt>
      <trkpt lat="44.74999" lon="6.74606">
        <ele>1845.6</ele>
        <time>2018-08-11T06:41:20Z</time>
      </trkpt>
      <trkpt lat="44.75008" lon="6.74598">
        <ele>1846.1</ele>
        <time>2018-08-11T06:41:27Z</time>
      </trkpt>
      <trkpt lat="44.75008" lon="6.74584">
        <ele>1846.6</ele>
        <time>2018-08-11T06:41:34Z</time>
      </trkpt>
      <trkpt lat="44.75012" lon="6.74572">
        <ele>1846</ele>
        <time>2018-08-11T06:41:42Z</time>
      </trkpt>
      <trkpt lat="44.75024" lon="6.7457">
        <ele>1846.6</ele>
        <time>2018-08-11T06:41:52Z</time>
      </trkpt>
      <trkpt lat="44.75035" lon="6.74563">
        <ele>1849.1</ele>
        <time>2018-08-11T06:42:01Z</time>
      </trkpt>
      <trkpt lat="44.75037" lon="6.74549">
        <ele>1850</ele>
        <time>2018-08-11T06:42:12Z</time>
      </trkpt>
      <trkpt lat="44.75038" lon="6.74527">
        <ele>1850</ele>
        <time>2018-08-11T06:42:22Z</time>
      </trkpt>
      <trkpt lat="44.75033" lon="6.74539">
        <ele>1850</ele>
        <time>2018-08-11T06:42:44Z</time>
      </trkpt>
      <trkpt lat="44.75038" lon="6.74528">
        <ele>1849.9</ele>
        <time>2018-08-11T06:43:07Z</time>
      </trkpt>
      <trkpt lat="44.75041" lon="6.74515">
        <ele>1850.1</ele>
        <time>2018-08-11T06:43:14Z</time>
      </trkpt>
      <trkpt lat="44.75047" lon="6.74504">
        <ele>1851</ele>
        <time>2018-08-11T06:43:25Z</time>
      </trkpt>
      <trkpt lat="44.75055" lon="6.74497">
        <ele>1852.4</ele>
        <time>2018-08-11T06:43:33Z</time>
      </trkpt>
      <trkpt lat="44.75066" lon="6.74494">
        <ele>1853.7</ele>
        <time>2018-08-11T06:43:39Z</time>
      </trkpt>
      <trkpt lat="44.75076" lon="6.74493">
        <ele>1855.6</ele>
        <time>2018-08-11T06:43:46Z</time>
      </trkpt>
      <trkpt lat="44.75085" lon="6.74488">
        <ele>1856.5</ele>
        <time>2018-08-11T06:43:55Z</time>
      </trkpt>
      <trkpt lat="44.75089" lon="6.74476">
        <ele>1858.5</ele>
        <time>2018-08-11T06:44:05Z</time>
      </trkpt>
      <trkpt lat="44.75084" lon="6.74465">
        <ele>1859.8</ele>
        <time>2018-08-11T06:44:08Z</time>
      </trkpt>
      <trkpt lat="44.75081" lon="6.74452">
        <ele>1860.9</ele>
        <time>2018-08-11T06:44:14Z</time>
      </trkpt>
      <trkpt lat="44.75091" lon="6.74449">
        <ele>1862.7</ele>
        <time>2018-08-11T06:44:22Z</time>
      </trkpt>
      <trkpt lat="44.75097" lon="6.74432">
        <ele>1863.9</ele>
        <time>2018-08-11T06:44:35Z</time>
      </trkpt>
      <trkpt lat="44.7509" lon="6.74419">
        <ele>1864.8</ele>
        <time>2018-08-11T06:44:39Z</time>
      </trkpt>
      <trkpt lat="44.75086" lon="6.74407">
        <ele>1865.6</ele>
        <time>2018-08-11T06:44:48Z</time>
      </trkpt>
      <trkpt lat="44.75085" lon="6.74395">
        <ele>1867</ele>
        <time>2018-08-11T06:44:59Z</time>
      </trkpt>
      <trkpt lat="44.7509" lon="6.74384">
        <ele>1867.4</ele>
        <time>2018-08-11T06:45:14Z</time>
      </trkpt>
      <trkpt lat="44.75095" lon="6.74373">
        <ele>1867.8</ele>
        <time>2018-08-11T06:45:24Z</time>
      </trkpt>
      <trkpt lat="44.75092" lon="6.74359">
        <ele>1868.3</ele>
        <time>2018-08-11T06:45:30Z</time>
      </trkpt>
      <trkpt lat="44.75097" lon="6.74348">
        <ele>1868.7</ele>
        <time>2018-08-11T06:45:43Z</time>
      </trkpt>
      <trkpt lat="44.75104" lon="6.74334">
        <ele>1869.9</ele>
        <time>2018-08-11T06:45:53Z</time>
      </trkpt>
      <trkpt lat="44.75099" lon="6.74319">
        <ele>1871.7</ele>
        <time>2018-08-11T06:45:56Z</time>
      </trkpt>
      <trkpt lat="44.75108" lon="6.74318">
        <ele>1872.6</ele>
        <time>2018-08-11T06:46:15Z</time>
      </trkpt>
      <trkpt lat="44.75119" lon="6.74322">
        <ele>1874.1</ele>
        <time>2018-08-11T06:46:25Z</time>
      </trkpt>
      <trkpt lat="44.75128" lon="6.74318">
        <ele>1875.7</ele>
        <time>2018-08-11T06:46:34Z</time>
      </trkpt>
      <trkpt lat="44.75138" lon="6.74311">
        <ele>1876.2</ele>
        <time>2018-08-11T06:46:39Z</time>
      </trkpt>
      <trkpt lat="44.75148" lon="6.74308">
        <ele>1876.8</ele>
        <time>2018-08-11T06:46:48Z</time>
      </trkpt>
      <trkpt lat="44.75158" lon="6.74308">
        <ele>1877.5</ele>
        <time>2018-08-11T06:46:53Z</time>
      </trkpt>
      <trkpt lat="44.75167" lon="6.74312">
        <ele>1878.6</ele>
        <time>2018-08-11T06:46:58Z</time>
      </trkpt>
      <trkpt lat="44.75179" lon="6.74314">
        <ele>1879.3</ele>
        <time>2018-08-11T06:47:08Z</time>
      </trkpt>
      <trkpt lat="44.75189" lon="6.74319">
        <ele>1879.9</ele>
        <time>2018-08-11T06:47:15Z</time>
      </trkpt>
      <trkpt lat="44.75197" lon="6.74323">
        <ele>1880.4</ele>
        <time>2018-08-11T06:47:19Z</time>
      </trkpt>
      <trkpt lat="44.75206" lon="6.74328">
        <ele>1881.2</ele>
        <time>2018-08-11T06:47:24Z</time>
      </trkpt>
      <trkpt lat="44.75217" lon="6.74327">
        <ele>1882.9</ele>
        <time>2018-08-11T06:47:36Z</time>
      </trkpt>
      <trkpt lat="44.75226" lon="6.74332">
        <ele>1883.7</ele>
        <time>2018-08-11T06:47:41Z</time>
      </trkpt>
      <trkpt lat="44.75235" lon="6.74338">
        <ele>1884.3</ele>
        <time>2018-08-11T06:47:46Z</time>
      </trkpt>
      <trkpt lat="44.75245" lon="6.74338">
        <ele>1884.8</ele>
        <time>2018-08-11T06:47:57Z</time>
      </trkpt>
      <trkpt lat="44.75246" lon="6.74323">
        <ele>1885.6</ele>
        <time>2018-08-11T06:48:03Z</time>
      </trkpt>
      <trkpt lat="44.75245" lon="6.74308">
        <ele>1887</ele>
        <time>2018-08-11T06:48:10Z</time>
      </trkpt>
      <trkpt lat="44.7524" lon="6.74297">
        <ele>1888</ele>
        <time>2018-08-11T06:48:16Z</time>
      </trkpt>
      <trkpt lat="44.75249" lon="6.74297">
        <ele>1888.3</ele>
        <time>2018-08-11T06:48:21Z</time>
      </trkpt>
      <trkpt lat="44.75252" lon="6.74283">
        <ele>1888.7</ele>
        <time>2018-08-11T06:48:29Z</time>
      </trkpt>
      <trkpt lat="44.75261" lon="6.74277">
        <ele>1889.2</ele>
        <time>2018-08-11T06:48:35Z</time>
      </trkpt>
      <trkpt lat="44.7527" lon="6.74273">
        <ele>1889.6</ele>
        <time>2018-08-11T06:48:40Z</time>
      </trkpt>
      <trkpt lat="44.75283" lon="6.74276">
        <ele>1891</ele>
        <time>2018-08-11T06:48:49Z</time>
      </trkpt>
      <trkpt lat="44.75291" lon="6.74284">
        <ele>1891.5</ele>
        <time>2018-08-11T06:48:57Z</time>
      </trkpt>
      <trkpt lat="44.75299" lon="6.74291">
        <ele>1891.8</ele>
        <time>2018-08-11T06:49:03Z</time>
      </trkpt>
      <trkpt lat="44.75313" lon="6.74292">
        <ele>1892.1</ele>
        <time>2018-08-11T06:49:29Z</time>
      </trkpt>
      <trkpt lat="44.75319" lon="6.74279">
        <ele>1892.3</ele>
        <time>2018-08-11T06:49:34Z</time>
      </trkpt>
      <trkpt lat="44.75328" lon="6.74274">
        <ele>1892.5</ele>
        <time>2018-08-11T06:49:43Z</time>
      </trkpt>
      <trkpt lat="44.75337" lon="6.74273">
        <ele>1892.6</ele>
        <time>2018-08-11T06:49:51Z</time>
      </trkpt>
      <trkpt lat="44.75349" lon="6.74279">
        <ele>1892.8</ele>
        <time>2018-08-11T06:49:56Z</time>
      </trkpt>
      <trkpt lat="44.75358" lon="6.74274">
        <ele>1893</ele>
        <time>2018-08-11T06:50:02Z</time>
      </trkpt>
      <trkpt lat="44.75362" lon="6.74289">
        <ele>1893.2</ele>
        <time>2018-08-11T06:50:09Z</time>
      </trkpt>
      <trkpt lat="44.75374" lon="6.74294">
        <ele>1893.4</ele>
        <time>2018-08-11T06:50:18Z</time>
      </trkpt>
      <trkpt lat="44.75382" lon="6.743">
        <ele>1893.6</ele>
        <time>2018-08-11T06:50:29Z</time>
      </trkpt>
      <trkpt lat="44.75391" lon="6.74306">
        <ele>1893.7</ele>
        <time>2018-08-11T06:50:38Z</time>
      </trkpt>
      <trkpt lat="44.75398" lon="6.74315">
        <ele>1893.8</ele>
        <time>2018-08-11T06:50:46Z</time>
      </trkpt>
      <trkpt lat="44.75407" lon="6.7432">
        <ele>1893.9</ele>
        <time>2018-08-11T06:50:59Z</time>
      </trkpt>
      <trkpt lat="44.75416" lon="6.74324">
        <ele>1894</ele>
        <time>2018-08-11T06:51:04Z</time>
      </trkpt>
      <trkpt lat="44.75428" lon="6.74326">
        <ele>1894.2</ele>
        <time>2018-08-11T06:51:12Z</time>
      </trkpt>
      <trkpt lat="44.75437" lon="6.74326">
        <ele>1894.3</ele>
        <time>2018-08-11T06:51:16Z</time>
      </trkpt>
      <trkpt lat="44.75441" lon="6.74313">
        <ele>1894.4</ele>
        <time>2018-08-11T06:51:26Z</time>
      </trkpt>
      <trkpt lat="44.75448" lon="6.74305">
        <ele>1894.5</ele>
        <time>2018-08-11T06:51:35Z</time>
      </trkpt>
      <trkpt lat="44.75457" lon="6.74301">
        <ele>1894.6</ele>
        <time>2018-08-11T06:51:45Z</time>
      </trkpt>
      <trkpt lat="44.75468" lon="6.74301">
        <ele>1894.9</ele>
        <time>2018-08-11T06:51:53Z</time>
      </trkpt>
      <trkpt lat="44.75477" lon="6.74297">
        <ele>1895.2</ele>
        <time>2018-08-11T06:52:01Z</time>
      </trkpt>
      <trkpt lat="44.75484" lon="6.74288">
        <ele>1895.5</ele>
        <time>2018-08-11T06:52:10Z</time>
      </trkpt>
      <trkpt lat="44.75495" lon="6.74289">
        <ele>1895.7</ele>
        <time>2018-08-11T06:52:16Z</time>
      </trkpt>
      <trkpt lat="44.75503" lon="6.74282">
        <ele>1896</ele>
        <time>2018-08-11T06:52:24Z</time>
      </trkpt>
      <trkpt lat="44.7551" lon="6.74272">
        <ele>1896.7</ele>
        <time>2018-08-11T06:52:32Z</time>
      </trkpt>
      <trkpt lat="44.7552" lon="6.74276">
        <ele>1897.7</ele>
        <time>2018-08-11T06:52:34Z</time>
      </trkpt>
      <trkpt lat="44.75526" lon="6.74266">
        <ele>1898.2</ele>
        <time>2018-08-11T06:52:43Z</time>
      </trkpt>
      <trkpt lat="44.75525" lon="6.74251">
        <ele>1898.7</ele>
        <time>2018-08-11T06:52:52Z</time>
      </trkpt>
      <trkpt lat="44.75532" lon="6.74242">
        <ele>1899</ele>
        <time>2018-08-11T06:53:01Z</time>
      </trkpt>
      <trkpt lat="44.7554" lon="6.74234">
        <ele>1899.2</ele>
        <time>2018-08-11T06:53:10Z</time>
      </trkpt>
      <trkpt lat="44.75547" lon="6.74225">
        <ele>1899.5</ele>
        <time>2018-08-11T06:53:18Z</time>
      </trkpt>
      <trkpt lat="44.75553" lon="6.74214">
        <ele>1899.7</ele>
        <time>2018-08-11T06:53:27Z</time>
      </trkpt>
      <trkpt lat="44.75563" lon="6.74207">
        <ele>1899.9</ele>
        <time>2018-08-11T06:53:35Z</time>
      </trkpt>
      <trkpt lat="44.75572" lon="6.74202">
        <ele>1900</ele>
        <time>2018-08-11T06:53:47Z</time>
      </trkpt>
      <trkpt lat="44.75563" lon="6.74197">
        <ele>1899.7</ele>
        <time>2018-08-11T06:54:13Z</time>
      </trkpt>
      <trkpt lat="44.75566" lon="6.74184">
        <ele>1899.4</ele>
        <time>2018-08-11T06:54:21Z</time>
      </trkpt>
      <trkpt lat="44.75575" lon="6.74178">
        <ele>1899.2</ele>
        <time>2018-08-11T06:54:27Z</time>
      </trkpt>
      <trkpt lat="44.75584" lon="6.7417">
        <ele>1899</ele>
        <time>2018-08-11T06:54:34Z</time>
      </trkpt>
      <trkpt lat="44.75594" lon="6.74163">
        <ele>1898.9</ele>
        <time>2018-08-11T06:54:41Z</time>
      </trkpt>
      <trkpt lat="44.75599" lon="6.74151">
        <ele>1898.7</ele>
        <time>2018-08-11T06:54:50Z</time>
      </trkpt>
      <trkpt lat="44.75595" lon="6.74135">
        <ele>1898.5</ele>
        <time>2018-08-11T06:54:59Z</time>
      </trkpt>
      <trkpt lat="44.75597" lon="6.74121">
        <ele>1898.4</ele>
        <time>2018-08-11T06:55:06Z</time>
      </trkpt>
      <trkpt lat="44.75605" lon="6.74112">
        <ele>1898.2</ele>
        <time>2018-08-11T06:55:16Z</time>
      </trkpt>
      <trkpt lat="44.75611" lon="6.74102">
        <ele>1897.9</ele>
        <time>2018-08-11T06:55:28Z</time>
      </trkpt>
      <trkpt lat="44.7562" lon="6.74098">
        <ele>1897.8</ele>
        <time>2018-08-11T06:55:34Z</time>
      </trkpt>
      <trkpt lat="44.75623" lon="6.74085">
        <ele>1897.6</ele>
        <time>2018-08-11T06:55:41Z</time>
      </trkpt>
      <trkpt lat="44.75626" lon="6.74073">
        <ele>1897.4</ele>
        <time>2018-08-11T06:55:48Z</time>
      </trkpt>
      <trkpt lat="44.75634" lon="6.74068">
        <ele>1897.3</ele>
        <time>2018-08-11T06:55:55Z</time>
      </trkpt>
      <trkpt lat="44.75643" lon="6.74059">
        <ele>1897.1</ele>
        <time>2018-08-11T06:56:03Z</time>
      </trkpt>
      <trkpt lat="44.75653" lon="6.74052">
        <ele>1896.9</ele>
        <time>2018-08-11T06:56:10Z</time>
      </trkpt>
      <trkpt lat="44.75662" lon="6.74051">
        <ele>1896.8</ele>
        <time>2018-08-11T06:56:14Z</time>
      </trkpt>
      <trkpt lat="44.75672" lon="6.74044">
        <ele>1896.6</ele>
        <time>2018-08-11T06:56:21Z</time>
      </trkpt>
      <trkpt lat="44.75673" lon="6.74032">
        <ele>1896.5</ele>
        <time>2018-08-11T06:56:39Z</time>
      </trkpt>
      <trkpt lat="44.75671" lon="6.74018">
        <ele>1896.4</ele>
        <time>2018-08-11T06:56:57Z</time>
      </trkpt>
      <trkpt lat="44.75668" lon="6.74006">
        <ele>1896.3</ele>
        <time>2018-08-11T06:57:23Z</time>
      </trkpt>
      <trkpt lat="44.75676" lon="6.74012">
        <ele>1896.1</ele>
        <time>2018-08-11T06:57:31Z</time>
      </trkpt>
      <trkpt lat="44.75676" lon="6.73998">
        <ele>1896</ele>
        <time>2018-08-11T06:57:46Z</time>
      </trkpt>
      <trkpt lat="44.7568" lon="6.73987">
        <ele>1895.8</ele>
        <time>2018-08-11T06:57:57Z</time>
      </trkpt>
      <trkpt lat="44.75689" lon="6.73978">
        <ele>1895.6</ele>
        <time>2018-08-11T06:58:10Z</time>
      </trkpt>
      <trkpt lat="44.7568" lon="6.73971">
        <ele>1895.5</ele>
        <time>2018-08-11T06:58:15Z</time>
      </trkpt>
      <trkpt lat="44.75686" lon="6.7396">
        <ele>1895.3</ele>
        <time>2018-08-11T06:58:38Z</time>
      </trkpt>
      <trkpt lat="44.75695" lon="6.73958">
        <ele>1895.2</ele>
        <time>2018-08-11T06:58:44Z</time>
      </trkpt>
      <trkpt lat="44.75699" lon="6.73946">
        <ele>1895</ele>
        <time>2018-08-11T06:59:01Z</time>
      </trkpt>
      <trkpt lat="44.75706" lon="6.73937">
        <ele>1898.8</ele>
        <time>2018-08-11T06:59:17Z</time>
      </trkpt>
      <trkpt lat="44.75696" lon="6.73943">
        <ele>1902.6</ele>
        <time>2018-08-11T06:59:33Z</time>
      </trkpt>
      <trkpt lat="44.75686" lon="6.73943">
        <ele>1904.2</ele>
        <time>2018-08-11T06:59:40Z</time>
      </trkpt>
      <trkpt lat="44.75679" lon="6.73953">
        <ele>1904.6</ele>
        <time>2018-08-11T06:59:52Z</time>
      </trkpt>
      <trkpt lat="44.75685" lon="6.73964">
        <ele>1904.1</ele>
        <time>2018-08-11T06:59:59Z</time>
      </trkpt>
      <trkpt lat="44.75677" lon="6.73983">
        <ele>1904.4</ele>
        <time>2018-08-11T07:00:20Z</time>
      </trkpt>
      <trkpt lat="44.75687" lon="6.73983">
        <ele>1905.6</ele>
        <time>2018-08-11T07:00:31Z</time>
      </trkpt>
      <trkpt lat="44.75698" lon="6.73988">
        <ele>1906.8</ele>
        <time>2018-08-11T07:00:37Z</time>
      </trkpt>
      <trkpt lat="44.75687" lon="6.73986">
        <ele>1907.4</ele>
        <time>2018-08-11T07:00:40Z</time>
      </trkpt>
      <trkpt lat="44.75668" lon="6.73987">
        <ele>1908.1</ele>
        <time>2018-08-11T07:00:44Z</time>
      </trkpt>
      <trkpt lat="44.75661" lon="6.73996">
        <ele>1909.3</ele>
        <time>2018-08-11T07:00:53Z</time>
      </trkpt>
      <trkpt lat="44.75614" lon="6.74006">
        <ele>1918.9</ele>
        <time>2018-08-11T07:01:14Z</time>
      </trkpt>
      <trkpt lat="44.75622" lon="6.74001">
        <ele>1922.1</ele>
        <time>2018-08-11T07:01:19Z</time>
      </trkpt>
      <trkpt lat="44.75613" lon="6.74004">
        <ele>1925.7</ele>
        <time>2018-08-11T07:01:31Z</time>
      </trkpt>
      <trkpt lat="44.75602" lon="6.74004">
        <ele>1929.7</ele>
        <time>2018-08-11T07:01:40Z</time>
      </trkpt>
      <trkpt lat="44.75606" lon="6.74016">
        <ele>1920.3</ele>
        <time>2018-08-11T07:01:47Z</time>
      </trkpt>
      <trkpt lat="44.75603" lon="6.74029">
        <ele>1915.1</ele>
        <time>2018-08-11T07:02:16Z</time>
      </trkpt>
      <trkpt lat="44.75612" lon="6.74036">
        <ele>1909.9</ele>
        <time>2018-08-11T07:02:29Z</time>
      </trkpt>
      <trkpt lat="44.75602" lon="6.74045">
        <ele>1910.6</ele>
        <time>2018-08-11T07:02:55Z</time>
      </trkpt>
      <trkpt lat="44.75593" lon="6.74045">
        <ele>1914.7</ele>
        <time>2018-08-11T07:03:01Z</time>
      </trkpt>
      <trkpt lat="44.75582" lon="6.74049">
        <ele>1917.8</ele>
        <time>2018-08-11T07:03:06Z</time>
      </trkpt>
      <trkpt lat="44.75558" lon="6.74051">
        <ele>1928.6</ele>
        <time>2018-08-11T07:03:27Z</time>
      </trkpt>
      <trkpt lat="44.75549" lon="6.74052">
        <ele>1934.1</ele>
        <time>2018-08-11T07:03:33Z</time>
      </trkpt>
      <trkpt lat="44.75545" lon="6.74065">
        <ele>1930.7</ele>
        <time>2018-08-11T07:03:43Z</time>
      </trkpt>
      <trkpt lat="44.75534" lon="6.74066">
        <ele>1937.7</ele>
        <time>2018-08-11T07:03:46Z</time>
      </trkpt>
      <trkpt lat="44.75525" lon="6.74065">
        <ele>1944</ele>
        <time>2018-08-11T07:03:59Z</time>
      </trkpt>
      <trkpt lat="44.75515" lon="6.74069">
        <ele>1948.6</ele>
        <time>2018-08-11T07:04:05Z</time>
      </trkpt>
      <trkpt lat="44.75505" lon="6.74071">
        <ele>1954.3</ele>
        <time>2018-08-11T07:04:12Z</time>
      </trkpt>
      <trkpt lat="44.75491" lon="6.74066">
        <ele>1966.3</ele>
        <time>2018-08-11T07:04:20Z</time>
      </trkpt>
      <trkpt lat="44.75479" lon="6.74071">
        <ele>1971.5</ele>
        <time>2018-08-11T07:04:31Z</time>
      </trkpt>
      <trkpt lat="44.75488" lon="6.74077">
        <ele>1963</ele>
        <time>2018-08-11T07:04:35Z</time>
      </trkpt>
      <trkpt lat="44.75498" lon="6.74078">
        <ele>1957.3</ele>
        <time>2018-08-11T07:04:45Z</time>
      </trkpt>
      <trkpt lat="44.7551" lon="6.7408">
        <ele>1947.3</ele>
        <time>2018-08-11T07:04:51Z</time>
      </trkpt>
      <trkpt lat="44.75522" lon="6.74085">
        <ele>1938.1</ele>
        <time>2018-08-11T07:04:55Z</time>
      </trkpt>
      <trkpt lat="44.75532" lon="6.74091">
        <ele>1930.4</ele>
        <time>2018-08-11T07:05:01Z</time>
      </trkpt>
      <trkpt lat="44.75542" lon="6.74095">
        <ele>1922.4</ele>
        <time>2018-08-11T07:05:10Z</time>
      </trkpt>
      <trkpt lat="44.75524" lon="6.74098">
        <ele>1932.6</ele>
        <time>2018-08-11T07:05:23Z</time>
      </trkpt>
      <trkpt lat="44.75516" lon="6.74105">
        <ele>1937.5</ele>
        <time>2018-08-11T07:05:33Z</time>
      </trkpt>
      <trkpt lat="44.75502" lon="6.74103">
        <ele>1947</ele>
        <time>2018-08-11T07:05:41Z</time>
      </trkpt>
      <trkpt lat="44.75493" lon="6.74103">
        <ele>1952.7</ele>
        <time>2018-08-11T07:05:45Z</time>
      </trkpt>
      <trkpt lat="44.75482" lon="6.741">
        <ele>1958.8</ele>
        <time>2018-08-11T07:05:54Z</time>
      </trkpt>
      <trkpt lat="44.75472" lon="6.74099">
        <ele>1965.4</ele>
        <time>2018-08-11T07:05:57Z</time>
      </trkpt>
      <trkpt lat="44.75462" lon="6.74105">
        <ele>1968.5</ele>
        <time>2018-08-11T07:06:30Z</time>
      </trkpt>
      <trkpt lat="44.75453" lon="6.74107">
        <ele>1971.9</ele>
        <time>2018-08-11T07:06:38Z</time>
      </trkpt>
      <trkpt lat="44.75461" lon="6.74113">
        <ele>1966.1</ele>
        <time>2018-08-11T07:06:59Z</time>
      </trkpt>
      <trkpt lat="44.75452" lon="6.74107">
        <ele>1971.8</ele>
        <time>2018-08-11T07:07:13Z</time>
      </trkpt>
      <trkpt lat="44.75443" lon="6.74109">
        <ele>1975.6</ele>
        <time>2018-08-11T07:07:48Z</time>
      </trkpt>
      <trkpt lat="44.75434" lon="6.74113">
        <ele>1977.6</ele>
        <time>2018-08-11T07:08:06Z</time>
      </trkpt>
      <trkpt lat="44.75424" lon="6.74107">
        <ele>1981.6</ele>
        <time>2018-08-11T07:08:38Z</time>
      </trkpt>
      <trkpt lat="44.75419" lon="6.74095">
        <ele>1987.3</ele>
        <time>2018-08-11T07:08:59Z</time>
      </trkpt>
      <trkpt lat="44.75423" lon="6.74082">
        <ele>1990.6</ele>
        <time>2018-08-11T07:09:13Z</time>
      </trkpt>
      <trkpt lat="44.75431" lon="6.74075">
        <ele>1991.2</ele>
        <time>2018-08-11T07:09:36Z</time>
      </trkpt>
      <trkpt lat="44.75441" lon="6.74081">
        <ele>1984.8</ele>
        <time>2018-08-11T07:09:48Z</time>
      </trkpt>
      <trkpt lat="44.75451" lon="6.74078">
        <ele>1981.4</ele>
        <time>2018-08-11T07:10:07Z</time>
      </trkpt>
      <trkpt lat="44.75461" lon="6.7408">
        <ele>1976.7</ele>
        <time>2018-08-11T07:10:12Z</time>
      </trkpt>
      <trkpt lat="44.75472" lon="6.74084">
        <ele>1970.5</ele>
        <time>2018-08-11T07:10:16Z</time>
      </trkpt>
      <trkpt lat="44.75482" lon="6.74087">
        <ele>1962.2</ele>
        <time>2018-08-11T07:10:20Z</time>
      </trkpt>
      <trkpt lat="44.75483" lon="6.74074">
        <ele>1967.1</ele>
        <time>2018-08-11T07:10:41Z</time>
      </trkpt>
      <trkpt lat="44.7549" lon="6.74065">
        <ele>1967</ele>
        <time>2018-08-11T07:11:00Z</time>
      </trkpt>
      <trkpt lat="44.75492" lon="6.74078">
        <ele>1960.2</ele>
        <time>2018-08-11T07:11:33Z</time>
      </trkpt>
      <trkpt lat="44.75631" lon="6.73999">
        <ele>1915.1</ele>
        <time>2018-08-11T07:15:16Z</time>
      </trkpt>
      <trkpt lat="44.75652" lon="6.74004">
        <ele>1907.4</ele>
        <time>2018-08-11T07:15:46Z</time>
      </trkpt>
      <trkpt lat="44.75658" lon="6.73962">
        <ele>1918.7</ele>
        <time>2018-08-11T07:16:46Z</time>
      </trkpt>
      <trkpt lat="44.75669" lon="6.73957">
        <ele>1908.8</ele>
        <time>2018-08-11T07:16:58Z</time>
      </trkpt>
      <trkpt lat="44.75671" lon="6.73847">
        <ele>1930.1</ele>
        <time>2018-08-11T07:18:30Z</time>
      </trkpt>
      <trkpt lat="44.75674" lon="6.73835">
        <ele>1930.3</ele>
        <time>2018-08-11T07:18:40Z</time>
      </trkpt>
      <trkpt lat="44.75685" lon="6.73829">
        <ele>1931.3</ele>
        <time>2018-08-11T07:18:46Z</time>
      </trkpt>
      <trkpt lat="44.75694" lon="6.73825">
        <ele>1931.4</ele>
        <time>2018-08-11T07:18:51Z</time>
      </trkpt>
      <trkpt lat="44.75688" lon="6.73803">
        <ele>1931.6</ele>
        <time>2018-08-11T07:19:12Z</time>
      </trkpt>
      <trkpt lat="44.75685" lon="6.7379">
        <ele>1931.6</ele>
        <time>2018-08-11T07:19:32Z</time>
      </trkpt>
      <trkpt lat="44.75691" lon="6.73778">
        <ele>1932</ele>
        <time>2018-08-11T07:19:42Z</time>
      </trkpt>
      <trkpt lat="44.757" lon="6.73775">
        <ele>1932</ele>
        <time>2018-08-11T07:19:46Z</time>
      </trkpt>
      <trkpt lat="44.75695" lon="6.73764">
        <ele>1931.8</ele>
        <time>2018-08-11T07:19:56Z</time>
      </trkpt>
      <trkpt lat="44.757" lon="6.73753">
        <ele>1932.2</ele>
        <time>2018-08-11T07:20:06Z</time>
      </trkpt>
      <trkpt lat="44.75707" lon="6.73745">
        <ele>1928.2</ele>
        <time>2018-08-11T07:20:13Z</time>
      </trkpt>
      <trkpt lat="44.75716" lon="6.73737">
        <ele>1924</ele>
        <time>2018-08-11T07:20:19Z</time>
      </trkpt>
      <trkpt lat="44.75707" lon="6.73727">
        <ele>1927</ele>
        <time>2018-08-11T07:20:25Z</time>
      </trkpt>
      <trkpt lat="44.75698" lon="6.73722">
        <ele>1930.5</ele>
        <time>2018-08-11T07:20:28Z</time>
      </trkpt>
      <trkpt lat="44.75689" lon="6.73715">
        <ele>1934.3</ele>
        <time>2018-08-11T07:20:32Z</time>
      </trkpt>
      <trkpt lat="44.757" lon="6.73719">
        <ele>1930.3</ele>
        <time>2018-08-11T07:20:54Z</time>
      </trkpt>
      <trkpt lat="44.7571" lon="6.73723">
        <ele>1926</ele>
        <time>2018-08-11T07:20:58Z</time>
      </trkpt>
      <trkpt lat="44.75719" lon="6.73726">
        <ele>1922.1</ele>
        <time>2018-08-11T07:21:02Z</time>
      </trkpt>
      <trkpt lat="44.75711" lon="6.73736">
        <ele>1927.2</ele>
        <time>2018-08-11T07:21:17Z</time>
      </trkpt>
      <trkpt lat="44.75713" lon="6.73749">
        <ele>1926.9</ele>
        <time>2018-08-11T07:21:34Z</time>
      </trkpt>
      <trkpt lat="44.75703" lon="6.73751">
        <ele>1932.1</ele>
        <time>2018-08-11T07:21:39Z</time>
      </trkpt>
      <trkpt lat="44.75687" lon="6.73765">
        <ele>1934.7</ele>
        <time>2018-08-11T07:21:54Z</time>
      </trkpt>
      <trkpt lat="44.75695" lon="6.73772">
        <ele>1936.8</ele>
        <time>2018-08-11T07:22:00Z</time>
      </trkpt>
      <trkpt lat="44.75705" lon="6.73771">
        <ele>1940.7</ele>
        <time>2018-08-11T07:22:07Z</time>
      </trkpt>
      <trkpt lat="44.75715" lon="6.73769">
        <ele>1944.1</ele>
        <time>2018-08-11T07:22:13Z</time>
      </trkpt>
      <trkpt lat="44.75705" lon="6.73763">
        <ele>1945.2</ele>
        <time>2018-08-11T07:22:21Z</time>
      </trkpt>
      <trkpt lat="44.75696" lon="6.73758">
        <ele>1946.9</ele>
        <time>2018-08-11T07:22:25Z</time>
      </trkpt>
      <trkpt lat="44.75687" lon="6.73752">
        <ele>1949.7</ele>
        <time>2018-08-11T07:22:29Z</time>
      </trkpt>
      <trkpt lat="44.75676" lon="6.73743">
        <ele>1952.8</ele>
        <time>2018-08-11T07:22:34Z</time>
      </trkpt>
      <trkpt lat="44.75665" lon="6.73736">
        <ele>1954.6</ele>
        <time>2018-08-11T07:22:37Z</time>
      </trkpt>
      <trkpt lat="44.75658" lon="6.73725">
        <ele>1957.5</ele>
        <time>2018-08-11T07:22:55Z</time>
      </trkpt>
      <trkpt lat="44.75654" lon="6.73713">
        <ele>1959.2</ele>
        <time>2018-08-11T07:23:08Z</time>
      </trkpt>
      <trkpt lat="44.75655" lon="6.73699">
        <ele>1961.7</ele>
        <time>2018-08-11T07:23:21Z</time>
      </trkpt>
      <trkpt lat="44.75645" lon="6.73697">
        <ele>1965</ele>
        <time>2018-08-11T07:23:33Z</time>
      </trkpt>
      <trkpt lat="44.75636" lon="6.73693">
        <ele>1967.3</ele>
        <time>2018-08-11T07:23:37Z</time>
      </trkpt>
      <trkpt lat="44.75633" lon="6.73681">
        <ele>1970.3</ele>
        <time>2018-08-11T07:23:53Z</time>
      </trkpt>
      <trkpt lat="44.75624" lon="6.73676">
        <ele>1974.3</ele>
        <time>2018-08-11T07:24:05Z</time>
      </trkpt>
      <trkpt lat="44.75603" lon="6.73649">
        <ele>1982.7</ele>
        <time>2018-08-11T07:24:37Z</time>
      </trkpt>
      <trkpt lat="44.75594" lon="6.73642">
        <ele>1985.3</ele>
        <time>2018-08-11T07:24:52Z</time>
      </trkpt>
      <trkpt lat="44.75583" lon="6.73614">
        <ele>1988.7</ele>
        <time>2018-08-11T07:25:32Z</time>
      </trkpt>
      <trkpt lat="44.75581" lon="6.73597">
        <ele>1989.6</ele>
        <time>2018-08-11T07:26:01Z</time>
      </trkpt>
      <trkpt lat="44.75575" lon="6.73588">
        <ele>1988.3</ele>
        <time>2018-08-11T07:26:16Z</time>
      </trkpt>
      <trkpt lat="44.75565" lon="6.73578">
        <ele>1992.3</ele>
        <time>2018-08-11T07:26:27Z</time>
      </trkpt>
      <trkpt lat="44.75554" lon="6.73565">
        <ele>1996.3</ele>
        <time>2018-08-11T07:26:41Z</time>
      </trkpt>
      <trkpt lat="44.75536" lon="6.73546">
        <ele>2001.1</ele>
        <time>2018-08-11T07:27:14Z</time>
      </trkpt>
      <trkpt lat="44.75527" lon="6.73541">
        <ele>2003.5</ele>
        <time>2018-08-11T07:27:30Z</time>
      </trkpt>
      <trkpt lat="44.7553" lon="6.73529">
        <ele>2005.9</ele>
        <time>2018-08-11T07:27:39Z</time>
      </trkpt>
      <trkpt lat="44.75511" lon="6.73508">
        <ele>2010.1</ele>
        <time>2018-08-11T07:28:00Z</time>
      </trkpt>
      <trkpt lat="44.75503" lon="6.73498">
        <ele>2011.9</ele>
        <time>2018-08-11T07:28:16Z</time>
      </trkpt>
      <trkpt lat="44.75489" lon="6.73485">
        <ele>2013.2</ele>
        <time>2018-08-11T07:28:29Z</time>
      </trkpt>
      <trkpt lat="44.75477" lon="6.73482">
        <ele>2014.2</ele>
        <time>2018-08-11T07:28:32Z</time>
      </trkpt>
      <trkpt lat="44.7547" lon="6.73475">
        <ele>2013.9</ele>
        <time>2018-08-11T07:28:40Z</time>
      </trkpt>
      <trkpt lat="44.75479" lon="6.73475">
        <ele>2013.4</ele>
        <time>2018-08-11T07:28:50Z</time>
      </trkpt>
      <trkpt lat="44.75478" lon="6.73452">
        <ele>2014</ele>
        <time>2018-08-11T07:29:14Z</time>
      </trkpt>
      <trkpt lat="44.7547" lon="6.73445">
        <ele>2014.2</ele>
        <time>2018-08-11T07:29:19Z</time>
      </trkpt>
      <trkpt lat="44.7548" lon="6.73439">
        <ele>2014.1</ele>
        <time>2018-08-11T07:29:31Z</time>
      </trkpt>
      <trkpt lat="44.75491" lon="6.73438">
        <ele>2015.3</ele>
        <time>2018-08-11T07:29:36Z</time>
      </trkpt>
      <trkpt lat="44.75484" lon="6.73425">
        <ele>2019</ele>
        <time>2018-08-11T07:29:51Z</time>
      </trkpt>
      <trkpt lat="44.75479" lon="6.73414">
        <ele>2020.1</ele>
        <time>2018-08-11T07:30:02Z</time>
      </trkpt>
      <trkpt lat="44.7547" lon="6.73404">
        <ele>2021.4</ele>
        <time>2018-08-11T07:30:10Z</time>
      </trkpt>
      <trkpt lat="44.7547" lon="6.73391">
        <ele>2023.5</ele>
        <time>2018-08-11T07:30:19Z</time>
      </trkpt>
      <trkpt lat="44.75461" lon="6.73389">
        <ele>2026.4</ele>
        <time>2018-08-11T07:30:29Z</time>
      </trkpt>
      <trkpt lat="44.75454" lon="6.7338">
        <ele>2029.9</ele>
        <time>2018-08-11T07:30:46Z</time>
      </trkpt>
      <trkpt lat="44.75448" lon="6.73369">
        <ele>2033.8</ele>
        <time>2018-08-11T07:31:04Z</time>
      </trkpt>
      <trkpt lat="44.75439" lon="6.73364">
        <ele>2035.9</ele>
        <time>2018-08-11T07:31:10Z</time>
      </trkpt>
      <trkpt lat="44.75437" lon="6.73351">
        <ele>2036.9</ele>
        <time>2018-08-11T07:31:22Z</time>
      </trkpt>
      <trkpt lat="44.75431" lon="6.73341">
        <ele>2037.8</ele>
        <time>2018-08-11T07:31:35Z</time>
      </trkpt>
      <trkpt lat="44.75423" lon="6.73325">
        <ele>2040.1</ele>
        <time>2018-08-11T07:31:54Z</time>
      </trkpt>
      <trkpt lat="44.75432" lon="6.73318">
        <ele>2040.7</ele>
        <time>2018-08-11T07:32:08Z</time>
      </trkpt>
      <trkpt lat="44.75425" lon="6.7331">
        <ele>2041.6</ele>
        <time>2018-08-11T07:32:40Z</time>
      </trkpt>
      <trkpt lat="44.75413" lon="6.73305">
        <ele>2041.8</ele>
        <time>2018-08-11T07:32:45Z</time>
      </trkpt>
      <trkpt lat="44.75402" lon="6.73297">
        <ele>2042.2</ele>
        <time>2018-08-11T07:32:58Z</time>
      </trkpt>
      <trkpt lat="44.75404" lon="6.73281">
        <ele>2044.2</ele>
        <time>2018-08-11T07:33:11Z</time>
      </trkpt>
      <trkpt lat="44.75402" lon="6.73268">
        <ele>2045.9</ele>
        <time>2018-08-11T07:33:28Z</time>
      </trkpt>
      <trkpt lat="44.75393" lon="6.73265">
        <ele>2047.3</ele>
        <time>2018-08-11T07:33:50Z</time>
      </trkpt>
      <trkpt lat="44.75385" lon="6.73258">
        <ele>2049</ele>
        <time>2018-08-11T07:34:02Z</time>
      </trkpt>
      <trkpt lat="44.75381" lon="6.73244">
        <ele>2049.9</ele>
        <time>2018-08-11T07:34:17Z</time>
      </trkpt>
      <trkpt lat="44.75379" lon="6.7323">
        <ele>2051.3</ele>
        <time>2018-08-11T07:34:23Z</time>
      </trkpt>
      <trkpt lat="44.75381" lon="6.73217">
        <ele>2053.4</ele>
        <time>2018-08-11T07:34:29Z</time>
      </trkpt>
      <trkpt lat="44.75383" lon="6.73203">
        <ele>2056.1</ele>
        <time>2018-08-11T07:34:42Z</time>
      </trkpt>
      <trkpt lat="44.75381" lon="6.73215">
        <ele>2056.8</ele>
        <time>2018-08-11T07:34:58Z</time>
      </trkpt>
      <trkpt lat="44.75373" lon="6.73223">
        <ele>2058.7</ele>
        <time>2018-08-11T07:35:15Z</time>
      </trkpt>
      <trkpt lat="44.75365" lon="6.73215">
        <ele>2059.8</ele>
        <time>2018-08-11T07:35:34Z</time>
      </trkpt>
      <trkpt lat="44.75356" lon="6.73213">
        <ele>2060.3</ele>
        <time>2018-08-11T07:35:44Z</time>
      </trkpt>
      <trkpt lat="44.75347" lon="6.73211">
        <ele>2061.2</ele>
        <time>2018-08-11T07:36:00Z</time>
      </trkpt>
      <trkpt lat="44.75338" lon="6.73207">
        <ele>2061.7</ele>
        <time>2018-08-11T07:36:18Z</time>
      </trkpt>
      <trkpt lat="44.75329" lon="6.73204">
        <ele>2061.6</ele>
        <time>2018-08-11T07:36:42Z</time>
      </trkpt>
      <trkpt lat="44.75318" lon="6.73204">
        <ele>2062.3</ele>
        <time>2018-08-11T07:36:59Z</time>
      </trkpt>
      <trkpt lat="44.75308" lon="6.73206">
        <ele>2063.5</ele>
        <time>2018-08-11T07:37:10Z</time>
      </trkpt>
      <trkpt lat="44.753" lon="6.73211">
        <ele>2064.9</ele>
        <time>2018-08-11T07:37:25Z</time>
      </trkpt>
      <trkpt lat="44.75291" lon="6.73215">
        <ele>2067.2</ele>
        <time>2018-08-11T07:37:44Z</time>
      </trkpt>
      <trkpt lat="44.75281" lon="6.73207">
        <ele>2069.1</ele>
        <time>2018-08-11T07:37:58Z</time>
      </trkpt>
      <trkpt lat="44.75269" lon="6.73203">
        <ele>2071.1</ele>
        <time>2018-08-11T07:38:09Z</time>
      </trkpt>
      <trkpt lat="44.75261" lon="6.73196">
        <ele>2073.6</ele>
        <time>2018-08-11T07:38:20Z</time>
      </trkpt>
      <trkpt lat="44.75252" lon="6.73194">
        <ele>2075</ele>
        <time>2018-08-11T07:38:40Z</time>
      </trkpt>
      <trkpt lat="44.75242" lon="6.73194">
        <ele>2076.4</ele>
        <time>2018-08-11T07:39:01Z</time>
      </trkpt>
      <trkpt lat="44.75235" lon="6.73186">
        <ele>2078</ele>
        <time>2018-08-11T07:39:20Z</time>
      </trkpt>
      <trkpt lat="44.75226" lon="6.73182">
        <ele>2080</ele>
        <time>2018-08-11T07:39:46Z</time>
      </trkpt>
      <trkpt lat="44.75217" lon="6.73179">
        <ele>2081.2</ele>
        <time>2018-08-11T07:39:55Z</time>
      </trkpt>
      <trkpt lat="44.75208" lon="6.73178">
        <ele>2083</ele>
        <time>2018-08-11T07:40:03Z</time>
      </trkpt>
      <trkpt lat="44.752" lon="6.73182">
        <ele>2084.9</ele>
        <time>2018-08-11T07:40:16Z</time>
      </trkpt>
      <trkpt lat="44.75191" lon="6.73177">
        <ele>2086.9</ele>
        <time>2018-08-11T07:40:27Z</time>
      </trkpt>
      <trkpt lat="44.75182" lon="6.7317">
        <ele>2089.1</ele>
        <time>2018-08-11T07:40:40Z</time>
      </trkpt>
      <trkpt lat="44.75178" lon="6.73158">
        <ele>2091.1</ele>
        <time>2018-08-11T07:40:50Z</time>
      </trkpt>
      <trkpt lat="44.75172" lon="6.73147">
        <ele>2092.9</ele>
        <time>2018-08-11T07:41:00Z</time>
      </trkpt>
      <trkpt lat="44.75168" lon="6.73135">
        <ele>2094.1</ele>
        <time>2018-08-11T07:41:14Z</time>
      </trkpt>
      <trkpt lat="44.75166" lon="6.73122">
        <ele>2095.6</ele>
        <time>2018-08-11T07:41:23Z</time>
      </trkpt>
      <trkpt lat="44.7516" lon="6.73113">
        <ele>2097</ele>
        <time>2018-08-11T07:41:32Z</time>
      </trkpt>
      <trkpt lat="44.75152" lon="6.73105">
        <ele>2098.4</ele>
        <time>2018-08-11T07:41:46Z</time>
      </trkpt>
      <trkpt lat="44.75142" lon="6.73104">
        <ele>2100.4</ele>
        <time>2018-08-11T07:42:00Z</time>
      </trkpt>
      <trkpt lat="44.75134" lon="6.731">
        <ele>2101.8</ele>
        <time>2018-08-11T07:42:07Z</time>
      </trkpt>
      <trkpt lat="44.75127" lon="6.7309">
        <ele>2103.3</ele>
        <time>2018-08-11T07:42:33Z</time>
      </trkpt>
      <trkpt lat="44.75124" lon="6.73078">
        <ele>2104.7</ele>
        <time>2018-08-11T07:42:46Z</time>
      </trkpt>
      <trkpt lat="44.75119" lon="6.73067">
        <ele>2106.2</ele>
        <time>2018-08-11T07:43:11Z</time>
      </trkpt>
      <trkpt lat="44.75118" lon="6.7305">
        <ele>2108.4</ele>
        <time>2018-08-11T07:43:17Z</time>
      </trkpt>
      <trkpt lat="44.75112" lon="6.7304">
        <ele>2109.7</ele>
        <time>2018-08-11T07:43:31Z</time>
      </trkpt>
      <trkpt lat="44.75108" lon="6.73052">
        <ele>2111.4</ele>
        <time>2018-08-11T07:45:50Z</time>
      </trkpt>
      <trkpt lat="44.75101" lon="6.73045">
        <ele>2112.7</ele>
        <time>2018-08-11T07:46:32Z</time>
      </trkpt>
      <trkpt lat="44.75092" lon="6.73039">
        <ele>2114.3</ele>
        <time>2018-08-11T07:46:43Z</time>
      </trkpt>
      <trkpt lat="44.75085" lon="6.73031">
        <ele>2116.2</ele>
        <time>2018-08-11T07:46:53Z</time>
      </trkpt>
      <trkpt lat="44.75084" lon="6.73018">
        <ele>2116.8</ele>
        <time>2018-08-11T07:47:08Z</time>
      </trkpt>
      <trkpt lat="44.75085" lon="6.73005">
        <ele>2117.1</ele>
        <time>2018-08-11T07:47:20Z</time>
      </trkpt>
      <trkpt lat="44.75079" lon="6.72995">
        <ele>2116.7</ele>
        <time>2018-08-11T07:47:47Z</time>
      </trkpt>
      <trkpt lat="44.75074" lon="6.72984">
        <ele>2116.6</ele>
        <time>2018-08-11T07:47:59Z</time>
      </trkpt>
      <trkpt lat="44.7507" lon="6.72972">
        <ele>2117.3</ele>
        <time>2018-08-11T07:48:13Z</time>
      </trkpt>
      <trkpt lat="44.75065" lon="6.7296">
        <ele>2118.2</ele>
        <time>2018-08-11T07:48:24Z</time>
      </trkpt>
      <trkpt lat="44.75058" lon="6.72951">
        <ele>2119.1</ele>
        <time>2018-08-11T07:48:36Z</time>
      </trkpt>
      <trkpt lat="44.7505" lon="6.72944">
        <ele>2120</ele>
        <time>2018-08-11T07:48:49Z</time>
      </trkpt>
      <trkpt lat="44.75052" lon="6.7293">
        <ele>2121.1</ele>
        <time>2018-08-11T07:49:16Z</time>
      </trkpt>
      <trkpt lat="44.75057" lon="6.72921">
        <ele>2122</ele>
        <time>2018-08-11T07:49:21Z</time>
      </trkpt>
      <trkpt lat="44.75053" lon="6.72932">
        <ele>2122.8</ele>
        <time>2018-08-11T07:49:34Z</time>
      </trkpt>
      <trkpt lat="44.75061" lon="6.72938">
        <ele>2123.7</ele>
        <time>2018-08-11T07:50:00Z</time>
      </trkpt>
      <trkpt lat="44.75072" lon="6.72934">
        <ele>2124.6</ele>
        <time>2018-08-11T07:50:11Z</time>
      </trkpt>
      <trkpt lat="44.75062" lon="6.72929">
        <ele>2125.6</ele>
        <time>2018-08-11T07:50:42Z</time>
      </trkpt>
      <trkpt lat="44.75053" lon="6.72928">
        <ele>2127.1</ele>
        <time>2018-08-11T07:50:51Z</time>
      </trkpt>
      <trkpt lat="44.75044" lon="6.72926">
        <ele>2128.3</ele>
        <time>2018-08-11T07:51:03Z</time>
      </trkpt>
      <trkpt lat="44.75035" lon="6.72923">
        <ele>2129.6</ele>
        <time>2018-08-11T07:51:16Z</time>
      </trkpt>
      <trkpt lat="44.75026" lon="6.72917">
        <ele>2131.4</ele>
        <time>2018-08-11T07:51:27Z</time>
      </trkpt>
      <trkpt lat="44.75017" lon="6.7292">
        <ele>2133.1</ele>
        <time>2018-08-11T07:51:57Z</time>
      </trkpt>
      <trkpt lat="44.75008" lon="6.72918">
        <ele>2134.7</ele>
        <time>2018-08-11T07:52:13Z</time>
      </trkpt>
      <trkpt lat="44.74999" lon="6.72918">
        <ele>2135.5</ele>
        <time>2018-08-11T07:52:24Z</time>
      </trkpt>
      <trkpt lat="44.7499" lon="6.72913">
        <ele>2136.7</ele>
        <time>2018-08-11T07:52:35Z</time>
      </trkpt>
      <trkpt lat="44.74981" lon="6.72914">
        <ele>2137.6</ele>
        <time>2018-08-11T07:52:50Z</time>
      </trkpt>
      <trkpt lat="44.74972" lon="6.72914">
        <ele>2138.7</ele>
        <time>2018-08-11T07:53:02Z</time>
      </trkpt>
      <trkpt lat="44.74962" lon="6.72918">
        <ele>2139.8</ele>
        <time>2018-08-11T07:53:17Z</time>
      </trkpt>
      <trkpt lat="44.74952" lon="6.72916">
        <ele>2141.1</ele>
        <time>2018-08-11T07:53:26Z</time>
      </trkpt>
      <trkpt lat="44.74943" lon="6.72917">
        <ele>2142</ele>
        <time>2018-08-11T07:53:39Z</time>
      </trkpt>
      <trkpt lat="44.74934" lon="6.72912">
        <ele>2142.9</ele>
        <time>2018-08-11T07:53:54Z</time>
      </trkpt>
      <trkpt lat="44.74925" lon="6.72913">
        <ele>2143.3</ele>
        <time>2018-08-11T07:54:06Z</time>
      </trkpt>
      <trkpt lat="44.74916" lon="6.72912">
        <ele>2143.9</ele>
        <time>2018-08-11T07:54:16Z</time>
      </trkpt>
      <trkpt lat="44.74906" lon="6.72911">
        <ele>2144.9</ele>
        <time>2018-08-11T07:54:28Z</time>
      </trkpt>
      <trkpt lat="44.74897" lon="6.7291">
        <ele>2145.4</ele>
        <time>2018-08-11T07:54:40Z</time>
      </trkpt>
      <trkpt lat="44.74888" lon="6.72904">
        <ele>2146.2</ele>
        <time>2018-08-11T07:54:54Z</time>
      </trkpt>
      <trkpt lat="44.74879" lon="6.72906">
        <ele>2147.1</ele>
        <time>2018-08-11T07:55:10Z</time>
      </trkpt>
      <trkpt lat="44.7487" lon="6.72907">
        <ele>2147.7</ele>
        <time>2018-08-11T07:55:40Z</time>
      </trkpt>
      <trkpt lat="44.74861" lon="6.72909">
        <ele>2148.5</ele>
        <time>2018-08-11T07:56:00Z</time>
      </trkpt>
      <trkpt lat="44.74851" lon="6.72911">
        <ele>2149.5</ele>
        <time>2018-08-11T07:56:22Z</time>
      </trkpt>
      <trkpt lat="44.74844" lon="6.7292">
        <ele>2150.6</ele>
        <time>2018-08-11T07:56:36Z</time>
      </trkpt>
      <trkpt lat="44.74835" lon="6.72924">
        <ele>2152</ele>
        <time>2018-08-11T07:56:44Z</time>
      </trkpt>
      <trkpt lat="44.74826" lon="6.72925">
        <ele>2153.2</ele>
        <time>2018-08-11T07:56:48Z</time>
      </trkpt>
      <trkpt lat="44.74818" lon="6.72931">
        <ele>2154.5</ele>
        <time>2018-08-11T07:56:55Z</time>
      </trkpt>
      <trkpt lat="44.7481" lon="6.72935">
        <ele>2156.1</ele>
        <time>2018-08-11T07:57:08Z</time>
      </trkpt>
      <trkpt lat="44.748" lon="6.72931">
        <ele>2157.8</ele>
        <time>2018-08-11T07:57:54Z</time>
      </trkpt>
      <trkpt lat="44.7479" lon="6.72935">
        <ele>2159.2</ele>
        <time>2018-08-11T07:58:12Z</time>
      </trkpt>
      <trkpt lat="44.7478" lon="6.7294">
        <ele>2160.9</ele>
        <time>2018-08-11T07:58:23Z</time>
      </trkpt>
      <trkpt lat="44.7477" lon="6.72942">
        <ele>2162.3</ele>
        <time>2018-08-11T07:58:32Z</time>
      </trkpt>
      <trkpt lat="44.74761" lon="6.72944">
        <ele>2163.7</ele>
        <time>2018-08-11T07:58:46Z</time>
      </trkpt>
      <trkpt lat="44.74752" lon="6.72941">
        <ele>2165.3</ele>
        <time>2018-08-11T07:59:04Z</time>
      </trkpt>
      <trkpt lat="44.74743" lon="6.72938">
        <ele>2166.6</ele>
        <time>2018-08-11T07:59:18Z</time>
      </trkpt>
      <trkpt lat="44.74735" lon="6.72931">
        <ele>2168.1</ele>
        <time>2018-08-11T07:59:43Z</time>
      </trkpt>
      <trkpt lat="44.74722" lon="6.72926">
        <ele>2170.6</ele>
        <time>2018-08-11T08:00:05Z</time>
      </trkpt>
      <trkpt lat="44.74715" lon="6.72918">
        <ele>2172.4</ele>
        <time>2018-08-11T08:00:13Z</time>
      </trkpt>
      <trkpt lat="44.74707" lon="6.7291">
        <ele>2173.5</ele>
        <time>2018-08-11T08:00:30Z</time>
      </trkpt>
      <trkpt lat="44.74698" lon="6.72906">
        <ele>2174.5</ele>
        <time>2018-08-11T08:00:43Z</time>
      </trkpt>
      <trkpt lat="44.74689" lon="6.72901">
        <ele>2175.8</ele>
        <time>2018-08-11T08:00:56Z</time>
      </trkpt>
      <trkpt lat="44.7468" lon="6.72899">
        <ele>2176.6</ele>
        <time>2018-08-11T08:01:15Z</time>
      </trkpt>
      <trkpt lat="44.74671" lon="6.72902">
        <ele>2177.4</ele>
        <time>2018-08-11T08:01:30Z</time>
      </trkpt>
      <trkpt lat="44.74662" lon="6.72898">
        <ele>2178.5</ele>
        <time>2018-08-11T08:01:47Z</time>
      </trkpt>
      <trkpt lat="44.74653" lon="6.72899">
        <ele>2179.8</ele>
        <time>2018-08-11T08:02:02Z</time>
      </trkpt>
      <trkpt lat="44.74643" lon="6.72899">
        <ele>2181.1</ele>
        <time>2018-08-11T08:02:23Z</time>
      </trkpt>
      <trkpt lat="44.74634" lon="6.72901">
        <ele>2182.1</ele>
        <time>2018-08-11T08:02:39Z</time>
      </trkpt>
      <trkpt lat="44.74624" lon="6.72905">
        <ele>2183.3</ele>
        <time>2018-08-11T08:02:54Z</time>
      </trkpt>
      <trkpt lat="44.74617" lon="6.72913">
        <ele>2184.3</ele>
        <time>2018-08-11T08:03:06Z</time>
      </trkpt>
      <trkpt lat="44.7461" lon="6.7292">
        <ele>2185.1</ele>
        <time>2018-08-11T08:03:25Z</time>
      </trkpt>
      <trkpt lat="44.74603" lon="6.72929">
        <ele>2185.9</ele>
        <time>2018-08-11T08:04:13Z</time>
      </trkpt>
      <trkpt lat="44.74598" lon="6.72918">
        <ele>2186.6</ele>
        <time>2018-08-11T08:06:42Z</time>
      </trkpt>
      <trkpt lat="44.74591" lon="6.72909">
        <ele>2187.4</ele>
        <time>2018-08-11T08:07:01Z</time>
      </trkpt>
      <trkpt lat="44.74599" lon="6.72924">
        <ele>2188.5</ele>
        <time>2018-08-11T08:07:52Z</time>
      </trkpt>
      <trkpt lat="44.74605" lon="6.72934">
        <ele>2188.9</ele>
        <time>2018-08-11T08:08:04Z</time>
      </trkpt>
      <trkpt lat="44.7461" lon="6.72944">
        <ele>2189.6</ele>
        <time>2018-08-11T08:08:10Z</time>
      </trkpt>
      <trkpt lat="44.74601" lon="6.72944">
        <ele>2190.2</ele>
        <time>2018-08-11T08:08:56Z</time>
      </trkpt>
      <trkpt lat="44.74593" lon="6.72951">
        <ele>2190.9</ele>
        <time>2018-08-11T08:09:05Z</time>
      </trkpt>
      <trkpt lat="44.74586" lon="6.7296">
        <ele>2191.7</ele>
        <time>2018-08-11T08:09:14Z</time>
      </trkpt>
      <trkpt lat="44.74578" lon="6.72967">
        <ele>2192.6</ele>
        <time>2018-08-11T08:09:24Z</time>
      </trkpt>
      <trkpt lat="44.74568" lon="6.72969">
        <ele>2193.9</ele>
        <time>2018-08-11T08:09:38Z</time>
      </trkpt>
      <trkpt lat="44.74559" lon="6.72968">
        <ele>2194.8</ele>
        <time>2018-08-11T08:09:57Z</time>
      </trkpt>
      <trkpt lat="44.7455" lon="6.72967">
        <ele>2195.6</ele>
        <time>2018-08-11T08:10:09Z</time>
      </trkpt>
      <trkpt lat="44.74541" lon="6.72969">
        <ele>2196.2</ele>
        <time>2018-08-11T08:10:19Z</time>
      </trkpt>
      <trkpt lat="44.74532" lon="6.72968">
        <ele>2196.9</ele>
        <time>2018-08-11T08:10:38Z</time>
      </trkpt>
      <trkpt lat="44.74523" lon="6.72969">
        <ele>2197.5</ele>
        <time>2018-08-11T08:10:53Z</time>
      </trkpt>
      <trkpt lat="44.74514" lon="6.72972">
        <ele>2198.1</ele>
        <time>2018-08-11T08:11:17Z</time>
      </trkpt>
      <trkpt lat="44.74506" lon="6.72978">
        <ele>2198.8</ele>
        <time>2018-08-11T08:11:34Z</time>
      </trkpt>
      <trkpt lat="44.74498" lon="6.72984">
        <ele>2199.8</ele>
        <time>2018-08-11T08:11:50Z</time>
      </trkpt>
      <trkpt lat="44.7449" lon="6.7299">
        <ele>2200.7</ele>
        <time>2018-08-11T08:12:05Z</time>
      </trkpt>
      <trkpt lat="44.74482" lon="6.72995">
        <ele>2201</ele>
        <time>2018-08-11T08:12:22Z</time>
      </trkpt>
      <trkpt lat="44.74471" lon="6.72997">
        <ele>2201.5</ele>
        <time>2018-08-11T08:12:41Z</time>
      </trkpt>
      <trkpt lat="44.74463" lon="6.73003">
        <ele>2201.6</ele>
        <time>2018-08-11T08:12:57Z</time>
      </trkpt>
      <trkpt lat="44.74459" lon="6.73015">
        <ele>2201.8</ele>
        <time>2018-08-11T08:13:19Z</time>
      </trkpt>
      <trkpt lat="44.7445" lon="6.7302">
        <ele>2202.5</ele>
        <time>2018-08-11T08:13:32Z</time>
      </trkpt>
      <trkpt lat="44.74442" lon="6.73026">
        <ele>2203</ele>
        <time>2018-08-11T08:13:45Z</time>
      </trkpt>
      <trkpt lat="44.74434" lon="6.73033">
        <ele>2203.5</ele>
        <time>2018-08-11T08:13:58Z</time>
      </trkpt>
      <trkpt lat="44.74426" lon="6.7304">
        <ele>2203.9</ele>
        <time>2018-08-11T08:14:13Z</time>
      </trkpt>
      <trkpt lat="44.74417" lon="6.73044">
        <ele>2204.3</ele>
        <time>2018-08-11T08:14:26Z</time>
      </trkpt>
      <trkpt lat="44.74409" lon="6.7305">
        <ele>2205.1</ele>
        <time>2018-08-11T08:14:41Z</time>
      </trkpt>
      <trkpt lat="44.74402" lon="6.73059">
        <ele>2205.8</ele>
        <time>2018-08-11T08:14:54Z</time>
      </trkpt>
      <trkpt lat="44.74393" lon="6.73065">
        <ele>2206.8</ele>
        <time>2018-08-11T08:15:05Z</time>
      </trkpt>
      <trkpt lat="44.74385" lon="6.73074">
        <ele>2207.2</ele>
        <time>2018-08-11T08:15:17Z</time>
      </trkpt>
      <trkpt lat="44.7438" lon="6.73085">
        <ele>2207.3</ele>
        <time>2018-08-11T08:15:34Z</time>
      </trkpt>
      <trkpt lat="44.74371" lon="6.73082">
        <ele>2208.1</ele>
        <time>2018-08-11T08:15:53Z</time>
      </trkpt>
      <trkpt lat="44.74361" lon="6.73084">
        <ele>2209.5</ele>
        <time>2018-08-11T08:16:00Z</time>
      </trkpt>
      <trkpt lat="44.74354" lon="6.73094">
        <ele>2210</ele>
        <time>2018-08-11T08:16:18Z</time>
      </trkpt>
      <trkpt lat="44.74346" lon="6.73102">
        <ele>2210.2</ele>
        <time>2018-08-11T08:16:29Z</time>
      </trkpt>
      <trkpt lat="44.74339" lon="6.7311">
        <ele>2211.5</ele>
        <time>2018-08-11T08:16:46Z</time>
      </trkpt>
      <trkpt lat="44.74331" lon="6.73115">
        <ele>2212.9</ele>
        <time>2018-08-11T08:16:54Z</time>
      </trkpt>
      <trkpt lat="44.74319" lon="6.73116">
        <ele>2215.3</ele>
        <time>2018-08-11T08:17:06Z</time>
      </trkpt>
      <trkpt lat="44.74311" lon="6.73124">
        <ele>2217.6</ele>
        <time>2018-08-11T08:17:13Z</time>
      </trkpt>
      <trkpt lat="44.74303" lon="6.73128">
        <ele>2219.4</ele>
        <time>2018-08-11T08:17:27Z</time>
      </trkpt>
      <trkpt lat="44.74294" lon="6.73124">
        <ele>2221.3</ele>
        <time>2018-08-11T08:17:39Z</time>
      </trkpt>
      <trkpt lat="44.74285" lon="6.73127">
        <ele>2224.1</ele>
        <time>2018-08-11T08:17:57Z</time>
      </trkpt>
      <trkpt lat="44.74275" lon="6.73129">
        <ele>2225.2</ele>
        <time>2018-08-11T08:18:11Z</time>
      </trkpt>
      <trkpt lat="44.74266" lon="6.73125">
        <ele>2225.5</ele>
        <time>2018-08-11T08:18:28Z</time>
      </trkpt>
      <trkpt lat="44.74259" lon="6.73116">
        <ele>2227.1</ele>
        <time>2018-08-11T08:18:39Z</time>
      </trkpt>
      <trkpt lat="44.74252" lon="6.73108">
        <ele>2230.5</ele>
        <time>2018-08-11T08:19:04Z</time>
      </trkpt>
      <trkpt lat="44.74243" lon="6.73111">
        <ele>2232.9</ele>
        <time>2018-08-11T08:19:17Z</time>
      </trkpt>
      <trkpt lat="44.74234" lon="6.73108">
        <ele>2235.7</ele>
        <time>2018-08-11T08:19:30Z</time>
      </trkpt>
      <trkpt lat="44.74226" lon="6.7311">
        <ele>2236.9</ele>
        <time>2018-08-11T08:19:46Z</time>
      </trkpt>
      <trkpt lat="44.74218" lon="6.73118">
        <ele>2239.4</ele>
        <time>2018-08-11T08:20:01Z</time>
      </trkpt>
      <trkpt lat="44.74209" lon="6.73122">
        <ele>2241.4</ele>
        <time>2018-08-11T08:20:16Z</time>
      </trkpt>
      <trkpt lat="44.742" lon="6.73117">
        <ele>2244.2</ele>
        <time>2018-08-11T08:20:29Z</time>
      </trkpt>
      <trkpt lat="44.7419" lon="6.73119">
        <ele>2246.8</ele>
        <time>2018-08-11T08:21:00Z</time>
      </trkpt>
      <trkpt lat="44.74186" lon="6.73107">
        <ele>2248.9</ele>
        <time>2018-08-11T08:21:16Z</time>
      </trkpt>
      <trkpt lat="44.74177" lon="6.73109">
        <ele>2251.6</ele>
        <time>2018-08-11T08:21:25Z</time>
      </trkpt>
      <trkpt lat="44.74168" lon="6.73115">
        <ele>2253.8</ele>
        <time>2018-08-11T08:21:41Z</time>
      </trkpt>
      <trkpt lat="44.74166" lon="6.73128">
        <ele>2254</ele>
        <time>2018-08-11T08:21:53Z</time>
      </trkpt>
      <trkpt lat="44.74167" lon="6.73141">
        <ele>2253.6</ele>
        <time>2018-08-11T08:22:15Z</time>
      </trkpt>
      <trkpt lat="44.74158" lon="6.73137">
        <ele>2256.6</ele>
        <time>2018-08-11T08:22:26Z</time>
      </trkpt>
      <trkpt lat="44.7415" lon="6.73142">
        <ele>2259</ele>
        <time>2018-08-11T08:23:01Z</time>
      </trkpt>
      <trkpt lat="44.74141" lon="6.73148">
        <ele>2260.6</ele>
        <time>2018-08-11T08:23:19Z</time>
      </trkpt>
      <trkpt lat="44.74135" lon="6.73157">
        <ele>2264</ele>
        <time>2018-08-11T08:23:37Z</time>
      </trkpt>
      <trkpt lat="44.74129" lon="6.73167">
        <ele>2266.7</ele>
        <time>2018-08-11T08:23:52Z</time>
      </trkpt>
      <trkpt lat="44.7412" lon="6.73168">
        <ele>2269.4</ele>
        <time>2018-08-11T08:24:19Z</time>
      </trkpt>
      <trkpt lat="44.74111" lon="6.73166">
        <ele>2271.9</ele>
        <time>2018-08-11T08:24:49Z</time>
      </trkpt>
      <trkpt lat="44.74106" lon="6.73176">
        <ele>2274.6</ele>
        <time>2018-08-11T08:25:13Z</time>
      </trkpt>
      <trkpt lat="44.74097" lon="6.73176">
        <ele>2277.4</ele>
        <time>2018-08-11T08:25:36Z</time>
      </trkpt>
      <trkpt lat="44.74088" lon="6.73177">
        <ele>2279.2</ele>
        <time>2018-08-11T08:26:19Z</time>
      </trkpt>
      <trkpt lat="44.74079" lon="6.7318">
        <ele>2282.2</ele>
        <time>2018-08-11T08:26:52Z</time>
      </trkpt>
      <trkpt lat="44.7407" lon="6.73184">
        <ele>2284.5</ele>
        <time>2018-08-11T08:28:01Z</time>
      </trkpt>
      <trkpt lat="44.74061" lon="6.73186">
        <ele>2286.7</ele>
        <time>2018-08-11T08:28:17Z</time>
      </trkpt>
      <trkpt lat="44.74052" lon="6.73189">
        <ele>2289.2</ele>
        <time>2018-08-11T08:28:35Z</time>
      </trkpt>
      <trkpt lat="44.74042" lon="6.73187">
        <ele>2291.4</ele>
        <time>2018-08-11T08:28:49Z</time>
      </trkpt>
      <trkpt lat="44.74033" lon="6.73182">
        <ele>2293.4</ele>
        <time>2018-08-11T08:29:01Z</time>
      </trkpt>
      <trkpt lat="44.74024" lon="6.7318">
        <ele>2295.7</ele>
        <time>2018-08-11T08:29:12Z</time>
      </trkpt>
      <trkpt lat="44.74015" lon="6.73175">
        <ele>2297.7</ele>
        <time>2018-08-11T08:29:22Z</time>
      </trkpt>
      <trkpt lat="44.74005" lon="6.73173">
        <ele>2299.8</ele>
        <time>2018-08-11T08:29:33Z</time>
      </trkpt>
      <trkpt lat="44.73996" lon="6.73174">
        <ele>2302</ele>
        <time>2018-08-11T08:29:43Z</time>
      </trkpt>
      <trkpt lat="44.73986" lon="6.73175">
        <ele>2304.2</ele>
        <time>2018-08-11T08:30:09Z</time>
      </trkpt>
      <trkpt lat="44.73979" lon="6.73167">
        <ele>2305.5</ele>
        <time>2018-08-11T08:30:46Z</time>
      </trkpt>
      <trkpt lat="44.7397" lon="6.73165">
        <ele>2306.7</ele>
        <time>2018-08-11T08:30:58Z</time>
      </trkpt>
      <trkpt lat="44.73961" lon="6.7316">
        <ele>2308.2</ele>
        <time>2018-08-11T08:31:11Z</time>
      </trkpt>
      <trkpt lat="44.73952" lon="6.73155">
        <ele>2309.2</ele>
        <time>2018-08-11T08:31:22Z</time>
      </trkpt>
      <trkpt lat="44.73944" lon="6.73151">
        <ele>2309.6</ele>
        <time>2018-08-11T08:31:33Z</time>
      </trkpt>
      <trkpt lat="44.73937" lon="6.73143">
        <ele>2309.2</ele>
        <time>2018-08-11T08:31:45Z</time>
      </trkpt>
      <trkpt lat="44.73929" lon="6.73136">
        <ele>2308.1</ele>
        <time>2018-08-11T08:31:55Z</time>
      </trkpt>
      <trkpt lat="44.73921" lon="6.7313">
        <ele>2310.5</ele>
        <time>2018-08-11T08:32:06Z</time>
      </trkpt>
      <trkpt lat="44.73911" lon="6.73127">
        <ele>2309.2</ele>
        <time>2018-08-11T08:32:18Z</time>
      </trkpt>
      <trkpt lat="44.73902" lon="6.73126">
        <ele>2306.4</ele>
        <time>2018-08-11T08:32:59Z</time>
      </trkpt>
      <trkpt lat="44.73892" lon="6.73128">
        <ele>2303.3</ele>
        <time>2018-08-11T08:33:10Z</time>
      </trkpt>
      <trkpt lat="44.73883" lon="6.73121">
        <ele>2300.5</ele>
        <time>2018-08-11T08:33:31Z</time>
      </trkpt>
      <trkpt lat="44.73874" lon="6.7312">
        <ele>2297.9</ele>
        <time>2018-08-11T08:33:52Z</time>
      </trkpt>
      <trkpt lat="44.73864" lon="6.73121">
        <ele>2294.7</ele>
        <time>2018-08-11T08:34:05Z</time>
      </trkpt>
      <trkpt lat="44.73854" lon="6.73122">
        <ele>2291.8</ele>
        <time>2018-08-11T08:34:40Z</time>
      </trkpt>
      <trkpt lat="44.73846" lon="6.73128">
        <ele>2288.7</ele>
        <time>2018-08-11T08:35:06Z</time>
      </trkpt>
      <trkpt lat="44.73838" lon="6.73124">
        <ele>2286.3</ele>
        <time>2018-08-11T08:35:19Z</time>
      </trkpt>
      <trkpt lat="44.73828" lon="6.73121">
        <ele>2283.1</ele>
        <time>2018-08-11T08:35:33Z</time>
      </trkpt>
      <trkpt lat="44.73819" lon="6.73118">
        <ele>2280.4</ele>
        <time>2018-08-11T08:35:44Z</time>
      </trkpt>
      <trkpt lat="44.73811" lon="6.73113">
        <ele>2277.7</ele>
        <time>2018-08-11T08:35:56Z</time>
      </trkpt>
      <trkpt lat="44.73801" lon="6.73112">
        <ele>2275</ele>
        <time>2018-08-11T08:36:06Z</time>
      </trkpt>
      <trkpt lat="44.73792" lon="6.73115">
        <ele>2272.8</ele>
        <time>2018-08-11T08:36:13Z</time>
      </trkpt>
      <trkpt lat="44.73782" lon="6.73115">
        <ele>2271</ele>
        <time>2018-08-11T08:36:24Z</time>
      </trkpt>
      <trkpt lat="44.73774" lon="6.73112">
        <ele>2269.6</ele>
        <time>2018-08-11T08:36:46Z</time>
      </trkpt>
      <trkpt lat="44.73764" lon="6.73114">
        <ele>2268.4</ele>
        <time>2018-08-11T08:37:02Z</time>
      </trkpt>
      <trkpt lat="44.73755" lon="6.73111">
        <ele>2267.5</ele>
        <time>2018-08-11T08:37:19Z</time>
      </trkpt>
      <trkpt lat="44.73745" lon="6.73114">
        <ele>2266.6</ele>
        <time>2018-08-11T08:37:33Z</time>
      </trkpt>
      <trkpt lat="44.73735" lon="6.73117">
        <ele>2266.1</ele>
        <time>2018-08-11T08:37:46Z</time>
      </trkpt>
      <trkpt lat="44.73725" lon="6.73116">
        <ele>2265.7</ele>
        <time>2018-08-11T08:38:01Z</time>
      </trkpt>
      <trkpt lat="44.73716" lon="6.73116">
        <ele>2265</ele>
        <time>2018-08-11T08:38:13Z</time>
      </trkpt>
      <trkpt lat="44.73708" lon="6.73112">
        <ele>2264.3</ele>
        <time>2018-08-11T08:38:21Z</time>
      </trkpt>
      <trkpt lat="44.73697" lon="6.73111">
        <ele>2263.4</ele>
        <time>2018-08-11T08:38:26Z</time>
      </trkpt>
      <trkpt lat="44.73688" lon="6.73113">
        <ele>2262.3</ele>
        <time>2018-08-11T08:38:34Z</time>
      </trkpt>
      <trkpt lat="44.73679" lon="6.73113">
        <ele>2261.3</ele>
        <time>2018-08-11T08:38:44Z</time>
      </trkpt>
      <trkpt lat="44.73678" lon="6.73099">
        <ele>2260.9</ele>
        <time>2018-08-11T08:39:01Z</time>
      </trkpt>
      <trkpt lat="44.73672" lon="6.73089">
        <ele>2260</ele>
        <time>2018-08-11T08:39:13Z</time>
      </trkpt>
      <trkpt lat="44.73664" lon="6.73082">
        <ele>2258.8</ele>
        <time>2018-08-11T08:39:25Z</time>
      </trkpt>
      <trkpt lat="44.73655" lon="6.73077">
        <ele>2257.3</ele>
        <time>2018-08-11T08:39:34Z</time>
      </trkpt>
      <trkpt lat="44.73646" lon="6.73077">
        <ele>2255.5</ele>
        <time>2018-08-11T08:40:06Z</time>
      </trkpt>
      <trkpt lat="44.73637" lon="6.7308">
        <ele>2253.3</ele>
        <time>2018-08-11T08:40:48Z</time>
      </trkpt>
      <trkpt lat="44.73645" lon="6.73072">
        <ele>2255.6</ele>
        <time>2018-08-11T08:41:24Z</time>
      </trkpt>
      <trkpt lat="44.73654" lon="6.73076">
        <ele>2256.8</ele>
        <time>2018-08-11T08:41:39Z</time>
      </trkpt>
      <trkpt lat="44.73646" lon="6.73084">
        <ele>2255.3</ele>
        <time>2018-08-11T08:42:30Z</time>
      </trkpt>
      <trkpt lat="44.73639" lon="6.73075">
        <ele>2254</ele>
        <time>2018-08-11T08:42:42Z</time>
      </trkpt>
      <trkpt lat="44.73631" lon="6.73072">
        <ele>2252</ele>
        <time>2018-08-11T08:42:55Z</time>
      </trkpt>
      <trkpt lat="44.73622" lon="6.73064">
        <ele>2252.2</ele>
        <time>2018-08-11T08:43:08Z</time>
      </trkpt>
      <trkpt lat="44.73614" lon="6.73058">
        <ele>2252.1</ele>
        <time>2018-08-11T08:43:18Z</time>
      </trkpt>
      <trkpt lat="44.73605" lon="6.73053">
        <ele>2251.2</ele>
        <time>2018-08-11T08:43:32Z</time>
      </trkpt>
      <trkpt lat="44.73596" lon="6.73054">
        <ele>2249.7</ele>
        <time>2018-08-11T08:43:42Z</time>
      </trkpt>
      <trkpt lat="44.73587" lon="6.73054">
        <ele>2248.1</ele>
        <time>2018-08-11T08:43:51Z</time>
      </trkpt>
      <trkpt lat="44.73577" lon="6.7305">
        <ele>2247</ele>
        <time>2018-08-11T08:44:02Z</time>
      </trkpt>
      <trkpt lat="44.73568" lon="6.7305">
        <ele>2245.2</ele>
        <time>2018-08-11T08:44:12Z</time>
      </trkpt>
      <trkpt lat="44.73558" lon="6.7305">
        <ele>2242.5</ele>
        <time>2018-08-11T08:44:22Z</time>
      </trkpt>
      <trkpt lat="44.73549" lon="6.73051">
        <ele>2240</ele>
        <time>2018-08-11T08:44:34Z</time>
      </trkpt>
      <trkpt lat="44.7354" lon="6.73051">
        <ele>2237.6</ele>
        <time>2018-08-11T08:44:46Z</time>
      </trkpt>
      <trkpt lat="44.73531" lon="6.73056">
        <ele>2234.5</ele>
        <time>2018-08-11T08:44:57Z</time>
      </trkpt>
      <trkpt lat="44.73522" lon="6.73054">
        <ele>2232</ele>
        <time>2018-08-11T08:45:10Z</time>
      </trkpt>
      <trkpt lat="44.73513" lon="6.7305">
        <ele>2229.4</ele>
        <time>2018-08-11T08:45:25Z</time>
      </trkpt>
      <trkpt lat="44.73504" lon="6.73053">
        <ele>2226.7</ele>
        <time>2018-08-11T08:45:35Z</time>
      </trkpt>
      <trkpt lat="44.73496" lon="6.73057">
        <ele>2223.2</ele>
        <time>2018-08-11T08:45:46Z</time>
      </trkpt>
      <trkpt lat="44.73492" lon="6.73069">
        <ele>2220.5</ele>
        <time>2018-08-11T08:46:19Z</time>
      </trkpt>
      <trkpt lat="44.73497" lon="6.73081">
        <ele>2219.7</ele>
        <time>2018-08-11T08:46:38Z</time>
      </trkpt>
      <trkpt lat="44.73499" lon="6.73094">
        <ele>2219.2</ele>
        <time>2018-08-11T08:47:15Z</time>
      </trkpt>
      <trkpt lat="44.7349" lon="6.73089">
        <ele>2217.7</ele>
        <time>2018-08-11T08:47:49Z</time>
      </trkpt>
      <trkpt lat="44.73481" lon="6.73085">
        <ele>2215.2</ele>
        <time>2018-08-11T08:48:02Z</time>
      </trkpt>
      <trkpt lat="44.73472" lon="6.73081">
        <ele>2212.8</ele>
        <time>2018-08-11T08:48:14Z</time>
      </trkpt>
      <trkpt lat="44.73464" lon="6.73075">
        <ele>2210.4</ele>
        <time>2018-08-11T08:48:26Z</time>
      </trkpt>
      <trkpt lat="44.73458" lon="6.73065">
        <ele>2207.7</ele>
        <time>2018-08-11T08:48:35Z</time>
      </trkpt>
      <trkpt lat="44.73448" lon="6.73063">
        <ele>2204.1</ele>
        <time>2018-08-11T08:48:47Z</time>
      </trkpt>
      <trkpt lat="44.73439" lon="6.73065">
        <ele>2200.2</ele>
        <time>2018-08-11T08:48:58Z</time>
      </trkpt>
      <trkpt lat="44.73431" lon="6.7307">
        <ele>2196.3</ele>
        <time>2018-08-11T08:49:07Z</time>
      </trkpt>
      <trkpt lat="44.73422" lon="6.73073">
        <ele>2193.2</ele>
        <time>2018-08-11T08:49:23Z</time>
      </trkpt>
      <trkpt lat="44.73413" lon="6.73076">
        <ele>2190.2</ele>
        <time>2018-08-11T08:49:31Z</time>
      </trkpt>
      <trkpt lat="44.73403" lon="6.73079">
        <ele>2186.7</ele>
        <time>2018-08-11T08:49:40Z</time>
      </trkpt>
      <trkpt lat="44.73394" lon="6.73085">
        <ele>2183.6</ele>
        <time>2018-08-11T08:49:53Z</time>
      </trkpt>
      <trkpt lat="44.73384" lon="6.73089">
        <ele>2180.8</ele>
        <time>2018-08-11T08:50:03Z</time>
      </trkpt>
      <trkpt lat="44.73376" lon="6.73092">
        <ele>2178.7</ele>
        <time>2018-08-11T08:50:21Z</time>
      </trkpt>
      <trkpt lat="44.73367" lon="6.73094">
        <ele>2177</ele>
        <time>2018-08-11T08:50:32Z</time>
      </trkpt>
      <trkpt lat="44.73358" lon="6.73099">
        <ele>2175.8</ele>
        <time>2018-08-11T08:50:43Z</time>
      </trkpt>
      <trkpt lat="44.73349" lon="6.73102">
        <ele>2174.8</ele>
        <time>2018-08-11T08:50:57Z</time>
      </trkpt>
      <trkpt lat="44.73341" lon="6.73108">
        <ele>2173.8</ele>
        <time>2018-08-11T08:51:08Z</time>
      </trkpt>
      <trkpt lat="44.73332" lon="6.73112">
        <ele>2172.6</ele>
        <time>2018-08-11T08:51:15Z</time>
      </trkpt>
      <trkpt lat="44.73323" lon="6.73112">
        <ele>2171</ele>
        <time>2018-08-11T08:51:30Z</time>
      </trkpt>
      <trkpt lat="44.73316" lon="6.7312">
        <ele>2169</ele>
        <time>2018-08-11T08:51:51Z</time>
      </trkpt>
      <trkpt lat="44.73307" lon="6.73125">
        <ele>2167.2</ele>
        <time>2018-08-11T08:52:34Z</time>
      </trkpt>
      <trkpt lat="44.733" lon="6.73132">
        <ele>2164.7</ele>
        <time>2018-08-11T08:52:50Z</time>
      </trkpt>
      <trkpt lat="44.73302" lon="6.73145">
        <ele>2162.4</ele>
        <time>2018-08-11T08:53:15Z</time>
      </trkpt>
      <trkpt lat="44.73295" lon="6.73152">
        <ele>2160.5</ele>
        <time>2018-08-11T08:53:34Z</time>
      </trkpt>
      <trkpt lat="44.73288" lon="6.73161">
        <ele>2158.3</ele>
        <time>2018-08-11T08:53:53Z</time>
      </trkpt>
      <trkpt lat="44.73281" lon="6.7317">
        <ele>2156</ele>
        <time>2018-08-11T08:54:05Z</time>
      </trkpt>
      <trkpt lat="44.73273" lon="6.73175">
        <ele>2154.2</ele>
        <time>2018-08-11T08:54:19Z</time>
      </trkpt>
      <trkpt lat="44.73264" lon="6.73182">
        <ele>2151.7</ele>
        <time>2018-08-11T08:54:34Z</time>
      </trkpt>
      <trkpt lat="44.73258" lon="6.73191">
        <ele>2149.7</ele>
        <time>2018-08-11T08:55:05Z</time>
      </trkpt>
      <trkpt lat="44.7325" lon="6.73198">
        <ele>2147.6</ele>
        <time>2018-08-11T08:55:24Z</time>
      </trkpt>
      <trkpt lat="44.73242" lon="6.73205">
        <ele>2145.4</ele>
        <time>2018-08-11T08:55:43Z</time>
      </trkpt>
      <trkpt lat="44.73233" lon="6.7321">
        <ele>2143.2</ele>
        <time>2018-08-11T08:56:04Z</time>
      </trkpt>
      <trkpt lat="44.73224" lon="6.73217">
        <ele>2140.1</ele>
        <time>2018-08-11T08:56:25Z</time>
      </trkpt>
      <trkpt lat="44.73216" lon="6.73223">
        <ele>2138</ele>
        <time>2018-08-11T08:56:35Z</time>
      </trkpt>
      <trkpt lat="44.73209" lon="6.73233">
        <ele>2135.1</ele>
        <time>2018-08-11T08:56:47Z</time>
      </trkpt>
      <trkpt lat="44.73202" lon="6.7324">
        <ele>2131.6</ele>
        <time>2018-08-11T08:57:01Z</time>
      </trkpt>
      <trkpt lat="44.73195" lon="6.73248">
        <ele>2129.2</ele>
        <time>2018-08-11T08:57:19Z</time>
      </trkpt>
      <trkpt lat="44.73186" lon="6.73252">
        <ele>2126.2</ele>
        <time>2018-08-11T08:57:35Z</time>
      </trkpt>
      <trkpt lat="44.73178" lon="6.7326">
        <ele>2123.1</ele>
        <time>2018-08-11T08:57:49Z</time>
      </trkpt>
      <trkpt lat="44.73169" lon="6.73262">
        <ele>2119.8</ele>
        <time>2018-08-11T08:58:04Z</time>
      </trkpt>
      <trkpt lat="44.7316" lon="6.73264">
        <ele>2117.1</ele>
        <time>2018-08-11T08:58:17Z</time>
      </trkpt>
      <trkpt lat="44.73151" lon="6.73267">
        <ele>2114</ele>
        <time>2018-08-11T08:58:32Z</time>
      </trkpt>
      <trkpt lat="44.73142" lon="6.73272">
        <ele>2111.1</ele>
        <time>2018-08-11T08:58:49Z</time>
      </trkpt>
      <trkpt lat="44.73133" lon="6.73276">
        <ele>2107.5</ele>
        <time>2018-08-11T08:59:03Z</time>
      </trkpt>
      <trkpt lat="44.73126" lon="6.73284">
        <ele>2105.1</ele>
        <time>2018-08-11T08:59:14Z</time>
      </trkpt>
      <trkpt lat="44.73119" lon="6.73291">
        <ele>2102.6</ele>
        <time>2018-08-11T08:59:24Z</time>
      </trkpt>
      <trkpt lat="44.73112" lon="6.733">
        <ele>2099.9</ele>
        <time>2018-08-11T08:59:31Z</time>
      </trkpt>
      <trkpt lat="44.73103" lon="6.73307">
        <ele>2096.9</ele>
        <time>2018-08-11T08:59:40Z</time>
      </trkpt>
      <trkpt lat="44.73097" lon="6.73317">
        <ele>2095</ele>
        <time>2018-08-11T08:59:50Z</time>
      </trkpt>
      <trkpt lat="44.73095" lon="6.73299">
        <ele>2090.7</ele>
        <time>2018-08-11T09:00:52Z</time>
      </trkpt>
      <trkpt lat="44.73101" lon="6.73311">
        <ele>2087.9</ele>
        <time>2018-08-11T09:01:15Z</time>
      </trkpt>
      <trkpt lat="44.73099" lon="6.73323">
        <ele>2086.6</ele>
        <time>2018-08-11T09:01:49Z</time>
      </trkpt>
      <trkpt lat="44.73093" lon="6.73333">
        <ele>2084.1</ele>
        <time>2018-08-11T09:03:06Z</time>
      </trkpt>
      <trkpt lat="44.73083" lon="6.7333">
        <ele>2082.3</ele>
        <time>2018-08-11T09:04:38Z</time>
      </trkpt>
      <trkpt lat="44.73075" lon="6.73336">
        <ele>2080.7</ele>
        <time>2018-08-11T09:07:26Z</time>
      </trkpt>
      <trkpt lat="44.73082" lon="6.73345">
        <ele>2082.4</ele>
        <time>2018-08-11T09:07:51Z</time>
      </trkpt>
      <trkpt lat="44.73091" lon="6.73346">
        <ele>2085.1</ele>
        <time>2018-08-11T09:08:05Z</time>
      </trkpt>
      <trkpt lat="44.73099" lon="6.73336">
        <ele>2086.8</ele>
        <time>2018-08-11T09:08:14Z</time>
      </trkpt>
      <trkpt lat="44.73106" lon="6.73327">
        <ele>2088.1</ele>
        <time>2018-08-11T09:11:06Z</time>
      </trkpt>
      <trkpt lat="44.73097" lon="6.73323">
        <ele>2085.6</ele>
        <time>2018-08-11T09:11:41Z</time>
      </trkpt>
      <trkpt lat="44.73109" lon="6.73312">
        <ele>2088.7</ele>
        <time>2018-08-11T09:14:41Z</time>
      </trkpt>
      <trkpt lat="44.73116" lon="6.73329">
        <ele>2092.4</ele>
        <time>2018-08-11T09:15:07Z</time>
      </trkpt>
      <trkpt lat="44.73108" lon="6.73322">
        <ele>2088.5</ele>
        <time>2018-08-11T09:15:11Z</time>
      </trkpt>
      <trkpt lat="44.73103" lon="6.7331">
        <ele>2086.7</ele>
        <time>2018-08-11T09:15:40Z</time>
      </trkpt>
      <trkpt lat="44.73114" lon="6.73317">
        <ele>2090.9</ele>
        <time>2018-08-11T09:16:04Z</time>
      </trkpt>
      <trkpt lat="44.73108" lon="6.73329">
        <ele>2088.2</ele>
        <time>2018-08-11T09:16:13Z</time>
      </trkpt>
      <trkpt lat="44.73099" lon="6.73332">
        <ele>2085.7</ele>
        <time>2018-08-11T09:16:41Z</time>
      </trkpt>
      <trkpt lat="44.73086" lon="6.73324">
        <ele>2082.3</ele>
        <time>2018-08-11T09:18:12Z</time>
      </trkpt>
      <trkpt lat="44.7308" lon="6.73313">
        <ele>2080.5</ele>
        <time>2018-08-11T09:18:16Z</time>
      </trkpt>
      <trkpt lat="44.73082" lon="6.73326">
        <ele>2080.5</ele>
        <time>2018-08-11T09:18:19Z</time>
      </trkpt>
      <trkpt lat="44.73091" lon="6.73331">
        <ele>2083</ele>
        <time>2018-08-11T09:18:39Z</time>
      </trkpt>
      <trkpt lat="44.73101" lon="6.73335">
        <ele>2086.1</ele>
        <time>2018-08-11T09:18:44Z</time>
      </trkpt>
      <trkpt lat="44.7311" lon="6.73333">
        <ele>2088.6</ele>
        <time>2018-08-11T09:20:00Z</time>
      </trkpt>
      <trkpt lat="44.73104" lon="6.73322">
        <ele>2086.5</ele>
        <time>2018-08-11T09:20:06Z</time>
      </trkpt>
      <trkpt lat="44.73095" lon="6.73325">
        <ele>2084.1</ele>
        <time>2018-08-11T09:27:01Z</time>
      </trkpt>
      <trkpt lat="44.73086" lon="6.73321">
        <ele>2082.2</ele>
        <time>2018-08-11T09:27:16Z</time>
      </trkpt>
      <trkpt lat="44.73077" lon="6.7332">
        <ele>2080.6</ele>
        <time>2018-08-11T09:27:32Z</time>
      </trkpt>
      <trkpt lat="44.73069" lon="6.73316">
        <ele>2077.8</ele>
        <time>2018-08-11T09:27:48Z</time>
      </trkpt>
      <trkpt lat="44.7306" lon="6.73314">
        <ele>2075.6</ele>
        <time>2018-08-11T09:28:00Z</time>
      </trkpt>
      <trkpt lat="44.73051" lon="6.73314">
        <ele>2074</ele>
        <time>2018-08-11T09:28:11Z</time>
      </trkpt>
      <trkpt lat="44.73042" lon="6.7332">
        <ele>2072.9</ele>
        <time>2018-08-11T09:28:24Z</time>
      </trkpt>
      <trkpt lat="44.73048" lon="6.7333">
        <ele>2072.3</ele>
        <time>2018-08-11T09:28:41Z</time>
      </trkpt>
      <trkpt lat="44.73042" lon="6.73341">
        <ele>2070.3</ele>
        <time>2018-08-11T09:28:49Z</time>
      </trkpt>
      <trkpt lat="44.73035" lon="6.73349">
        <ele>2068.5</ele>
        <time>2018-08-11T09:29:07Z</time>
      </trkpt>
      <trkpt lat="44.73027" lon="6.73356">
        <ele>2067.2</ele>
        <time>2018-08-11T09:29:24Z</time>
      </trkpt>
      <trkpt lat="44.73019" lon="6.73363">
        <ele>2065.8</ele>
        <time>2018-08-11T09:29:35Z</time>
      </trkpt>
      <trkpt lat="44.73011" lon="6.73371">
        <ele>2062.4</ele>
        <time>2018-08-11T09:29:56Z</time>
      </trkpt>
      <trkpt lat="44.73001" lon="6.73376">
        <ele>2059.4</ele>
        <time>2018-08-11T09:30:04Z</time>
      </trkpt>
      <trkpt lat="44.72992" lon="6.73377">
        <ele>2057.3</ele>
        <time>2018-08-11T09:30:11Z</time>
      </trkpt>
      <trkpt lat="44.72984" lon="6.73371">
        <ele>2054.4</ele>
        <time>2018-08-11T09:30:25Z</time>
      </trkpt>
      <trkpt lat="44.72975" lon="6.73376">
        <ele>2052</ele>
        <time>2018-08-11T09:30:36Z</time>
      </trkpt>
      <trkpt lat="44.72965" lon="6.73381">
        <ele>2049.2</ele>
        <time>2018-08-11T09:30:51Z</time>
      </trkpt>
      <trkpt lat="44.72956" lon="6.73385">
        <ele>2047.1</ele>
        <time>2018-08-11T09:31:05Z</time>
      </trkpt>
      <trkpt lat="44.72947" lon="6.73389">
        <ele>2044.6</ele>
        <time>2018-08-11T09:31:20Z</time>
      </trkpt>
      <trkpt lat="44.72939" lon="6.73392">
        <ele>2043.1</ele>
        <time>2018-08-11T09:31:37Z</time>
      </trkpt>
      <trkpt lat="44.72931" lon="6.73401">
        <ele>2040.9</ele>
        <time>2018-08-11T09:31:53Z</time>
      </trkpt>
      <trkpt lat="44.72923" lon="6.73406">
        <ele>2038.6</ele>
        <time>2018-08-11T09:32:12Z</time>
      </trkpt>
      <trkpt lat="44.72914" lon="6.7341">
        <ele>2036.2</ele>
        <time>2018-08-11T09:32:20Z</time>
      </trkpt>
      <trkpt lat="44.72906" lon="6.73418">
        <ele>2033.8</ele>
        <time>2018-08-11T09:32:30Z</time>
      </trkpt>
      <trkpt lat="44.72899" lon="6.73426">
        <ele>2031</ele>
        <time>2018-08-11T09:32:40Z</time>
      </trkpt>
      <trkpt lat="44.72892" lon="6.73435">
        <ele>2029.7</ele>
        <time>2018-08-11T09:32:55Z</time>
      </trkpt>
      <trkpt lat="44.72884" lon="6.73443">
        <ele>2027.1</ele>
        <time>2018-08-11T09:33:10Z</time>
      </trkpt>
      <trkpt lat="44.72876" lon="6.73449">
        <ele>2025</ele>
        <time>2018-08-11T09:33:20Z</time>
      </trkpt>
      <trkpt lat="44.72867" lon="6.73454">
        <ele>2022.3</ele>
        <time>2018-08-11T09:33:32Z</time>
      </trkpt>
      <trkpt lat="44.7286" lon="6.73462">
        <ele>2019.6</ele>
        <time>2018-08-11T09:33:45Z</time>
      </trkpt>
      <trkpt lat="44.72845" lon="6.73475">
        <ele>2016.4</ele>
        <time>2018-08-11T09:33:54Z</time>
      </trkpt>
      <trkpt lat="44.72835" lon="6.73479">
        <ele>2012.7</ele>
        <time>2018-08-11T09:33:57Z</time>
      </trkpt>
      <trkpt lat="44.72824" lon="6.73477">
        <ele>2010.3</ele>
        <time>2018-08-11T09:34:04Z</time>
      </trkpt>
      <trkpt lat="44.72815" lon="6.73478">
        <ele>2006.8</ele>
        <time>2018-08-11T09:34:12Z</time>
      </trkpt>
      <trkpt lat="44.72806" lon="6.73479">
        <ele>2004.8</ele>
        <time>2018-08-11T09:34:33Z</time>
      </trkpt>
      <trkpt lat="44.72796" lon="6.73489">
        <ele>2001.5</ele>
        <time>2018-08-11T09:34:50Z</time>
      </trkpt>
      <trkpt lat="44.72787" lon="6.73493">
        <ele>1998.8</ele>
        <time>2018-08-11T09:35:06Z</time>
      </trkpt>
      <trkpt lat="44.72778" lon="6.73495">
        <ele>1996.3</ele>
        <time>2018-08-11T09:35:24Z</time>
      </trkpt>
      <trkpt lat="44.72773" lon="6.73506">
        <ele>1993</ele>
        <time>2018-08-11T09:35:52Z</time>
      </trkpt>
      <trkpt lat="44.72764" lon="6.73508">
        <ele>1990.2</ele>
        <time>2018-08-11T09:36:11Z</time>
      </trkpt>
      <trkpt lat="44.72755" lon="6.7351">
        <ele>1988.6</ele>
        <time>2018-08-11T09:36:44Z</time>
      </trkpt>
      <trkpt lat="44.72747" lon="6.73517">
        <ele>1986.7</ele>
        <time>2018-08-11T09:37:11Z</time>
      </trkpt>
      <trkpt lat="44.72738" lon="6.73519">
        <ele>1984.8</ele>
        <time>2018-08-11T09:37:29Z</time>
      </trkpt>
      <trkpt lat="44.72729" lon="6.73522">
        <ele>1981.9</ele>
        <time>2018-08-11T09:37:59Z</time>
      </trkpt>
      <trkpt lat="44.72721" lon="6.73527">
        <ele>1979.4</ele>
        <time>2018-08-11T09:38:19Z</time>
      </trkpt>
      <trkpt lat="44.72718" lon="6.7354">
        <ele>1976.9</ele>
        <time>2018-08-11T09:38:35Z</time>
      </trkpt>
      <trkpt lat="44.7271" lon="6.73547">
        <ele>1975.4</ele>
        <time>2018-08-11T09:38:51Z</time>
      </trkpt>
      <trkpt lat="44.72703" lon="6.73555">
        <ele>1974</ele>
        <time>2018-08-11T09:39:12Z</time>
      </trkpt>
      <trkpt lat="44.72695" lon="6.73562">
        <ele>1970.7</ele>
        <time>2018-08-11T09:39:25Z</time>
      </trkpt>
      <trkpt lat="44.72687" lon="6.73568">
        <ele>1967.4</ele>
        <time>2018-08-11T09:40:31Z</time>
      </trkpt>
      <trkpt lat="44.72682" lon="6.7358">
        <ele>1966.2</ele>
        <time>2018-08-11T09:40:53Z</time>
      </trkpt>
      <trkpt lat="44.72674" lon="6.73588">
        <ele>1963.4</ele>
        <time>2018-08-11T09:41:04Z</time>
      </trkpt>
      <trkpt lat="44.72669" lon="6.73599">
        <ele>1960.8</ele>
        <time>2018-08-11T09:41:26Z</time>
      </trkpt>
      <trkpt lat="44.72664" lon="6.7361">
        <ele>1958</ele>
        <time>2018-08-11T09:41:37Z</time>
      </trkpt>
      <trkpt lat="44.72654" lon="6.73614">
        <ele>1956.2</ele>
        <time>2018-08-11T09:41:47Z</time>
      </trkpt>
      <trkpt lat="44.72647" lon="6.73622">
        <ele>1952.4</ele>
        <time>2018-08-11T09:41:56Z</time>
      </trkpt>
      <trkpt lat="44.72639" lon="6.73629">
        <ele>1947.8</ele>
        <time>2018-08-11T09:42:13Z</time>
      </trkpt>
      <trkpt lat="44.7263" lon="6.73626">
        <ele>1942.4</ele>
        <time>2018-08-11T09:42:33Z</time>
      </trkpt>
      <trkpt lat="44.72622" lon="6.73632">
        <ele>1939</ele>
        <time>2018-08-11T09:42:59Z</time>
      </trkpt>
      <trkpt lat="44.72614" lon="6.73639">
        <ele>1938.7</ele>
        <time>2018-08-11T09:43:20Z</time>
      </trkpt>
      <trkpt lat="44.72606" lon="6.73647">
        <ele>1935.4</ele>
        <time>2018-08-11T09:43:47Z</time>
      </trkpt>
      <trkpt lat="44.72597" lon="6.73643">
        <ele>1932.7</ele>
        <time>2018-08-11T09:44:01Z</time>
      </trkpt>
      <trkpt lat="44.72589" lon="6.7364">
        <ele>1929.2</ele>
        <time>2018-08-11T09:44:17Z</time>
      </trkpt>
      <trkpt lat="44.72579" lon="6.7364">
        <ele>1926.1</ele>
        <time>2018-08-11T09:44:37Z</time>
      </trkpt>
      <trkpt lat="44.72571" lon="6.73646">
        <ele>1924.4</ele>
        <time>2018-08-11T09:44:42Z</time>
      </trkpt>
      <trkpt lat="44.72562" lon="6.73653">
        <ele>1921.2</ele>
        <time>2018-08-11T09:44:53Z</time>
      </trkpt>
      <trkpt lat="44.72559" lon="6.73666">
        <ele>1917.3</ele>
        <time>2018-08-11T09:45:05Z</time>
      </trkpt>
      <trkpt lat="44.72558" lon="6.73679">
        <ele>1913.6</ele>
        <time>2018-08-11T09:45:16Z</time>
      </trkpt>
      <trkpt lat="44.7256" lon="6.73692">
        <ele>1911.1</ele>
        <time>2018-08-11T09:45:24Z</time>
      </trkpt>
      <trkpt lat="44.72551" lon="6.73696">
        <ele>1907.2</ele>
        <time>2018-08-11T09:45:34Z</time>
      </trkpt>
      <trkpt lat="44.72542" lon="6.73696">
        <ele>1903</ele>
        <time>2018-08-11T09:45:49Z</time>
      </trkpt>
      <trkpt lat="44.72533" lon="6.73692">
        <ele>1899.2</ele>
        <time>2018-08-11T09:46:08Z</time>
      </trkpt>
      <trkpt lat="44.72526" lon="6.73699">
        <ele>1895.5</ele>
        <time>2018-08-11T09:46:13Z</time>
      </trkpt>
      <trkpt lat="44.72517" lon="6.73707">
        <ele>1893.1</ele>
        <time>2018-08-11T09:46:25Z</time>
      </trkpt>
      <trkpt lat="44.7251" lon="6.73714">
        <ele>1889.8</ele>
        <time>2018-08-11T09:46:35Z</time>
      </trkpt>
      <trkpt lat="44.72502" lon="6.73721">
        <ele>1885.8</ele>
        <time>2018-08-11T09:46:48Z</time>
      </trkpt>
      <trkpt lat="44.72492" lon="6.73722">
        <ele>1882.9</ele>
        <time>2018-08-11T09:47:06Z</time>
      </trkpt>
      <trkpt lat="44.72483" lon="6.73727">
        <ele>1879.1</ele>
        <time>2018-08-11T09:47:26Z</time>
      </trkpt>
      <trkpt lat="44.72475" lon="6.73721">
        <ele>1874.9</ele>
        <time>2018-08-11T09:47:36Z</time>
      </trkpt>
      <trkpt lat="44.72468" lon="6.73714">
        <ele>1874</ele>
        <time>2018-08-11T09:47:50Z</time>
      </trkpt>
      <trkpt lat="44.72466" lon="6.73701">
        <ele>1875</ele>
        <time>2018-08-11T09:48:19Z</time>
      </trkpt>
      <trkpt lat="44.72469" lon="6.73687">
        <ele>1875.6</ele>
        <time>2018-08-11T09:48:29Z</time>
      </trkpt>
      <trkpt lat="44.72477" lon="6.73679">
        <ele>1876</ele>
        <time>2018-08-11T09:48:36Z</time>
      </trkpt>
      <trkpt lat="44.72474" lon="6.73666">
        <ele>1876.3</ele>
        <time>2018-08-11T09:48:54Z</time>
      </trkpt>
      <trkpt lat="44.72474" lon="6.73654">
        <ele>1876.6</ele>
        <time>2018-08-11T09:49:15Z</time>
      </trkpt>
      <trkpt lat="44.72469" lon="6.73643">
        <ele>1876.9</ele>
        <time>2018-08-11T09:49:31Z</time>
      </trkpt>
      <trkpt lat="44.7246" lon="6.73638">
        <ele>1877.1</ele>
        <time>2018-08-11T09:49:39Z</time>
      </trkpt>
      <trkpt lat="44.72452" lon="6.73633">
        <ele>1877.4</ele>
        <time>2018-08-11T09:49:51Z</time>
      </trkpt>
      <trkpt lat="44.72448" lon="6.7362">
        <ele>1877.9</ele>
        <time>2018-08-11T09:50:05Z</time>
      </trkpt>
      <trkpt lat="44.72444" lon="6.73604">
        <ele>1878.3</ele>
        <time>2018-08-11T09:50:15Z</time>
      </trkpt>
      <trkpt lat="44.72438" lon="6.73594">
        <ele>1878.8</ele>
        <time>2018-08-11T09:50:23Z</time>
      </trkpt>
      <trkpt lat="44.72429" lon="6.73582">
        <ele>1879.1</ele>
        <time>2018-08-11T09:50:39Z</time>
      </trkpt>
      <trkpt lat="44.72423" lon="6.73572">
        <ele>1879.2</ele>
        <time>2018-08-11T09:50:42Z</time>
      </trkpt>
      <trkpt lat="44.72416" lon="6.73561">
        <ele>1879.4</ele>
        <time>2018-08-11T09:50:47Z</time>
      </trkpt>
      <trkpt lat="44.7241" lon="6.7355">
        <ele>1879.8</ele>
        <time>2018-08-11T09:50:57Z</time>
      </trkpt>
      <trkpt lat="44.72407" lon="6.73538">
        <ele>1880.2</ele>
        <time>2018-08-11T09:51:12Z</time>
      </trkpt>
      <trkpt lat="44.724" lon="6.73529">
        <ele>1880.6</ele>
        <time>2018-08-11T09:51:27Z</time>
      </trkpt>
      <trkpt lat="44.72394" lon="6.73519">
        <ele>1880.9</ele>
        <time>2018-08-11T09:51:35Z</time>
      </trkpt>
      <trkpt lat="44.72385" lon="6.73516">
        <ele>1881.3</ele>
        <time>2018-08-11T09:51:47Z</time>
      </trkpt>
      <trkpt lat="44.72376" lon="6.73511">
        <ele>1881.8</ele>
        <time>2018-08-11T09:51:58Z</time>
      </trkpt>
      <trkpt lat="44.72368" lon="6.73505">
        <ele>1882.1</ele>
        <time>2018-08-11T09:52:11Z</time>
      </trkpt>
      <trkpt lat="44.7236" lon="6.73496">
        <ele>1882.5</ele>
        <time>2018-08-11T09:52:13Z</time>
      </trkpt>
      <trkpt lat="44.72351" lon="6.73495">
        <ele>1882.8</ele>
        <time>2018-08-11T09:52:27Z</time>
      </trkpt>
      <trkpt lat="44.72344" lon="6.73486">
        <ele>1883.2</ele>
        <time>2018-08-11T09:52:37Z</time>
      </trkpt>
      <trkpt lat="44.72336" lon="6.73476">
        <ele>1883.7</ele>
        <time>2018-08-11T09:52:44Z</time>
      </trkpt>
      <trkpt lat="44.72326" lon="6.73467">
        <ele>1884.5</ele>
        <time>2018-08-11T09:53:29Z</time>
      </trkpt>
      <trkpt lat="44.72326" lon="6.73454">
        <ele>1885.7</ele>
        <time>2018-08-11T09:53:34Z</time>
      </trkpt>
      <trkpt lat="44.72318" lon="6.73447">
        <ele>1887.4</ele>
        <time>2018-08-11T09:53:55Z</time>
      </trkpt>
      <trkpt lat="44.72309" lon="6.73448">
        <ele>1889.2</ele>
        <time>2018-08-11T09:54:08Z</time>
      </trkpt>
      <trkpt lat="44.723" lon="6.73447">
        <ele>1891.1</ele>
        <time>2018-08-11T09:54:19Z</time>
      </trkpt>
      <trkpt lat="44.7229" lon="6.7345">
        <ele>1893</ele>
        <time>2018-08-11T09:54:31Z</time>
      </trkpt>
      <trkpt lat="44.72281" lon="6.7345">
        <ele>1894.7</ele>
        <time>2018-08-11T09:54:47Z</time>
      </trkpt>
      <trkpt lat="44.72272" lon="6.73446">
        <ele>1896.5</ele>
        <time>2018-08-11T09:55:09Z</time>
      </trkpt>
      <trkpt lat="44.72264" lon="6.73441">
        <ele>1898.3</ele>
        <time>2018-08-11T09:55:18Z</time>
      </trkpt>
      <trkpt lat="44.72256" lon="6.73436">
        <ele>1900</ele>
        <time>2018-08-11T09:55:27Z</time>
      </trkpt>
      <trkpt lat="44.72247" lon="6.73435">
        <ele>1901.7</ele>
        <time>2018-08-11T09:55:38Z</time>
      </trkpt>
      <trkpt lat="44.72238" lon="6.73434">
        <ele>1903.3</ele>
        <time>2018-08-11T09:55:50Z</time>
      </trkpt>
      <trkpt lat="44.72229" lon="6.73428">
        <ele>1905</ele>
        <time>2018-08-11T09:56:09Z</time>
      </trkpt>
      <trkpt lat="44.7222" lon="6.73429">
        <ele>1906.6</ele>
        <time>2018-08-11T09:56:19Z</time>
      </trkpt>
      <trkpt lat="44.7221" lon="6.73427">
        <ele>1908.6</ele>
        <time>2018-08-11T09:56:44Z</time>
      </trkpt>
      <trkpt lat="44.72203" lon="6.73436">
        <ele>1910.5</ele>
        <time>2018-08-11T09:57:03Z</time>
      </trkpt>
      <trkpt lat="44.72193" lon="6.73436">
        <ele>1912.4</ele>
        <time>2018-08-11T09:57:13Z</time>
      </trkpt>
      <trkpt lat="44.72184" lon="6.7343">
        <ele>1913.5</ele>
        <time>2018-08-11T09:57:23Z</time>
      </trkpt>
      <trkpt lat="44.72175" lon="6.73427">
        <ele>1914.1</ele>
        <time>2018-08-11T09:57:34Z</time>
      </trkpt>
      <trkpt lat="44.72166" lon="6.73424">
        <ele>1914.3</ele>
        <time>2018-08-11T09:57:44Z</time>
      </trkpt>
      <trkpt lat="44.72157" lon="6.73421">
        <ele>1914.6</ele>
        <time>2018-08-11T09:57:54Z</time>
      </trkpt>
      <trkpt lat="44.72148" lon="6.73418">
        <ele>1914.9</ele>
        <time>2018-08-11T09:58:05Z</time>
      </trkpt>
      <trkpt lat="44.72139" lon="6.73414">
        <ele>1915.2</ele>
        <time>2018-08-11T09:58:15Z</time>
      </trkpt>
      <trkpt lat="44.72131" lon="6.73407">
        <ele>1915.6</ele>
        <time>2018-08-11T09:58:27Z</time>
      </trkpt>
      <trkpt lat="44.72122" lon="6.73405">
        <ele>1916.1</ele>
        <time>2018-08-11T09:58:42Z</time>
      </trkpt>
      <trkpt lat="44.72112" lon="6.73404">
        <ele>1916.8</ele>
        <time>2018-08-11T09:59:00Z</time>
      </trkpt>
      <trkpt lat="44.72106" lon="6.73394">
        <ele>1917.3</ele>
        <time>2018-08-11T09:59:17Z</time>
      </trkpt>
      <trkpt lat="44.72103" lon="6.73382">
        <ele>1917.8</ele>
        <time>2018-08-11T09:59:29Z</time>
      </trkpt>
      <trkpt lat="44.72102" lon="6.73369">
        <ele>1918.3</ele>
        <time>2018-08-11T09:59:40Z</time>
      </trkpt>
      <trkpt lat="44.72101" lon="6.73356">
        <ele>1918.7</ele>
        <time>2018-08-11T09:59:51Z</time>
      </trkpt>
      <trkpt lat="44.72098" lon="6.73344">
        <ele>1919.2</ele>
        <time>2018-08-11T10:00:08Z</time>
      </trkpt>
      <trkpt lat="44.72093" lon="6.73334">
        <ele>1919.7</ele>
        <time>2018-08-11T10:00:21Z</time>
      </trkpt>
      <trkpt lat="44.72087" lon="6.73323">
        <ele>1920.3</ele>
        <time>2018-08-11T10:00:45Z</time>
      </trkpt>
      <trkpt lat="44.72083" lon="6.73312">
        <ele>1921</ele>
        <time>2018-08-11T10:01:04Z</time>
      </trkpt>
      <trkpt lat="44.72078" lon="6.733">
        <ele>1921.8</ele>
        <time>2018-08-11T10:01:22Z</time>
      </trkpt>
      <trkpt lat="44.72069" lon="6.73296">
        <ele>1922.4</ele>
        <time>2018-08-11T10:01:34Z</time>
      </trkpt>
      <trkpt lat="44.72062" lon="6.73287">
        <ele>1922.6</ele>
        <time>2018-08-11T10:01:48Z</time>
      </trkpt>
      <trkpt lat="44.72056" lon="6.73276">
        <ele>1922.7</ele>
        <time>2018-08-11T10:02:07Z</time>
      </trkpt>
      <trkpt lat="44.72052" lon="6.73264">
        <ele>1922.7</ele>
        <time>2018-08-11T10:02:19Z</time>
      </trkpt>
      <trkpt lat="44.7205" lon="6.73252">
        <ele>1922.8</ele>
        <time>2018-08-11T10:02:28Z</time>
      </trkpt>
      <trkpt lat="44.72048" lon="6.73239">
        <ele>1922.8</ele>
        <time>2018-08-11T10:02:40Z</time>
      </trkpt>
      <trkpt lat="44.72046" lon="6.73225">
        <ele>1922.8</ele>
        <time>2018-08-11T10:02:52Z</time>
      </trkpt>
      <trkpt lat="44.72044" lon="6.73212">
        <ele>1922.8</ele>
        <time>2018-08-11T10:03:00Z</time>
      </trkpt>
      <trkpt lat="44.72038" lon="6.73201">
        <ele>1922.7</ele>
        <time>2018-08-11T10:03:10Z</time>
      </trkpt>
      <trkpt lat="44.72037" lon="6.73188">
        <ele>1922.6</ele>
        <time>2018-08-11T10:03:24Z</time>
      </trkpt>
      <trkpt lat="44.7204" lon="6.73176">
        <ele>1922.4</ele>
        <time>2018-08-11T10:03:33Z</time>
      </trkpt>
      <trkpt lat="44.72044" lon="6.73164">
        <ele>1922.2</ele>
        <time>2018-08-11T10:03:43Z</time>
      </trkpt>
      <trkpt lat="44.72039" lon="6.73153">
        <ele>1921.9</ele>
        <time>2018-08-11T10:03:52Z</time>
      </trkpt>
      <trkpt lat="44.72036" lon="6.73139">
        <ele>1921.5</ele>
        <time>2018-08-11T10:04:00Z</time>
      </trkpt>
      <trkpt lat="44.72032" lon="6.73126">
        <ele>1921.3</ele>
        <time>2018-08-11T10:04:07Z</time>
      </trkpt>
      <trkpt lat="44.72027" lon="6.73115">
        <ele>1921.3</ele>
        <time>2018-08-11T10:04:16Z</time>
      </trkpt>
      <trkpt lat="44.72024" lon="6.73104">
        <ele>1921.4</ele>
        <time>2018-08-11T10:04:23Z</time>
      </trkpt>
      <trkpt lat="44.7202" lon="6.73091">
        <ele>1921.4</ele>
        <time>2018-08-11T10:04:32Z</time>
      </trkpt>
      <trkpt lat="44.72017" lon="6.73077">
        <ele>1921.5</ele>
        <time>2018-08-11T10:04:41Z</time>
      </trkpt>
      <trkpt lat="44.72018" lon="6.73064">
        <ele>1921.5</ele>
        <time>2018-08-11T10:04:55Z</time>
      </trkpt>
      <trkpt lat="44.72021" lon="6.73051">
        <ele>1921.4</ele>
        <time>2018-08-11T10:05:06Z</time>
      </trkpt>
      <trkpt lat="44.72023" lon="6.73038">
        <ele>1921.3</ele>
        <time>2018-08-11T10:05:16Z</time>
      </trkpt>
      <trkpt lat="44.72026" lon="6.73025">
        <ele>1921</ele>
        <time>2018-08-11T10:05:27Z</time>
      </trkpt>
      <trkpt lat="44.72021" lon="6.73014">
        <ele>1920.6</ele>
        <time>2018-08-11T10:05:45Z</time>
      </trkpt>
      <trkpt lat="44.72015" lon="6.73003">
        <ele>1919.7</ele>
        <time>2018-08-11T10:05:55Z</time>
      </trkpt>
      <trkpt lat="44.72012" lon="6.7299">
        <ele>1916.2</ele>
        <time>2018-08-11T10:06:10Z</time>
      </trkpt>
      <trkpt lat="44.72012" lon="6.72976">
        <ele>1914.6</ele>
        <time>2018-08-11T10:06:19Z</time>
      </trkpt>
      <trkpt lat="44.72009" lon="6.72963">
        <ele>1914.5</ele>
        <time>2018-08-11T10:06:28Z</time>
      </trkpt>
      <trkpt lat="44.72003" lon="6.72952">
        <ele>1914.8</ele>
        <time>2018-08-11T10:06:37Z</time>
      </trkpt>
      <trkpt lat="44.72" lon="6.7294">
        <ele>1915.3</ele>
        <time>2018-08-11T10:06:45Z</time>
      </trkpt>
      <trkpt lat="44.72" lon="6.72927">
        <ele>1916</ele>
        <time>2018-08-11T10:06:58Z</time>
      </trkpt>
      <trkpt lat="44.71994" lon="6.72915">
        <ele>1916.7</ele>
        <time>2018-08-11T10:07:35Z</time>
      </trkpt>
      <trkpt lat="44.71991" lon="6.72902">
        <ele>1917.3</ele>
        <time>2018-08-11T10:07:53Z</time>
      </trkpt>
      <trkpt lat="44.71988" lon="6.72889">
        <ele>1917.7</ele>
        <time>2018-08-11T10:08:02Z</time>
      </trkpt>
      <trkpt lat="44.71987" lon="6.72876">
        <ele>1918</ele>
        <time>2018-08-11T10:08:15Z</time>
      </trkpt>
      <trkpt lat="44.7199" lon="6.72864">
        <ele>1918.5</ele>
        <time>2018-08-11T10:08:24Z</time>
      </trkpt>
      <trkpt lat="44.7199" lon="6.72851">
        <ele>1919</ele>
        <time>2018-08-11T10:08:45Z</time>
      </trkpt>
      <trkpt lat="44.71995" lon="6.7284">
        <ele>1921</ele>
        <time>2018-08-11T10:09:44Z</time>
      </trkpt>
      <trkpt lat="44.71997" lon="6.72826">
        <ele>1925.2</ele>
        <time>2018-08-11T10:10:00Z</time>
      </trkpt>
      <trkpt lat="44.71998" lon="6.72814">
        <ele>1930.4</ele>
        <time>2018-08-11T10:10:14Z</time>
      </trkpt>
      <trkpt lat="44.72004" lon="6.72803">
        <ele>1932.8</ele>
        <time>2018-08-11T10:10:58Z</time>
      </trkpt>
      <trkpt lat="44.72006" lon="6.72791">
        <ele>1934.9</ele>
        <time>2018-08-11T10:11:22Z</time>
      </trkpt>
      <trkpt lat="44.72008" lon="6.72779">
        <ele>1938.2</ele>
        <time>2018-08-11T10:11:34Z</time>
      </trkpt>
      <trkpt lat="44.72012" lon="6.72767">
        <ele>1941.2</ele>
        <time>2018-08-11T10:11:51Z</time>
      </trkpt>
      <trkpt lat="44.72016" lon="6.72754">
        <ele>1944.9</ele>
        <time>2018-08-11T10:12:09Z</time>
      </trkpt>
      <trkpt lat="44.7202" lon="6.72743">
        <ele>1947.8</ele>
        <time>2018-08-11T10:12:23Z</time>
      </trkpt>
      <trkpt lat="44.72017" lon="6.72731">
        <ele>1950.1</ele>
        <time>2018-08-11T10:12:41Z</time>
      </trkpt>
      <trkpt lat="44.72015" lon="6.72717">
        <ele>1953.3</ele>
        <time>2018-08-11T10:13:13Z</time>
      </trkpt>
      <trkpt lat="44.72015" lon="6.72704">
        <ele>1956.1</ele>
        <time>2018-08-11T10:13:36Z</time>
      </trkpt>
      <trkpt lat="44.72007" lon="6.72698">
        <ele>1958.5</ele>
        <time>2018-08-11T10:13:53Z</time>
      </trkpt>
      <trkpt lat="44.72002" lon="6.72688">
        <ele>1960.9</ele>
        <time>2018-08-11T10:14:07Z</time>
      </trkpt>
      <trkpt lat="44.71992" lon="6.72683">
        <ele>1965.4</ele>
        <time>2018-08-11T10:14:20Z</time>
      </trkpt>
      <trkpt lat="44.71983" lon="6.72683">
        <ele>1968.2</ele>
        <time>2018-08-11T10:14:44Z</time>
      </trkpt>
      <trkpt lat="44.71974" lon="6.72682">
        <ele>1971.1</ele>
        <time>2018-08-11T10:15:13Z</time>
      </trkpt>
      <trkpt lat="44.71964" lon="6.72679">
        <ele>1974.2</ele>
        <time>2018-08-11T10:15:31Z</time>
      </trkpt>
      <trkpt lat="44.71956" lon="6.72682">
        <ele>1976</ele>
        <time>2018-08-11T10:15:46Z</time>
      </trkpt>
      <trkpt lat="44.71946" lon="6.72682">
        <ele>1980.5</ele>
        <time>2018-08-11T10:16:09Z</time>
      </trkpt>
      <trkpt lat="44.71937" lon="6.72682">
        <ele>1984.4</ele>
        <time>2018-08-11T10:16:32Z</time>
      </trkpt>
      <trkpt lat="44.71929" lon="6.72687">
        <ele>1986.8</ele>
        <time>2018-08-11T10:17:05Z</time>
      </trkpt>
      <trkpt lat="44.71929" lon="6.72672">
        <ele>1988.6</ele>
        <time>2018-08-11T10:18:12Z</time>
      </trkpt>
      <trkpt lat="44.71928" lon="6.72656">
        <ele>2004.4</ele>
        <time>2018-08-11T10:18:27Z</time>
      </trkpt>
      <trkpt lat="44.71919" lon="6.72657">
        <ele>2011.7</ele>
        <time>2018-08-11T10:18:32Z</time>
      </trkpt>
      <trkpt lat="44.71908" lon="6.72663">
        <ele>2005.1</ele>
        <time>2018-08-11T10:18:40Z</time>
      </trkpt>
      <trkpt lat="44.719" lon="6.72665">
        <ele>2003</ele>
        <time>2018-08-11T10:19:20Z</time>
      </trkpt>
      <trkpt lat="44.71891" lon="6.7267">
        <ele>1999.5</ele>
        <time>2018-08-11T10:19:38Z</time>
      </trkpt>
      <trkpt lat="44.71897" lon="6.72661">
        <ele>2002.6</ele>
        <time>2018-08-11T10:20:08Z</time>
      </trkpt>
      <trkpt lat="44.71906" lon="6.72656">
        <ele>2005.5</ele>
        <time>2018-08-11T10:20:35Z</time>
      </trkpt>
      <trkpt lat="44.71912" lon="6.72646">
        <ele>2013.1</ele>
        <time>2018-08-11T10:20:57Z</time>
      </trkpt>
      <trkpt lat="44.71919" lon="6.72635">
        <ele>2017.5</ele>
        <time>2018-08-11T10:21:22Z</time>
      </trkpt>
      <trkpt lat="44.71928" lon="6.72629">
        <ele>2021.1</ele>
        <time>2018-08-11T10:21:39Z</time>
      </trkpt>
      <trkpt lat="44.71937" lon="6.72627">
        <ele>2024.2</ele>
        <time>2018-08-11T10:21:58Z</time>
      </trkpt>
      <trkpt lat="44.71945" lon="6.72622">
        <ele>2027.7</ele>
        <time>2018-08-11T10:22:12Z</time>
      </trkpt>
      <trkpt lat="44.71954" lon="6.72617">
        <ele>2033.1</ele>
        <time>2018-08-11T10:22:32Z</time>
      </trkpt>
      <trkpt lat="44.71961" lon="6.72608">
        <ele>2036.5</ele>
        <time>2018-08-11T10:22:59Z</time>
      </trkpt>
      <trkpt lat="44.7197" lon="6.72602">
        <ele>2039.1</ele>
        <time>2018-08-11T10:23:11Z</time>
      </trkpt>
      <trkpt lat="44.71978" lon="6.72597">
        <ele>2042</ele>
        <time>2018-08-11T10:23:31Z</time>
      </trkpt>
      <trkpt lat="44.71988" lon="6.72598">
        <ele>2044.3</ele>
        <time>2018-08-11T10:23:49Z</time>
      </trkpt>
      <trkpt lat="44.71997" lon="6.72595">
        <ele>2046.4</ele>
        <time>2018-08-11T10:24:04Z</time>
      </trkpt>
      <trkpt lat="44.72006" lon="6.72591">
        <ele>2048.5</ele>
        <time>2018-08-11T10:24:20Z</time>
      </trkpt>
      <trkpt lat="44.72011" lon="6.72579">
        <ele>2051.5</ele>
        <time>2018-08-11T10:24:39Z</time>
      </trkpt>
      <trkpt lat="44.72014" lon="6.72565">
        <ele>2056.2</ele>
        <time>2018-08-11T10:24:53Z</time>
      </trkpt>
      <trkpt lat="44.72009" lon="6.72554">
        <ele>2060.7</ele>
        <time>2018-08-11T10:26:04Z</time>
      </trkpt>
      <trkpt lat="44.72001" lon="6.72547">
        <ele>2063.4</ele>
        <time>2018-08-11T10:26:23Z</time>
      </trkpt>
      <trkpt lat="44.71992" lon="6.72546">
        <ele>2065.6</ele>
        <time>2018-08-11T10:26:42Z</time>
      </trkpt>
      <trkpt lat="44.71983" lon="6.72546">
        <ele>2067.7</ele>
        <time>2018-08-11T10:27:00Z</time>
      </trkpt>
      <trkpt lat="44.71974" lon="6.72541">
        <ele>2070.4</ele>
        <time>2018-08-11T10:27:13Z</time>
      </trkpt>
      <trkpt lat="44.71971" lon="6.72529">
        <ele>2073.8</ele>
        <time>2018-08-11T10:27:30Z</time>
      </trkpt>
      <trkpt lat="44.71969" lon="6.72517">
        <ele>2077.8</ele>
        <time>2018-08-11T10:28:05Z</time>
      </trkpt>
      <trkpt lat="44.71978" lon="6.72515">
        <ele>2081.7</ele>
        <time>2018-08-11T10:28:24Z</time>
      </trkpt>
      <trkpt lat="44.71977" lon="6.72501">
        <ele>2085.2</ele>
        <time>2018-08-11T10:29:13Z</time>
      </trkpt>
      <trkpt lat="44.7197" lon="6.72493">
        <ele>2089.5</ele>
        <time>2018-08-11T10:29:26Z</time>
      </trkpt>
      <trkpt lat="44.71962" lon="6.72488">
        <ele>2091.9</ele>
        <time>2018-08-11T10:29:43Z</time>
      </trkpt>
      <trkpt lat="44.71962" lon="6.72475">
        <ele>2094</ele>
        <time>2018-08-11T10:30:12Z</time>
      </trkpt>
      <trkpt lat="44.71971" lon="6.72474">
        <ele>2097.3</ele>
        <time>2018-08-11T10:30:24Z</time>
      </trkpt>
      <trkpt lat="44.7198" lon="6.72469">
        <ele>2100.7</ele>
        <time>2018-08-11T10:30:39Z</time>
      </trkpt>
      <trkpt lat="44.71989" lon="6.72465">
        <ele>2100.3</ele>
        <time>2018-08-11T10:30:57Z</time>
      </trkpt>
      <trkpt lat="44.71997" lon="6.72461">
        <ele>2100.1</ele>
        <time>2018-08-11T10:32:11Z</time>
      </trkpt>
      <trkpt lat="44.72006" lon="6.72456">
        <ele>2102.5</ele>
        <time>2018-08-11T10:32:51Z</time>
      </trkpt>
      <trkpt lat="44.72014" lon="6.72451">
        <ele>2104.6</ele>
        <time>2018-08-11T10:33:13Z</time>
      </trkpt>
      <trkpt lat="44.72018" lon="6.72437">
        <ele>2107.5</ele>
        <time>2018-08-11T10:34:00Z</time>
      </trkpt>
      <trkpt lat="44.72018" lon="6.72424">
        <ele>2109.2</ele>
        <time>2018-08-11T10:34:17Z</time>
      </trkpt>
      <trkpt lat="44.72017" lon="6.72412">
        <ele>2112.2</ele>
        <time>2018-08-11T10:34:36Z</time>
      </trkpt>
      <trkpt lat="44.72025" lon="6.72405">
        <ele>2115.8</ele>
        <time>2018-08-11T10:35:15Z</time>
      </trkpt>
      <trkpt lat="44.72022" lon="6.72392">
        <ele>2118.3</ele>
        <time>2018-08-11T10:35:45Z</time>
      </trkpt>
      <trkpt lat="44.7202" lon="6.72379">
        <ele>2120.2</ele>
        <time>2018-08-11T10:35:58Z</time>
      </trkpt>
      <trkpt lat="44.72029" lon="6.72379">
        <ele>2124.2</ele>
        <time>2018-08-11T10:36:21Z</time>
      </trkpt>
      <trkpt lat="44.72038" lon="6.72374">
        <ele>2126.8</ele>
        <time>2018-08-11T10:36:30Z</time>
      </trkpt>
      <trkpt lat="44.72047" lon="6.72372">
        <ele>2129</ele>
        <time>2018-08-11T10:36:44Z</time>
      </trkpt>
      <trkpt lat="44.72056" lon="6.72372">
        <ele>2129.7</ele>
        <time>2018-08-11T10:37:00Z</time>
      </trkpt>
      <trkpt lat="44.72054" lon="6.72359">
        <ele>2131.8</ele>
        <time>2018-08-11T10:37:29Z</time>
      </trkpt>
      <trkpt lat="44.72049" lon="6.72348">
        <ele>2135.4</ele>
        <time>2018-08-11T10:37:43Z</time>
      </trkpt>
      <trkpt lat="44.72058" lon="6.72349">
        <ele>2139.8</ele>
        <time>2018-08-11T10:38:04Z</time>
      </trkpt>
      <trkpt lat="44.72053" lon="6.72337">
        <ele>2142.3</ele>
        <time>2018-08-11T10:38:23Z</time>
      </trkpt>
      <trkpt lat="44.72051" lon="6.72325">
        <ele>2144.1</ele>
        <time>2018-08-11T10:38:39Z</time>
      </trkpt>
      <trkpt lat="44.72045" lon="6.72314">
        <ele>2147</ele>
        <time>2018-08-11T10:39:03Z</time>
      </trkpt>
      <trkpt lat="44.72041" lon="6.72303">
        <ele>2148.5</ele>
        <time>2018-08-11T10:39:17Z</time>
      </trkpt>
      <trkpt lat="44.72037" lon="6.72292">
        <ele>2149.9</ele>
        <time>2018-08-11T10:39:33Z</time>
      </trkpt>
      <trkpt lat="44.72033" lon="6.72279">
        <ele>2151</ele>
        <time>2018-08-11T10:39:51Z</time>
      </trkpt>
      <trkpt lat="44.72028" lon="6.72269">
        <ele>2152.3</ele>
        <time>2018-08-11T10:40:09Z</time>
      </trkpt>
      <trkpt lat="44.72022" lon="6.72258">
        <ele>2154.1</ele>
        <time>2018-08-11T10:40:30Z</time>
      </trkpt>
      <trkpt lat="44.72014" lon="6.72262">
        <ele>2155.9</ele>
        <time>2018-08-11T10:40:52Z</time>
      </trkpt>
      <trkpt lat="44.72005" lon="6.72266">
        <ele>2155.1</ele>
        <time>2018-08-11T10:42:53Z</time>
      </trkpt>
      <trkpt lat="44.71996" lon="6.72263">
        <ele>2153.8</ele>
        <time>2018-08-11T10:43:09Z</time>
      </trkpt>
      <trkpt lat="44.71987" lon="6.72262">
        <ele>2149.9</ele>
        <time>2018-08-11T10:43:28Z</time>
      </trkpt>
      <trkpt lat="44.71978" lon="6.7226">
        <ele>2147.3</ele>
        <time>2018-08-11T10:43:44Z</time>
      </trkpt>
      <trkpt lat="44.71968" lon="6.72258">
        <ele>2144.6</ele>
        <time>2018-08-11T10:44:05Z</time>
      </trkpt>
      <trkpt lat="44.71959" lon="6.72255">
        <ele>2141.2</ele>
        <time>2018-08-11T10:44:22Z</time>
      </trkpt>
      <trkpt lat="44.71966" lon="6.72245">
        <ele>2139</ele>
        <time>2018-08-11T10:45:20Z</time>
      </trkpt>
      <trkpt lat="44.71972" lon="6.72236">
        <ele>2136.8</ele>
        <time>2018-08-11T10:45:35Z</time>
      </trkpt>
      <trkpt lat="44.71981" lon="6.72231">
        <ele>2135.8</ele>
        <time>2018-08-11T10:45:50Z</time>
      </trkpt>
      <trkpt lat="44.71986" lon="6.72222">
        <ele>2138.4</ele>
        <time>2018-08-11T10:46:09Z</time>
      </trkpt>
      <trkpt lat="44.71994" lon="6.72213">
        <ele>2141.3</ele>
        <time>2018-08-11T10:46:33Z</time>
      </trkpt>
      <trkpt lat="44.72002" lon="6.72207">
        <ele>2144.6</ele>
        <time>2018-08-11T10:46:48Z</time>
      </trkpt>
      <trkpt lat="44.7201" lon="6.72202">
        <ele>2148.5</ele>
        <time>2018-08-11T10:47:07Z</time>
      </trkpt>
      <trkpt lat="44.72017" lon="6.72193">
        <ele>2151.8</ele>
        <time>2018-08-11T10:47:30Z</time>
      </trkpt>
      <trkpt lat="44.72025" lon="6.72186">
        <ele>2154.4</ele>
        <time>2018-08-11T10:47:48Z</time>
      </trkpt>
      <trkpt lat="44.72029" lon="6.72174">
        <ele>2157.3</ele>
        <time>2018-08-11T10:48:01Z</time>
      </trkpt>
      <trkpt lat="44.72035" lon="6.72164">
        <ele>2159.2</ele>
        <time>2018-08-11T10:48:18Z</time>
      </trkpt>
      <trkpt lat="44.72038" lon="6.72151">
        <ele>2162</ele>
        <time>2018-08-11T10:48:34Z</time>
      </trkpt>
      <trkpt lat="44.72043" lon="6.72141">
        <ele>2164.3</ele>
        <time>2018-08-11T10:48:45Z</time>
      </trkpt>
      <trkpt lat="44.72049" lon="6.72132">
        <ele>2166</ele>
        <time>2018-08-11T10:48:56Z</time>
      </trkpt>
      <trkpt lat="44.72057" lon="6.72124">
        <ele>2168.6</ele>
        <time>2018-08-11T10:49:08Z</time>
      </trkpt>
      <trkpt lat="44.72064" lon="6.72114">
        <ele>2170</ele>
        <time>2018-08-11T10:49:22Z</time>
      </trkpt>
      <trkpt lat="44.72071" lon="6.72106">
        <ele>2170.6</ele>
        <time>2018-08-11T10:49:36Z</time>
      </trkpt>
      <trkpt lat="44.7208" lon="6.72102">
        <ele>2170.3</ele>
        <time>2018-08-11T10:49:50Z</time>
      </trkpt>
      <trkpt lat="44.72088" lon="6.72095">
        <ele>2171.9</ele>
        <time>2018-08-11T10:50:01Z</time>
      </trkpt>
      <trkpt lat="44.72096" lon="6.72087">
        <ele>2173.2</ele>
        <time>2018-08-11T10:50:12Z</time>
      </trkpt>
      <trkpt lat="44.72101" lon="6.72076">
        <ele>2173.8</ele>
        <time>2018-08-11T10:50:21Z</time>
      </trkpt>
      <trkpt lat="44.72107" lon="6.72066">
        <ele>2174.9</ele>
        <time>2018-08-11T10:50:30Z</time>
      </trkpt>
      <trkpt lat="44.72115" lon="6.72061">
        <ele>2176.3</ele>
        <time>2018-08-11T10:50:38Z</time>
      </trkpt>
      <trkpt lat="44.72126" lon="6.72059">
        <ele>2178.6</ele>
        <time>2018-08-11T10:50:47Z</time>
      </trkpt>
      <trkpt lat="44.72127" lon="6.72046">
        <ele>2182</ele>
        <time>2018-08-11T10:50:56Z</time>
      </trkpt>
      <trkpt lat="44.72134" lon="6.72037">
        <ele>2183.7</ele>
        <time>2018-08-11T10:51:12Z</time>
      </trkpt>
      <trkpt lat="44.72141" lon="6.72025">
        <ele>2186.6</ele>
        <time>2018-08-11T10:51:24Z</time>
      </trkpt>
      <trkpt lat="44.72146" lon="6.72014">
        <ele>2189.5</ele>
        <time>2018-08-11T10:52:13Z</time>
      </trkpt>
      <trkpt lat="44.72152" lon="6.72004">
        <ele>2191.8</ele>
        <time>2018-08-11T10:52:25Z</time>
      </trkpt>
      <trkpt lat="44.72155" lon="6.71992">
        <ele>2194.2</ele>
        <time>2018-08-11T10:52:33Z</time>
      </trkpt>
      <trkpt lat="44.72163" lon="6.71984">
        <ele>2196.9</ele>
        <time>2018-08-11T10:52:42Z</time>
      </trkpt>
      <trkpt lat="44.72171" lon="6.71978">
        <ele>2199</ele>
        <time>2018-08-11T10:52:54Z</time>
      </trkpt>
      <trkpt lat="44.72179" lon="6.71971">
        <ele>2201.3</ele>
        <time>2018-08-11T10:53:07Z</time>
      </trkpt>
      <trkpt lat="44.72185" lon="6.71961">
        <ele>2204.8</ele>
        <time>2018-08-11T10:53:19Z</time>
      </trkpt>
      <trkpt lat="44.72193" lon="6.71954">
        <ele>2208.7</ele>
        <time>2018-08-11T10:53:29Z</time>
      </trkpt>
      <trkpt lat="44.72197" lon="6.71941">
        <ele>2209.2</ele>
        <time>2018-08-11T10:53:38Z</time>
      </trkpt>
      <trkpt lat="44.72203" lon="6.71931">
        <ele>2211.7</ele>
        <time>2018-08-11T10:53:48Z</time>
      </trkpt>
      <trkpt lat="44.72207" lon="6.71919">
        <ele>2213.6</ele>
        <time>2018-08-11T10:54:01Z</time>
      </trkpt>
      <trkpt lat="44.72213" lon="6.7191">
        <ele>2214.4</ele>
        <time>2018-08-11T10:54:13Z</time>
      </trkpt>
      <trkpt lat="44.72219" lon="6.71899">
        <ele>2213.1</ele>
        <time>2018-08-11T10:54:22Z</time>
      </trkpt>
      <trkpt lat="44.72227" lon="6.71892">
        <ele>2211.9</ele>
        <time>2018-08-11T10:54:44Z</time>
      </trkpt>
      <trkpt lat="44.72235" lon="6.71885">
        <ele>2211.1</ele>
        <time>2018-08-11T10:54:55Z</time>
      </trkpt>
      <trkpt lat="44.72244" lon="6.71881">
        <ele>2209.2</ele>
        <time>2018-08-11T10:55:06Z</time>
      </trkpt>
      <trkpt lat="44.72254" lon="6.71877">
        <ele>2207.9</ele>
        <time>2018-08-11T10:55:15Z</time>
      </trkpt>
      <trkpt lat="44.7226" lon="6.71867">
        <ele>2208.2</ele>
        <time>2018-08-11T10:55:26Z</time>
      </trkpt>
      <trkpt lat="44.72267" lon="6.71858">
        <ele>2207.2</ele>
        <time>2018-08-11T10:55:39Z</time>
      </trkpt>
      <trkpt lat="44.72276" lon="6.71853">
        <ele>2209.3</ele>
        <time>2018-08-11T10:55:52Z</time>
      </trkpt>
      <trkpt lat="44.72285" lon="6.71854">
        <ele>2211.9</ele>
        <time>2018-08-11T10:56:03Z</time>
      </trkpt>
      <trkpt lat="44.72294" lon="6.71853">
        <ele>2214.3</ele>
        <time>2018-08-11T10:56:17Z</time>
      </trkpt>
      <trkpt lat="44.72303" lon="6.7185">
        <ele>2216.3</ele>
        <time>2018-08-11T10:56:28Z</time>
      </trkpt>
      <trkpt lat="44.72311" lon="6.71843">
        <ele>2219</ele>
        <time>2018-08-11T10:56:37Z</time>
      </trkpt>
      <trkpt lat="44.72322" lon="6.71843">
        <ele>2221</ele>
        <time>2018-08-11T10:56:50Z</time>
      </trkpt>
      <trkpt lat="44.72328" lon="6.71834">
        <ele>2221.2</ele>
        <time>2018-08-11T10:57:03Z</time>
      </trkpt>
      <trkpt lat="44.72334" lon="6.71824">
        <ele>2226.4</ele>
        <time>2018-08-11T10:57:13Z</time>
      </trkpt>
      <trkpt lat="44.72341" lon="6.71815">
        <ele>2229.1</ele>
        <time>2018-08-11T10:57:24Z</time>
      </trkpt>
      <trkpt lat="44.72348" lon="6.71809">
        <ele>2232.6</ele>
        <time>2018-08-11T10:57:34Z</time>
      </trkpt>
      <trkpt lat="44.72356" lon="6.71802">
        <ele>2235.3</ele>
        <time>2018-08-11T10:57:43Z</time>
      </trkpt>
      <trkpt lat="44.72365" lon="6.71798">
        <ele>2238.5</ele>
        <time>2018-08-11T10:57:54Z</time>
      </trkpt>
      <trkpt lat="44.72374" lon="6.71793">
        <ele>2241.3</ele>
        <time>2018-08-11T10:58:04Z</time>
      </trkpt>
      <trkpt lat="44.72385" lon="6.71791">
        <ele>2244.3</ele>
        <time>2018-08-11T10:58:13Z</time>
      </trkpt>
      <trkpt lat="44.72388" lon="6.71779">
        <ele>2245.5</ele>
        <time>2018-08-11T10:58:21Z</time>
      </trkpt>
      <trkpt lat="44.72393" lon="6.71768">
        <ele>2245.4</ele>
        <time>2018-08-11T10:58:31Z</time>
      </trkpt>
      <trkpt lat="44.72402" lon="6.71761">
        <ele>2245.9</ele>
        <time>2018-08-11T10:58:43Z</time>
      </trkpt>
      <trkpt lat="44.72411" lon="6.71759">
        <ele>2246.1</ele>
        <time>2018-08-11T10:58:51Z</time>
      </trkpt>
      <trkpt lat="44.7242" lon="6.71755">
        <ele>2247.1</ele>
        <time>2018-08-11T10:59:05Z</time>
      </trkpt>
      <trkpt lat="44.72428" lon="6.71747">
        <ele>2249.2</ele>
        <time>2018-08-11T10:59:16Z</time>
      </trkpt>
      <trkpt lat="44.72437" lon="6.71742">
        <ele>2250.3</ele>
        <time>2018-08-11T10:59:29Z</time>
      </trkpt>
      <trkpt lat="44.72447" lon="6.71737">
        <ele>2251.8</ele>
        <time>2018-08-11T10:59:39Z</time>
      </trkpt>
      <trkpt lat="44.72457" lon="6.71733">
        <ele>2251</ele>
        <time>2018-08-11T10:59:49Z</time>
      </trkpt>
      <trkpt lat="44.72467" lon="6.71729">
        <ele>2249.7</ele>
        <time>2018-08-11T10:59:58Z</time>
      </trkpt>
      <trkpt lat="44.72476" lon="6.71726">
        <ele>2252.1</ele>
        <time>2018-08-11T11:00:06Z</time>
      </trkpt>
      <trkpt lat="44.72483" lon="6.71717">
        <ele>2254</ele>
        <time>2018-08-11T11:00:17Z</time>
      </trkpt>
      <trkpt lat="44.7249" lon="6.71709">
        <ele>2255</ele>
        <time>2018-08-11T11:00:29Z</time>
      </trkpt>
      <trkpt lat="44.72495" lon="6.71697">
        <ele>2255.1</ele>
        <time>2018-08-11T11:00:40Z</time>
      </trkpt>
      <trkpt lat="44.72497" lon="6.71685">
        <ele>2257.6</ele>
        <time>2018-08-11T11:00:50Z</time>
      </trkpt>
      <trkpt lat="44.72504" lon="6.71675">
        <ele>2259.1</ele>
        <time>2018-08-11T11:00:59Z</time>
      </trkpt>
      <trkpt lat="44.72511" lon="6.71666">
        <ele>2261.1</ele>
        <time>2018-08-11T11:01:09Z</time>
      </trkpt>
      <trkpt lat="44.7252" lon="6.7166">
        <ele>2264.8</ele>
        <time>2018-08-11T11:01:19Z</time>
      </trkpt>
      <trkpt lat="44.72528" lon="6.71652">
        <ele>2267.4</ele>
        <time>2018-08-11T11:01:29Z</time>
      </trkpt>
      <trkpt lat="44.72536" lon="6.71644">
        <ele>2267.4</ele>
        <time>2018-08-11T11:01:42Z</time>
      </trkpt>
      <trkpt lat="44.72544" lon="6.71636">
        <ele>2267.8</ele>
        <time>2018-08-11T11:01:56Z</time>
      </trkpt>
      <trkpt lat="44.72552" lon="6.71629">
        <ele>2265.6</ele>
        <time>2018-08-11T11:02:09Z</time>
      </trkpt>
      <trkpt lat="44.7256" lon="6.71621">
        <ele>2264.3</ele>
        <time>2018-08-11T11:02:20Z</time>
      </trkpt>
      <trkpt lat="44.72568" lon="6.71612">
        <ele>2263.6</ele>
        <time>2018-08-11T11:02:29Z</time>
      </trkpt>
      <trkpt lat="44.72575" lon="6.71604">
        <ele>2264.5</ele>
        <time>2018-08-11T11:02:39Z</time>
      </trkpt>
      <trkpt lat="44.72579" lon="6.71593">
        <ele>2266.5</ele>
        <time>2018-08-11T11:02:54Z</time>
      </trkpt>
      <trkpt lat="44.72585" lon="6.71583">
        <ele>2269.2</ele>
        <time>2018-08-11T11:03:12Z</time>
      </trkpt>
      <trkpt lat="44.72593" lon="6.71575">
        <ele>2270.5</ele>
        <time>2018-08-11T11:03:21Z</time>
      </trkpt>
      <trkpt lat="44.72602" lon="6.71574">
        <ele>2268.6</ele>
        <time>2018-08-11T11:03:38Z</time>
      </trkpt>
      <trkpt lat="44.72611" lon="6.7157">
        <ele>2269.4</ele>
        <time>2018-08-11T11:03:48Z</time>
      </trkpt>
      <trkpt lat="44.7262" lon="6.71568">
        <ele>2271.1</ele>
        <time>2018-08-11T11:03:55Z</time>
      </trkpt>
      <trkpt lat="44.72629" lon="6.71565">
        <ele>2272.2</ele>
        <time>2018-08-11T11:04:11Z</time>
      </trkpt>
      <trkpt lat="44.72638" lon="6.7156">
        <ele>2271.8</ele>
        <time>2018-08-11T11:04:27Z</time>
      </trkpt>
      <trkpt lat="44.72647" lon="6.71556">
        <ele>2271.6</ele>
        <time>2018-08-11T11:04:35Z</time>
      </trkpt>
      <trkpt lat="44.72655" lon="6.71548">
        <ele>2271.7</ele>
        <time>2018-08-11T11:04:49Z</time>
      </trkpt>
      <trkpt lat="44.72658" lon="6.71535">
        <ele>2271.8</ele>
        <time>2018-08-11T11:05:01Z</time>
      </trkpt>
      <trkpt lat="44.72666" lon="6.71529">
        <ele>2272.4</ele>
        <time>2018-08-11T11:05:20Z</time>
      </trkpt>
      <trkpt lat="44.72674" lon="6.71523">
        <ele>2272.5</ele>
        <time>2018-08-11T11:05:31Z</time>
      </trkpt>
      <trkpt lat="44.72681" lon="6.71514">
        <ele>2274.6</ele>
        <time>2018-08-11T11:05:42Z</time>
      </trkpt>
      <trkpt lat="44.72681" lon="6.71501">
        <ele>2276</ele>
        <time>2018-08-11T11:05:51Z</time>
      </trkpt>
      <trkpt lat="44.72683" lon="6.71489">
        <ele>2277.1</ele>
        <time>2018-08-11T11:06:01Z</time>
      </trkpt>
      <trkpt lat="44.72691" lon="6.71481">
        <ele>2278.6</ele>
        <time>2018-08-11T11:06:13Z</time>
      </trkpt>
      <trkpt lat="44.72697" lon="6.71471">
        <ele>2279.4</ele>
        <time>2018-08-11T11:06:23Z</time>
      </trkpt>
      <trkpt lat="44.72705" lon="6.71464">
        <ele>2278</ele>
        <time>2018-08-11T11:07:05Z</time>
      </trkpt>
      <trkpt lat="44.72711" lon="6.71454">
        <ele>2277</ele>
        <time>2018-08-11T11:07:16Z</time>
      </trkpt>
      <trkpt lat="44.72718" lon="6.71445">
        <ele>2277.2</ele>
        <time>2018-08-11T11:07:25Z</time>
      </trkpt>
      <trkpt lat="44.72725" lon="6.71437">
        <ele>2277.8</ele>
        <time>2018-08-11T11:07:37Z</time>
      </trkpt>
      <trkpt lat="44.72727" lon="6.71424">
        <ele>2278.1</ele>
        <time>2018-08-11T11:07:46Z</time>
      </trkpt>
      <trkpt lat="44.72734" lon="6.71415">
        <ele>2278</ele>
        <time>2018-08-11T11:08:06Z</time>
      </trkpt>
      <trkpt lat="44.72739" lon="6.71403">
        <ele>2278.3</ele>
        <time>2018-08-11T11:08:23Z</time>
      </trkpt>
      <trkpt lat="44.72738" lon="6.7139">
        <ele>2277.9</ele>
        <time>2018-08-11T11:08:43Z</time>
      </trkpt>
      <trkpt lat="44.72741" lon="6.71377">
        <ele>2277.5</ele>
        <time>2018-08-11T11:08:54Z</time>
      </trkpt>
      <trkpt lat="44.72742" lon="6.71363">
        <ele>2277.7</ele>
        <time>2018-08-11T11:09:03Z</time>
      </trkpt>
      <trkpt lat="44.72742" lon="6.7135">
        <ele>2279.6</ele>
        <time>2018-08-11T11:09:12Z</time>
      </trkpt>
      <trkpt lat="44.72751" lon="6.71348">
        <ele>2280.4</ele>
        <time>2018-08-11T11:09:21Z</time>
      </trkpt>
      <trkpt lat="44.72758" lon="6.7134">
        <ele>2280.6</ele>
        <time>2018-08-11T11:09:35Z</time>
      </trkpt>
      <trkpt lat="44.72765" lon="6.7133">
        <ele>2282.1</ele>
        <time>2018-08-11T11:09:46Z</time>
      </trkpt>
      <trkpt lat="44.7277" lon="6.7132">
        <ele>2283</ele>
        <time>2018-08-11T11:09:56Z</time>
      </trkpt>
      <trkpt lat="44.72773" lon="6.71308">
        <ele>2283.3</ele>
        <time>2018-08-11T11:10:07Z</time>
      </trkpt>
      <trkpt lat="44.72777" lon="6.71295">
        <ele>2283.8</ele>
        <time>2018-08-11T11:10:46Z</time>
      </trkpt>
      <trkpt lat="44.7278" lon="6.71282">
        <ele>2284</ele>
        <time>2018-08-11T11:10:57Z</time>
      </trkpt>
      <trkpt lat="44.72781" lon="6.71269">
        <ele>2284.4</ele>
        <time>2018-08-11T11:11:08Z</time>
      </trkpt>
      <trkpt lat="44.72779" lon="6.71256">
        <ele>2284.7</ele>
        <time>2018-08-11T11:11:17Z</time>
      </trkpt>
      <trkpt lat="44.72773" lon="6.71247">
        <ele>2285.9</ele>
        <time>2018-08-11T11:11:34Z</time>
      </trkpt>
      <trkpt lat="44.72763" lon="6.71243">
        <ele>2287.2</ele>
        <time>2018-08-11T11:11:44Z</time>
      </trkpt>
      <trkpt lat="44.72761" lon="6.7123">
        <ele>2287.6</ele>
        <time>2018-08-11T11:11:56Z</time>
      </trkpt>
      <trkpt lat="44.72767" lon="6.7122">
        <ele>2288.1</ele>
        <time>2018-08-11T11:12:11Z</time>
      </trkpt>
      <trkpt lat="44.72758" lon="6.71212">
        <ele>2288.7</ele>
        <time>2018-08-11T11:12:20Z</time>
      </trkpt>
      <trkpt lat="44.72767" lon="6.71209">
        <ele>2288.7</ele>
        <time>2018-08-11T11:12:43Z</time>
      </trkpt>
      <trkpt lat="44.72776" lon="6.71214">
        <ele>2288.2</ele>
        <time>2018-08-11T11:12:47Z</time>
      </trkpt>
      <trkpt lat="44.72778" lon="6.712">
        <ele>2288</ele>
        <time>2018-08-11T11:13:03Z</time>
      </trkpt>
      <trkpt lat="44.72768" lon="6.71201">
        <ele>2287.6</ele>
        <time>2018-08-11T11:13:30Z</time>
      </trkpt>
      <trkpt lat="44.72769" lon="6.71214">
        <ele>2287</ele>
        <time>2018-08-11T11:13:36Z</time>
      </trkpt>
      <trkpt lat="44.72762" lon="6.71223">
        <ele>2286.2</ele>
        <time>2018-08-11T11:13:47Z</time>
      </trkpt>
      <trkpt lat="44.72766" lon="6.71211">
        <ele>2285</ele>
        <time>2018-08-11T11:14:00Z</time>
      </trkpt>
      <trkpt lat="44.72769" lon="6.71234">
        <ele>2285</ele>
        <time>2018-08-11T11:15:31Z</time>
      </trkpt>
      <trkpt lat="44.72762" lon="6.71225">
        <ele>2285</ele>
        <time>2018-08-11T11:15:42Z</time>
      </trkpt>
      <trkpt lat="44.72756" lon="6.71215">
        <ele>2285</ele>
        <time>2018-08-11T11:16:02Z</time>
      </trkpt>
      <trkpt lat="44.72751" lon="6.71203">
        <ele>2285</ele>
        <time>2018-08-11T11:16:54Z</time>
      </trkpt>
      <trkpt lat="44.72759" lon="6.71197">
        <ele>2285</ele>
        <time>2018-08-11T11:17:05Z</time>
      </trkpt>
      <trkpt lat="44.72764" lon="6.71187">
        <ele>2285</ele>
        <time>2018-08-11T11:17:18Z</time>
      </trkpt>
      <trkpt lat="44.72769" lon="6.71176">
        <ele>2285</ele>
        <time>2018-08-11T11:17:28Z</time>
      </trkpt>
      <trkpt lat="44.72774" lon="6.71164">
        <ele>2284.4</ele>
        <time>2018-08-11T11:17:40Z</time>
      </trkpt>
      <trkpt lat="44.72774" lon="6.71151">
        <ele>2283.2</ele>
        <time>2018-08-11T11:18:16Z</time>
      </trkpt>
      <trkpt lat="44.72785" lon="6.71148">
        <ele>2282.1</ele>
        <time>2018-08-11T11:20:58Z</time>
      </trkpt>
      <trkpt lat="44.72791" lon="6.71138">
        <ele>2281</ele>
        <time>2018-08-11T11:21:16Z</time>
      </trkpt>
      <trkpt lat="44.72798" lon="6.71129">
        <ele>2279.2</ele>
        <time>2018-08-11T11:21:26Z</time>
      </trkpt>
      <trkpt lat="44.72803" lon="6.71118">
        <ele>2277.3</ele>
        <time>2018-08-11T11:21:38Z</time>
      </trkpt>
      <trkpt lat="44.72806" lon="6.71106">
        <ele>2275.9</ele>
        <time>2018-08-11T11:21:48Z</time>
      </trkpt>
      <trkpt lat="44.72808" lon="6.71093">
        <ele>2274.6</ele>
        <time>2018-08-11T11:21:59Z</time>
      </trkpt>
      <trkpt lat="44.72811" lon="6.71081">
        <ele>2273.2</ele>
        <time>2018-08-11T11:22:16Z</time>
      </trkpt>
      <trkpt lat="44.72813" lon="6.71069">
        <ele>2271.6</ele>
        <time>2018-08-11T11:22:26Z</time>
      </trkpt>
      <trkpt lat="44.72817" lon="6.71056">
        <ele>2269.5</ele>
        <time>2018-08-11T11:22:33Z</time>
      </trkpt>
      <trkpt lat="44.72819" lon="6.71041">
        <ele>2267.5</ele>
        <time>2018-08-11T11:22:45Z</time>
      </trkpt>
      <trkpt lat="44.7282" lon="6.71027">
        <ele>2266.2</ele>
        <time>2018-08-11T11:22:54Z</time>
      </trkpt>
      <trkpt lat="44.72819" lon="6.71013">
        <ele>2264.7</ele>
        <time>2018-08-11T11:23:03Z</time>
      </trkpt>
      <trkpt lat="44.72818" lon="6.70999">
        <ele>2263.6</ele>
        <time>2018-08-11T11:23:14Z</time>
      </trkpt>
      <trkpt lat="44.72816" lon="6.70987">
        <ele>2262.3</ele>
        <time>2018-08-11T11:23:24Z</time>
      </trkpt>
      <trkpt lat="44.72814" lon="6.70973">
        <ele>2261</ele>
        <time>2018-08-11T11:23:35Z</time>
      </trkpt>
      <trkpt lat="44.72816" lon="6.7096">
        <ele>2260</ele>
        <time>2018-08-11T11:23:45Z</time>
      </trkpt>
      <trkpt lat="44.72822" lon="6.70948">
        <ele>2258.9</ele>
        <time>2018-08-11T11:24:03Z</time>
      </trkpt>
      <trkpt lat="44.72828" lon="6.70937">
        <ele>2257.9</ele>
        <time>2018-08-11T11:24:17Z</time>
      </trkpt>
      <trkpt lat="44.72827" lon="6.70923">
        <ele>2257.1</ele>
        <time>2018-08-11T11:24:43Z</time>
      </trkpt>
      <trkpt lat="44.72827" lon="6.7091">
        <ele>2256.6</ele>
        <time>2018-08-11T11:24:57Z</time>
      </trkpt>
      <trkpt lat="44.72831" lon="6.70898">
        <ele>2256.1</ele>
        <time>2018-08-11T11:25:13Z</time>
      </trkpt>
      <trkpt lat="44.72833" lon="6.70886">
        <ele>2255.6</ele>
        <time>2018-08-11T11:25:24Z</time>
      </trkpt>
      <trkpt lat="44.72835" lon="6.70874">
        <ele>2255.3</ele>
        <time>2018-08-11T11:25:35Z</time>
      </trkpt>
      <trkpt lat="44.72839" lon="6.70862">
        <ele>2255.4</ele>
        <time>2018-08-11T11:25:44Z</time>
      </trkpt>
      <trkpt lat="44.72842" lon="6.7085">
        <ele>2255.7</ele>
        <time>2018-08-11T11:25:55Z</time>
      </trkpt>
      <trkpt lat="44.72842" lon="6.70837">
        <ele>2256.1</ele>
        <time>2018-08-11T11:26:02Z</time>
      </trkpt>
      <trkpt lat="44.72843" lon="6.70824">
        <ele>2256.2</ele>
        <time>2018-08-11T11:26:11Z</time>
      </trkpt>
      <trkpt lat="44.72843" lon="6.70811">
        <ele>2256.1</ele>
        <time>2018-08-11T11:26:18Z</time>
      </trkpt>
      <trkpt lat="44.72843" lon="6.70798">
        <ele>2256</ele>
        <time>2018-08-11T11:26:27Z</time>
      </trkpt>
      <trkpt lat="44.72844" lon="6.70784">
        <ele>2256</ele>
        <time>2018-08-11T11:26:36Z</time>
      </trkpt>
      <trkpt lat="44.72843" lon="6.70771">
        <ele>2256.1</ele>
        <time>2018-08-11T11:26:47Z</time>
      </trkpt>
      <trkpt lat="44.72846" lon="6.70759">
        <ele>2256.1</ele>
        <time>2018-08-11T11:27:03Z</time>
      </trkpt>
      <trkpt lat="44.72847" lon="6.70746">
        <ele>2256</ele>
        <time>2018-08-11T11:27:14Z</time>
      </trkpt>
      <trkpt lat="44.72851" lon="6.70734">
        <ele>2255.6</ele>
        <time>2018-08-11T11:27:28Z</time>
      </trkpt>
      <trkpt lat="44.72854" lon="6.70721">
        <ele>2254.4</ele>
        <time>2018-08-11T11:27:41Z</time>
      </trkpt>
      <trkpt lat="44.72861" lon="6.70713">
        <ele>2252.7</ele>
        <time>2018-08-11T11:27:56Z</time>
      </trkpt>
      <trkpt lat="44.72863" lon="6.707">
        <ele>2251.3</ele>
        <time>2018-08-11T11:28:08Z</time>
      </trkpt>
      <trkpt lat="44.72867" lon="6.70688">
        <ele>2250.3</ele>
        <time>2018-08-11T11:28:19Z</time>
      </trkpt>
      <trkpt lat="44.72873" lon="6.70679">
        <ele>2249.7</ele>
        <time>2018-08-11T11:28:25Z</time>
      </trkpt>
      <trkpt lat="44.72878" lon="6.70667">
        <ele>2249.5</ele>
        <time>2018-08-11T11:28:35Z</time>
      </trkpt>
      <trkpt lat="44.72884" lon="6.70657">
        <ele>2249.4</ele>
        <time>2018-08-11T11:28:42Z</time>
      </trkpt>
      <trkpt lat="44.72886" lon="6.70644">
        <ele>2249.3</ele>
        <time>2018-08-11T11:28:50Z</time>
      </trkpt>
      <trkpt lat="44.72895" lon="6.70637">
        <ele>2249.5</ele>
        <time>2018-08-11T11:29:01Z</time>
      </trkpt>
      <trkpt lat="44.72901" lon="6.70627">
        <ele>2250.4</ele>
        <time>2018-08-11T11:29:12Z</time>
      </trkpt>
      <trkpt lat="44.72906" lon="6.70616">
        <ele>2251.5</ele>
        <time>2018-08-11T11:29:28Z</time>
      </trkpt>
      <trkpt lat="44.72911" lon="6.70605">
        <ele>2252.3</ele>
        <time>2018-08-11T11:29:40Z</time>
      </trkpt>
      <trkpt lat="44.72915" lon="6.70593">
        <ele>2252.7</ele>
        <time>2018-08-11T11:29:50Z</time>
      </trkpt>
      <trkpt lat="44.72924" lon="6.70585">
        <ele>2252.8</ele>
        <time>2018-08-11T11:29:59Z</time>
      </trkpt>
      <trkpt lat="44.7293" lon="6.70576">
        <ele>2252.7</ele>
        <time>2018-08-11T11:30:09Z</time>
      </trkpt>
      <trkpt lat="44.72935" lon="6.70564">
        <ele>2252.5</ele>
        <time>2018-08-11T11:30:22Z</time>
      </trkpt>
      <trkpt lat="44.72934" lon="6.7055">
        <ele>2252.3</ele>
        <time>2018-08-11T11:30:31Z</time>
      </trkpt>
      <trkpt lat="44.72933" lon="6.70537">
        <ele>2252.1</ele>
        <time>2018-08-11T11:30:42Z</time>
      </trkpt>
      <trkpt lat="44.72929" lon="6.70525">
        <ele>2251.9</ele>
        <time>2018-08-11T11:30:49Z</time>
      </trkpt>
      <trkpt lat="44.72926" lon="6.70512">
        <ele>2251.7</ele>
        <time>2018-08-11T11:30:57Z</time>
      </trkpt>
      <trkpt lat="44.72924" lon="6.70499">
        <ele>2251.6</ele>
        <time>2018-08-11T11:31:07Z</time>
      </trkpt>
      <trkpt lat="44.72926" lon="6.70486">
        <ele>2251.4</ele>
        <time>2018-08-11T11:31:15Z</time>
      </trkpt>
      <trkpt lat="44.72926" lon="6.70473">
        <ele>2251</ele>
        <time>2018-08-11T11:31:24Z</time>
      </trkpt>
      <trkpt lat="44.72927" lon="6.7046">
        <ele>2250.6</ele>
        <time>2018-08-11T11:31:34Z</time>
      </trkpt>
      <trkpt lat="44.72923" lon="6.70447">
        <ele>2250.8</ele>
        <time>2018-08-11T11:31:48Z</time>
      </trkpt>
      <trkpt lat="44.72918" lon="6.70434">
        <ele>2250.9</ele>
        <time>2018-08-11T11:31:58Z</time>
      </trkpt>
      <trkpt lat="44.72913" lon="6.70423">
        <ele>2250.9</ele>
        <time>2018-08-11T11:32:07Z</time>
      </trkpt>
      <trkpt lat="44.72909" lon="6.7041">
        <ele>2250.8</ele>
        <time>2018-08-11T11:32:21Z</time>
      </trkpt>
      <trkpt lat="44.72906" lon="6.70398">
        <ele>2250.7</ele>
        <time>2018-08-11T11:32:28Z</time>
      </trkpt>
      <trkpt lat="44.72902" lon="6.70386">
        <ele>2250.6</ele>
        <time>2018-08-11T11:32:36Z</time>
      </trkpt>
      <trkpt lat="44.72897" lon="6.70374">
        <ele>2250.7</ele>
        <time>2018-08-11T11:32:45Z</time>
      </trkpt>
      <trkpt lat="44.72891" lon="6.70363">
        <ele>2250.8</ele>
        <time>2018-08-11T11:33:10Z</time>
      </trkpt>
      <trkpt lat="44.72895" lon="6.70352">
        <ele>2251.1</ele>
        <time>2018-08-11T11:33:19Z</time>
      </trkpt>
      <trkpt lat="44.72898" lon="6.70339">
        <ele>2251.5</ele>
        <time>2018-08-11T11:33:29Z</time>
      </trkpt>
      <trkpt lat="44.72897" lon="6.70326">
        <ele>2252.1</ele>
        <time>2018-08-11T11:33:48Z</time>
      </trkpt>
      <trkpt lat="44.72894" lon="6.70314">
        <ele>2252.7</ele>
        <time>2018-08-11T11:33:59Z</time>
      </trkpt>
      <trkpt lat="44.7289" lon="6.70302">
        <ele>2253.1</ele>
        <time>2018-08-11T11:34:09Z</time>
      </trkpt>
      <trkpt lat="44.72886" lon="6.7029">
        <ele>2254</ele>
        <time>2018-08-11T11:34:17Z</time>
      </trkpt>
      <trkpt lat="44.72885" lon="6.70277">
        <ele>2254.8</ele>
        <time>2018-08-11T11:34:25Z</time>
      </trkpt>
      <trkpt lat="44.72886" lon="6.70264">
        <ele>2255.5</ele>
        <time>2018-08-11T11:34:45Z</time>
      </trkpt>
      <trkpt lat="44.72891" lon="6.70254">
        <ele>2256.4</ele>
        <time>2018-08-11T11:34:57Z</time>
      </trkpt>
      <trkpt lat="44.72893" lon="6.70241">
        <ele>2257.3</ele>
        <time>2018-08-11T11:36:00Z</time>
      </trkpt>
      <trkpt lat="44.72903" lon="6.70238">
        <ele>2258.2</ele>
        <time>2018-08-11T11:36:16Z</time>
      </trkpt>
      <trkpt lat="44.7291" lon="6.70229">
        <ele>2259.3</ele>
        <time>2018-08-11T11:36:25Z</time>
      </trkpt>
      <trkpt lat="44.72918" lon="6.70221">
        <ele>2260</ele>
        <time>2018-08-11T11:36:36Z</time>
      </trkpt>
      <trkpt lat="44.72926" lon="6.70214">
        <ele>2260.7</ele>
        <time>2018-08-11T11:36:46Z</time>
      </trkpt>
      <trkpt lat="44.72935" lon="6.7021">
        <ele>2261.1</ele>
        <time>2018-08-11T11:36:58Z</time>
      </trkpt>
      <trkpt lat="44.72944" lon="6.70207">
        <ele>2261.6</ele>
        <time>2018-08-11T11:37:08Z</time>
      </trkpt>
      <trkpt lat="44.72952" lon="6.70202">
        <ele>2262.2</ele>
        <time>2018-08-11T11:37:16Z</time>
      </trkpt>
      <trkpt lat="44.72961" lon="6.70199">
        <ele>2262.7</ele>
        <time>2018-08-11T11:37:29Z</time>
      </trkpt>
      <trkpt lat="44.7297" lon="6.70192">
        <ele>2263</ele>
        <time>2018-08-11T11:37:38Z</time>
      </trkpt>
      <trkpt lat="44.72978" lon="6.70186">
        <ele>2263.1</ele>
        <time>2018-08-11T11:37:47Z</time>
      </trkpt>
      <trkpt lat="44.72986" lon="6.7018">
        <ele>2263.2</ele>
        <time>2018-08-11T11:37:57Z</time>
      </trkpt>
      <trkpt lat="44.72995" lon="6.70174">
        <ele>2263.2</ele>
        <time>2018-08-11T11:38:06Z</time>
      </trkpt>
      <trkpt lat="44.73003" lon="6.70168">
        <ele>2263.4</ele>
        <time>2018-08-11T11:38:22Z</time>
      </trkpt>
      <trkpt lat="44.73011" lon="6.7016">
        <ele>2263.6</ele>
        <time>2018-08-11T11:38:30Z</time>
      </trkpt>
      <trkpt lat="44.73018" lon="6.70152">
        <ele>2263.9</ele>
        <time>2018-08-11T11:38:38Z</time>
      </trkpt>
      <trkpt lat="44.73026" lon="6.70143">
        <ele>2264.5</ele>
        <time>2018-08-11T11:38:47Z</time>
      </trkpt>
      <trkpt lat="44.73034" lon="6.70135">
        <ele>2265</ele>
        <time>2018-08-11T11:39:01Z</time>
      </trkpt>
      <trkpt lat="44.73035" lon="6.70122">
        <ele>2265.6</ele>
        <time>2018-08-11T11:39:09Z</time>
      </trkpt>
      <trkpt lat="44.73035" lon="6.70109">
        <ele>2265.9</ele>
        <time>2018-08-11T11:39:17Z</time>
      </trkpt>
      <trkpt lat="44.73031" lon="6.70097">
        <ele>2265.9</ele>
        <time>2018-08-11T11:39:27Z</time>
      </trkpt>
      <trkpt lat="44.73032" lon="6.70083">
        <ele>2266</ele>
        <time>2018-08-11T11:39:40Z</time>
      </trkpt>
      <trkpt lat="44.73039" lon="6.70074">
        <ele>2266.2</ele>
        <time>2018-08-11T11:40:13Z</time>
      </trkpt>
      <trkpt lat="44.73046" lon="6.70065">
        <ele>2267.1</ele>
        <time>2018-08-11T11:40:23Z</time>
      </trkpt>
      <trkpt lat="44.73054" lon="6.70058">
        <ele>2268.6</ele>
        <time>2018-08-11T11:40:32Z</time>
      </trkpt>
      <trkpt lat="44.73061" lon="6.70049">
        <ele>2270.4</ele>
        <time>2018-08-11T11:40:43Z</time>
      </trkpt>
      <trkpt lat="44.73071" lon="6.70048">
        <ele>2271.4</ele>
        <time>2018-08-11T11:40:56Z</time>
      </trkpt>
      <trkpt lat="44.7308" lon="6.70046">
        <ele>2272.4</ele>
        <time>2018-08-11T11:41:05Z</time>
      </trkpt>
      <trkpt lat="44.7309" lon="6.70042">
        <ele>2273.3</ele>
        <time>2018-08-11T11:41:14Z</time>
      </trkpt>
      <trkpt lat="44.731" lon="6.70035">
        <ele>2273.9</ele>
        <time>2018-08-11T11:41:29Z</time>
      </trkpt>
      <trkpt lat="44.73108" lon="6.7003">
        <ele>2274.2</ele>
        <time>2018-08-11T11:41:36Z</time>
      </trkpt>
      <trkpt lat="44.73117" lon="6.70022">
        <ele>2274.5</ele>
        <time>2018-08-11T11:41:45Z</time>
      </trkpt>
      <trkpt lat="44.73125" lon="6.70017">
        <ele>2274.6</ele>
        <time>2018-08-11T11:41:55Z</time>
      </trkpt>
      <trkpt lat="44.73132" lon="6.70009">
        <ele>2274.8</ele>
        <time>2018-08-11T11:42:03Z</time>
      </trkpt>
      <trkpt lat="44.73133" lon="6.69995">
        <ele>2275</ele>
        <time>2018-08-11T11:43:15Z</time>
      </trkpt>
      <trkpt lat="44.73132" lon="6.69982">
        <ele>2274.5</ele>
        <time>2018-08-11T11:43:27Z</time>
      </trkpt>
      <trkpt lat="44.7313" lon="6.69968">
        <ele>2274</ele>
        <time>2018-08-11T11:43:37Z</time>
      </trkpt>
      <trkpt lat="44.73129" lon="6.69955">
        <ele>2273.3</ele>
        <time>2018-08-11T11:43:48Z</time>
      </trkpt>
      <trkpt lat="44.73128" lon="6.69942">
        <ele>2272</ele>
        <time>2018-08-11T11:43:59Z</time>
      </trkpt>
      <trkpt lat="44.73132" lon="6.6993">
        <ele>2270.8</ele>
        <time>2018-08-11T11:44:08Z</time>
      </trkpt>
      <trkpt lat="44.73136" lon="6.69919">
        <ele>2269.7</ele>
        <time>2018-08-11T11:44:17Z</time>
      </trkpt>
      <trkpt lat="44.73134" lon="6.69904">
        <ele>2268.2</ele>
        <time>2018-08-11T11:44:29Z</time>
      </trkpt>
      <trkpt lat="44.73132" lon="6.69892">
        <ele>2267.1</ele>
        <time>2018-08-11T11:44:38Z</time>
      </trkpt>
      <trkpt lat="44.73128" lon="6.69879">
        <ele>2265.8</ele>
        <time>2018-08-11T11:44:47Z</time>
      </trkpt>
      <trkpt lat="44.73127" lon="6.69866">
        <ele>2264.2</ele>
        <time>2018-08-11T11:44:56Z</time>
      </trkpt>
      <trkpt lat="44.73129" lon="6.69851">
        <ele>2261.7</ele>
        <time>2018-08-11T11:45:05Z</time>
      </trkpt>
      <trkpt lat="44.73132" lon="6.69839">
        <ele>2258.9</ele>
        <time>2018-08-11T11:45:14Z</time>
      </trkpt>
      <trkpt lat="44.73138" lon="6.69828">
        <ele>2257.4</ele>
        <time>2018-08-11T11:45:22Z</time>
      </trkpt>
      <trkpt lat="44.73142" lon="6.69816">
        <ele>2256.4</ele>
        <time>2018-08-11T11:45:31Z</time>
      </trkpt>
      <trkpt lat="44.73146" lon="6.69805">
        <ele>2255.5</ele>
        <time>2018-08-11T11:45:41Z</time>
      </trkpt>
      <trkpt lat="44.73149" lon="6.69792">
        <ele>2254.9</ele>
        <time>2018-08-11T11:45:49Z</time>
      </trkpt>
      <trkpt lat="44.73148" lon="6.6978">
        <ele>2254.4</ele>
        <time>2018-08-11T11:46:07Z</time>
      </trkpt>
      <trkpt lat="44.73143" lon="6.69768">
        <ele>2252.9</ele>
        <time>2018-08-11T11:46:22Z</time>
      </trkpt>
      <trkpt lat="44.73145" lon="6.69756">
        <ele>2252</ele>
        <time>2018-08-11T11:46:42Z</time>
      </trkpt>
      <trkpt lat="44.73143" lon="6.69743">
        <ele>2250.3</ele>
        <time>2018-08-11T11:46:58Z</time>
      </trkpt>
      <trkpt lat="44.73139" lon="6.69731">
        <ele>2248.5</ele>
        <time>2018-08-11T11:47:08Z</time>
      </trkpt>
      <trkpt lat="44.73137" lon="6.69717">
        <ele>2246.4</ele>
        <time>2018-08-11T11:47:20Z</time>
      </trkpt>
      <trkpt lat="44.73137" lon="6.69704">
        <ele>2245</ele>
        <time>2018-08-11T11:47:30Z</time>
      </trkpt>
      <trkpt lat="44.73135" lon="6.69691">
        <ele>2242.9</ele>
        <time>2018-08-11T11:47:41Z</time>
      </trkpt>
      <trkpt lat="44.73133" lon="6.69678">
        <ele>2240.8</ele>
        <time>2018-08-11T11:47:51Z</time>
      </trkpt>
      <trkpt lat="44.73134" lon="6.69664">
        <ele>2237.8</ele>
        <time>2018-08-11T11:48:02Z</time>
      </trkpt>
      <trkpt lat="44.73133" lon="6.69651">
        <ele>2235.8</ele>
        <time>2018-08-11T11:48:09Z</time>
      </trkpt>
      <trkpt lat="44.73132" lon="6.69637">
        <ele>2233.8</ele>
        <time>2018-08-11T11:48:19Z</time>
      </trkpt>
      <trkpt lat="44.73135" lon="6.69624">
        <ele>2231.7</ele>
        <time>2018-08-11T11:48:31Z</time>
      </trkpt>
      <trkpt lat="44.73134" lon="6.69611">
        <ele>2228.8</ele>
        <time>2018-08-11T11:48:45Z</time>
      </trkpt>
      <trkpt lat="44.73133" lon="6.69598">
        <ele>2226.3</ele>
        <time>2018-08-11T11:48:55Z</time>
      </trkpt>
      <trkpt lat="44.73128" lon="6.69585">
        <ele>2223.5</ele>
        <time>2018-08-11T11:49:08Z</time>
      </trkpt>
      <trkpt lat="44.73123" lon="6.69574">
        <ele>2221.5</ele>
        <time>2018-08-11T11:49:18Z</time>
      </trkpt>
      <trkpt lat="44.73122" lon="6.69561">
        <ele>2218.1</ele>
        <time>2018-08-11T11:49:31Z</time>
      </trkpt>
      <trkpt lat="44.73115" lon="6.69551">
        <ele>2217.2</ele>
        <time>2018-08-11T11:49:50Z</time>
      </trkpt>
      <trkpt lat="44.73111" lon="6.69539">
        <ele>2215.9</ele>
        <time>2018-08-11T11:50:00Z</time>
      </trkpt>
      <trkpt lat="44.73105" lon="6.69527">
        <ele>2214.8</ele>
        <time>2018-08-11T11:50:09Z</time>
      </trkpt>
      <trkpt lat="44.73097" lon="6.69521">
        <ele>2214.1</ele>
        <time>2018-08-11T11:50:19Z</time>
      </trkpt>
      <trkpt lat="44.73091" lon="6.69512">
        <ele>2213.2</ele>
        <time>2018-08-11T11:50:30Z</time>
      </trkpt>
      <trkpt lat="44.73083" lon="6.69504">
        <ele>2212.1</ele>
        <time>2018-08-11T11:50:39Z</time>
      </trkpt>
      <trkpt lat="44.73075" lon="6.69498">
        <ele>2210.8</ele>
        <time>2018-08-11T11:50:47Z</time>
      </trkpt>
      <trkpt lat="44.73066" lon="6.69493">
        <ele>2209.5</ele>
        <time>2018-08-11T11:51:00Z</time>
      </trkpt>
      <trkpt lat="44.73056" lon="6.69491">
        <ele>2208.3</ele>
        <time>2018-08-11T11:51:06Z</time>
      </trkpt>
      <trkpt lat="44.73049" lon="6.69482">
        <ele>2207.3</ele>
        <time>2018-08-11T11:51:28Z</time>
      </trkpt>
      <trkpt lat="44.7304" lon="6.69481">
        <ele>2206.1</ele>
        <time>2018-08-11T11:51:37Z</time>
      </trkpt>
      <trkpt lat="44.73035" lon="6.6947">
        <ele>2204.9</ele>
        <time>2018-08-11T11:51:50Z</time>
      </trkpt>
      <trkpt lat="44.73026" lon="6.69462">
        <ele>2203.7</ele>
        <time>2018-08-11T11:51:58Z</time>
      </trkpt>
      <trkpt lat="44.73018" lon="6.69455">
        <ele>2202.2</ele>
        <time>2018-08-11T11:52:10Z</time>
      </trkpt>
      <trkpt lat="44.7301" lon="6.69462">
        <ele>2200.4</ele>
        <time>2018-08-11T11:52:19Z</time>
      </trkpt>
      <trkpt lat="44.73003" lon="6.6947">
        <ele>2198.2</ele>
        <time>2018-08-11T11:52:26Z</time>
      </trkpt>
      <trkpt lat="44.72994" lon="6.69474">
        <ele>2195.6</ele>
        <time>2018-08-11T11:52:34Z</time>
      </trkpt>
      <trkpt lat="44.72985" lon="6.69478">
        <ele>2193.6</ele>
        <time>2018-08-11T11:52:45Z</time>
      </trkpt>
      <trkpt lat="44.72977" lon="6.69483">
        <ele>2192.3</ele>
        <time>2018-08-11T11:52:58Z</time>
      </trkpt>
      <trkpt lat="44.72969" lon="6.6949">
        <ele>2191.2</ele>
        <time>2018-08-11T11:53:10Z</time>
      </trkpt>
      <trkpt lat="44.72959" lon="6.69494">
        <ele>2189.9</ele>
        <time>2018-08-11T11:53:21Z</time>
      </trkpt>
      <trkpt lat="44.72951" lon="6.69498">
        <ele>2188.7</ele>
        <time>2018-08-11T11:53:32Z</time>
      </trkpt>
      <trkpt lat="44.72942" lon="6.69503">
        <ele>2187.7</ele>
        <time>2018-08-11T11:53:40Z</time>
      </trkpt>
      <trkpt lat="44.72934" lon="6.6951">
        <ele>2187</ele>
        <time>2018-08-11T11:53:52Z</time>
      </trkpt>
      <trkpt lat="44.72927" lon="6.69519">
        <ele>2186.5</ele>
        <time>2018-08-11T11:54:01Z</time>
      </trkpt>
      <trkpt lat="44.7292" lon="6.69527">
        <ele>2186</ele>
        <time>2018-08-11T11:54:09Z</time>
      </trkpt>
      <trkpt lat="44.72911" lon="6.6953">
        <ele>2185.6</ele>
        <time>2018-08-11T11:54:19Z</time>
      </trkpt>
      <trkpt lat="44.72901" lon="6.69531">
        <ele>2185</ele>
        <time>2018-08-11T11:54:26Z</time>
      </trkpt>
      <trkpt lat="44.72891" lon="6.69529">
        <ele>2184.3</ele>
        <time>2018-08-11T11:54:37Z</time>
      </trkpt>
      <trkpt lat="44.72881" lon="6.69526">
        <ele>2183.8</ele>
        <time>2018-08-11T11:54:51Z</time>
      </trkpt>
      <trkpt lat="44.72873" lon="6.69519">
        <ele>2183.4</ele>
        <time>2018-08-11T11:55:04Z</time>
      </trkpt>
      <trkpt lat="44.72865" lon="6.6951">
        <ele>2183.1</ele>
        <time>2018-08-11T11:55:15Z</time>
      </trkpt>
      <trkpt lat="44.72858" lon="6.69503">
        <ele>2182.7</ele>
        <time>2018-08-11T11:55:23Z</time>
      </trkpt>
      <trkpt lat="44.7285" lon="6.69493">
        <ele>2182.4</ele>
        <time>2018-08-11T11:55:32Z</time>
      </trkpt>
      <trkpt lat="44.72842" lon="6.69485">
        <ele>2182.1</ele>
        <time>2018-08-11T11:55:42Z</time>
      </trkpt>
      <trkpt lat="44.72836" lon="6.69475">
        <ele>2181.7</ele>
        <time>2018-08-11T11:55:51Z</time>
      </trkpt>
      <trkpt lat="44.72829" lon="6.69466">
        <ele>2181.4</ele>
        <time>2018-08-11T11:56:00Z</time>
      </trkpt>
      <trkpt lat="44.72826" lon="6.69454">
        <ele>2181.2</ele>
        <time>2018-08-11T11:56:09Z</time>
      </trkpt>
      <trkpt lat="44.72826" lon="6.69438">
        <ele>2180.2</ele>
        <time>2018-08-11T11:57:03Z</time>
      </trkpt>
      <trkpt lat="44.72824" lon="6.69425">
        <ele>2179.1</ele>
        <time>2018-08-11T11:57:13Z</time>
      </trkpt>
      <trkpt lat="44.72817" lon="6.69413">
        <ele>2177.9</ele>
        <time>2018-08-11T11:57:21Z</time>
      </trkpt>
      <trkpt lat="44.72812" lon="6.69401">
        <ele>2176.9</ele>
        <time>2018-08-11T11:57:27Z</time>
      </trkpt>
      <trkpt lat="44.72805" lon="6.69393">
        <ele>2176.5</ele>
        <time>2018-08-11T11:57:36Z</time>
      </trkpt>
      <trkpt lat="44.72795" lon="6.69396">
        <ele>2176.6</ele>
        <time>2018-08-11T11:57:42Z</time>
      </trkpt>
      <trkpt lat="44.72786" lon="6.69399">
        <ele>2176.9</ele>
        <time>2018-08-11T11:57:47Z</time>
      </trkpt>
      <trkpt lat="44.72776" lon="6.694">
        <ele>2177</ele>
        <time>2018-08-11T11:57:57Z</time>
      </trkpt>
      <trkpt lat="44.72767" lon="6.69399">
        <ele>2176.8</ele>
        <time>2018-08-11T11:58:13Z</time>
      </trkpt>
      <trkpt lat="44.72758" lon="6.69397">
        <ele>2176.3</ele>
        <time>2018-08-11T11:58:26Z</time>
      </trkpt>
      <trkpt lat="44.72748" lon="6.69393">
        <ele>2175.6</ele>
        <time>2018-08-11T11:58:36Z</time>
      </trkpt>
      <trkpt lat="44.72739" lon="6.69394">
        <ele>2174.9</ele>
        <time>2018-08-11T11:58:44Z</time>
      </trkpt>
      <trkpt lat="44.7273" lon="6.69394">
        <ele>2174.2</ele>
        <time>2018-08-11T11:58:49Z</time>
      </trkpt>
      <trkpt lat="44.72721" lon="6.69393">
        <ele>2173.9</ele>
        <time>2018-08-11T11:58:53Z</time>
      </trkpt>
      <trkpt lat="44.7271" lon="6.69391">
        <ele>2173.9</ele>
        <time>2018-08-11T11:58:58Z</time>
      </trkpt>
      <trkpt lat="44.72701" lon="6.69391">
        <ele>2174</ele>
        <time>2018-08-11T11:59:04Z</time>
      </trkpt>
      <trkpt lat="44.72691" lon="6.69391">
        <ele>2174.2</ele>
        <time>2018-08-11T11:59:13Z</time>
      </trkpt>
      <trkpt lat="44.72682" lon="6.69391">
        <ele>2174.4</ele>
        <time>2018-08-11T11:59:18Z</time>
      </trkpt>
      <trkpt lat="44.72672" lon="6.6939">
        <ele>2174.8</ele>
        <time>2018-08-11T11:59:23Z</time>
      </trkpt>
      <trkpt lat="44.72662" lon="6.69391">
        <ele>2175.2</ele>
        <time>2018-08-11T11:59:31Z</time>
      </trkpt>
      <trkpt lat="44.72654" lon="6.69385">
        <ele>2175.5</ele>
        <time>2018-08-11T11:59:43Z</time>
      </trkpt>
      <trkpt lat="44.72645" lon="6.6938">
        <ele>2175.9</ele>
        <time>2018-08-11T11:59:54Z</time>
      </trkpt>
      <trkpt lat="44.72635" lon="6.69378">
        <ele>2176.2</ele>
        <time>2018-08-11T12:00:00Z</time>
      </trkpt>
      <trkpt lat="44.72626" lon="6.69376">
        <ele>2176.4</ele>
        <time>2018-08-11T12:00:06Z</time>
      </trkpt>
      <trkpt lat="44.72616" lon="6.69376">
        <ele>2176.6</ele>
        <time>2018-08-11T12:00:14Z</time>
      </trkpt>
      <trkpt lat="44.72605" lon="6.69376">
        <ele>2176.9</ele>
        <time>2018-08-11T12:00:19Z</time>
      </trkpt>
      <trkpt lat="44.72595" lon="6.6938">
        <ele>2177</ele>
        <time>2018-08-11T12:00:23Z</time>
      </trkpt>
      <trkpt lat="44.72586" lon="6.69383">
        <ele>2176.8</ele>
        <time>2018-08-11T12:00:29Z</time>
      </trkpt>
      <trkpt lat="44.72575" lon="6.69382">
        <ele>2176.5</ele>
        <time>2018-08-11T12:00:36Z</time>
      </trkpt>
      <trkpt lat="44.72565" lon="6.69378">
        <ele>2176</ele>
        <time>2018-08-11T12:00:48Z</time>
      </trkpt>
      <trkpt lat="44.72554" lon="6.69375">
        <ele>2174.8</ele>
        <time>2018-08-11T12:00:53Z</time>
      </trkpt>
      <trkpt lat="44.72545" lon="6.69371">
        <ele>2173.8</ele>
        <time>2018-08-11T12:00:59Z</time>
      </trkpt>
      <trkpt lat="44.72535" lon="6.69369">
        <ele>2172.4</ele>
        <time>2018-08-11T12:01:06Z</time>
      </trkpt>
      <trkpt lat="44.72526" lon="6.69367">
        <ele>2171.1</ele>
        <time>2018-08-11T12:01:12Z</time>
      </trkpt>
      <trkpt lat="44.72515" lon="6.69362">
        <ele>2169.7</ele>
        <time>2018-08-11T12:01:16Z</time>
      </trkpt>
      <trkpt lat="44.72507" lon="6.69355">
        <ele>2168.7</ele>
        <time>2018-08-11T12:01:21Z</time>
      </trkpt>
      <trkpt lat="44.72499" lon="6.69346">
        <ele>2168.1</ele>
        <time>2018-08-11T12:01:29Z</time>
      </trkpt>
      <trkpt lat="44.7249" lon="6.69339">
        <ele>2167.5</ele>
        <time>2018-08-11T12:01:34Z</time>
      </trkpt>
      <trkpt lat="44.72482" lon="6.69331">
        <ele>2167</ele>
        <time>2018-08-11T12:01:39Z</time>
      </trkpt>
      <trkpt lat="44.72474" lon="6.69324">
        <ele>2166.8</ele>
        <time>2018-08-11T12:01:44Z</time>
      </trkpt>
      <trkpt lat="44.72465" lon="6.69322">
        <ele>2166.7</ele>
        <time>2018-08-11T12:01:49Z</time>
      </trkpt>
      <trkpt lat="44.72455" lon="6.69325">
        <ele>2166.9</ele>
        <time>2018-08-11T12:01:54Z</time>
      </trkpt>
      <trkpt lat="44.72445" lon="6.69329">
        <ele>2167.1</ele>
        <time>2018-08-11T12:01:59Z</time>
      </trkpt>
      <trkpt lat="44.72436" lon="6.6933">
        <ele>2167.3</ele>
        <time>2018-08-11T12:02:13Z</time>
      </trkpt>
      <trkpt lat="44.72426" lon="6.69333">
        <ele>2167.8</ele>
        <time>2018-08-11T12:02:22Z</time>
      </trkpt>
      <trkpt lat="44.72416" lon="6.69332">
        <ele>2168.2</ele>
        <time>2018-08-11T12:02:28Z</time>
      </trkpt>
      <trkpt lat="44.72408" lon="6.69326">
        <ele>2168.4</ele>
        <time>2018-08-11T12:02:36Z</time>
      </trkpt>
      <trkpt lat="44.72399" lon="6.69322">
        <ele>2168.3</ele>
        <time>2018-08-11T12:02:43Z</time>
      </trkpt>
      <trkpt lat="44.7239" lon="6.69317">
        <ele>2167.9</ele>
        <time>2018-08-11T12:02:49Z</time>
      </trkpt>
      <trkpt lat="44.72382" lon="6.69312">
        <ele>2167.5</ele>
        <time>2018-08-11T12:02:54Z</time>
      </trkpt>
      <trkpt lat="44.72373" lon="6.69307">
        <ele>2166.7</ele>
        <time>2018-08-11T12:02:59Z</time>
      </trkpt>
      <trkpt lat="44.72364" lon="6.69304">
        <ele>2166.1</ele>
        <time>2018-08-11T12:03:04Z</time>
      </trkpt>
      <trkpt lat="44.72356" lon="6.69296">
        <ele>2165.4</ele>
        <time>2018-08-11T12:03:14Z</time>
      </trkpt>
      <trkpt lat="44.72346" lon="6.69297">
        <ele>2164.5</ele>
        <time>2018-08-11T12:03:20Z</time>
      </trkpt>
      <trkpt lat="44.72337" lon="6.69297">
        <ele>2164</ele>
        <time>2018-08-11T12:03:25Z</time>
      </trkpt>
      <trkpt lat="44.72326" lon="6.69297">
        <ele>2163.4</ele>
        <time>2018-08-11T12:03:29Z</time>
      </trkpt>
      <trkpt lat="44.72317" lon="6.69296">
        <ele>2163.2</ele>
        <time>2018-08-11T12:03:33Z</time>
      </trkpt>
      <trkpt lat="44.72309" lon="6.6929">
        <ele>2163.5</ele>
        <time>2018-08-11T12:03:40Z</time>
      </trkpt>
      <trkpt lat="44.723" lon="6.69284">
        <ele>2163.8</ele>
        <time>2018-08-11T12:03:48Z</time>
      </trkpt>
      <trkpt lat="44.72291" lon="6.69281">
        <ele>2164.3</ele>
        <time>2018-08-11T12:03:53Z</time>
      </trkpt>
      <trkpt lat="44.72282" lon="6.69278">
        <ele>2164.9</ele>
        <time>2018-08-11T12:04:03Z</time>
      </trkpt>
      <trkpt lat="44.72275" lon="6.69268">
        <ele>2166.5</ele>
        <time>2018-08-11T12:04:11Z</time>
      </trkpt>
      <trkpt lat="44.72267" lon="6.69263">
        <ele>2168.8</ele>
        <time>2018-08-11T12:04:18Z</time>
      </trkpt>
      <trkpt lat="44.7226" lon="6.69254">
        <ele>2171.2</ele>
        <time>2018-08-11T12:04:28Z</time>
      </trkpt>
      <trkpt lat="44.72252" lon="6.6925">
        <ele>2173.5</ele>
        <time>2018-08-11T12:04:37Z</time>
      </trkpt>
      <trkpt lat="44.72245" lon="6.69242">
        <ele>2175.4</ele>
        <time>2018-08-11T12:04:46Z</time>
      </trkpt>
      <trkpt lat="44.72236" lon="6.69234">
        <ele>2177.9</ele>
        <time>2018-08-11T12:05:00Z</time>
      </trkpt>
      <trkpt lat="44.72228" lon="6.69228">
        <ele>2179.4</ele>
        <time>2018-08-11T12:05:12Z</time>
      </trkpt>
      <trkpt lat="44.72219" lon="6.69224">
        <ele>2180.1</ele>
        <time>2018-08-11T12:05:24Z</time>
      </trkpt>
      <trkpt lat="44.72213" lon="6.69215">
        <ele>2180.6</ele>
        <time>2018-08-11T12:05:30Z</time>
      </trkpt>
      <trkpt lat="44.72205" lon="6.69208">
        <ele>2181</ele>
        <time>2018-08-11T12:05:37Z</time>
      </trkpt>
      <trkpt lat="44.72196" lon="6.69207">
        <ele>2182</ele>
        <time>2018-08-11T12:05:45Z</time>
      </trkpt>
      <trkpt lat="44.72186" lon="6.69203">
        <ele>2183</ele>
        <time>2018-08-11T12:05:53Z</time>
      </trkpt>
      <trkpt lat="44.72177" lon="6.69199">
        <ele>2183.9</ele>
        <time>2018-08-11T12:06:01Z</time>
      </trkpt>
      <trkpt lat="44.72168" lon="6.69194">
        <ele>2184.6</ele>
        <time>2018-08-11T12:06:10Z</time>
      </trkpt>
      <trkpt lat="44.72159" lon="6.69192">
        <ele>2185.8</ele>
        <time>2018-08-11T12:06:17Z</time>
      </trkpt>
      <trkpt lat="44.7215" lon="6.69191">
        <ele>2187</ele>
        <time>2018-08-11T12:06:24Z</time>
      </trkpt>
      <trkpt lat="44.72141" lon="6.69187">
        <ele>2188</ele>
        <time>2018-08-11T12:06:34Z</time>
      </trkpt>
      <trkpt lat="44.72132" lon="6.69184">
        <ele>2189.5</ele>
        <time>2018-08-11T12:06:42Z</time>
      </trkpt>
      <trkpt lat="44.72124" lon="6.69177">
        <ele>2191.1</ele>
        <time>2018-08-11T12:06:50Z</time>
      </trkpt>
      <trkpt lat="44.72116" lon="6.69171">
        <ele>2192.6</ele>
        <time>2018-08-11T12:06:59Z</time>
      </trkpt>
      <trkpt lat="44.72108" lon="6.69163">
        <ele>2193.8</ele>
        <time>2018-08-11T12:07:07Z</time>
      </trkpt>
      <trkpt lat="44.72103" lon="6.69151">
        <ele>2194.9</ele>
        <time>2018-08-11T12:07:15Z</time>
      </trkpt>
      <trkpt lat="44.72095" lon="6.69143">
        <ele>2196.1</ele>
        <time>2018-08-11T12:07:26Z</time>
      </trkpt>
      <trkpt lat="44.72088" lon="6.69136">
        <ele>2197.5</ele>
        <time>2018-08-11T12:07:37Z</time>
      </trkpt>
      <trkpt lat="44.72084" lon="6.69124">
        <ele>2198</ele>
        <time>2018-08-11T12:07:57Z</time>
      </trkpt>
      <trkpt lat="44.7209" lon="6.69112">
        <ele>2198.4</ele>
        <time>2018-08-11T12:08:05Z</time>
      </trkpt>
      <trkpt lat="44.72096" lon="6.69101">
        <ele>2199.8</ele>
        <time>2018-08-11T12:08:14Z</time>
      </trkpt>
      <trkpt lat="44.72097" lon="6.69087">
        <ele>2201.5</ele>
        <time>2018-08-11T12:08:24Z</time>
      </trkpt>
      <trkpt lat="44.72099" lon="6.69074">
        <ele>2203.2</ele>
        <time>2018-08-11T12:08:32Z</time>
      </trkpt>
      <trkpt lat="44.72103" lon="6.69062">
        <ele>2204.9</ele>
        <time>2018-08-11T12:08:43Z</time>
      </trkpt>
      <trkpt lat="44.72106" lon="6.69049">
        <ele>2206.8</ele>
        <time>2018-08-11T12:08:53Z</time>
      </trkpt>
      <trkpt lat="44.72109" lon="6.69037">
        <ele>2208.4</ele>
        <time>2018-08-11T12:09:01Z</time>
      </trkpt>
      <trkpt lat="44.72109" lon="6.69024">
        <ele>2209.7</ele>
        <time>2018-08-11T12:09:12Z</time>
      </trkpt>
      <trkpt lat="44.72108" lon="6.69012">
        <ele>2211.3</ele>
        <time>2018-08-11T12:09:20Z</time>
      </trkpt>
      <trkpt lat="44.72104" lon="6.69">
        <ele>2212.6</ele>
        <time>2018-08-11T12:09:31Z</time>
      </trkpt>
      <trkpt lat="44.72101" lon="6.68987">
        <ele>2213.7</ele>
        <time>2018-08-11T12:09:41Z</time>
      </trkpt>
      <trkpt lat="44.72102" lon="6.68974">
        <ele>2215.2</ele>
        <time>2018-08-11T12:09:52Z</time>
      </trkpt>
      <trkpt lat="44.72103" lon="6.68962">
        <ele>2216.4</ele>
        <time>2018-08-11T12:10:06Z</time>
      </trkpt>
      <trkpt lat="44.72105" lon="6.68948">
        <ele>2218.3</ele>
        <time>2018-08-11T12:10:16Z</time>
      </trkpt>
      <trkpt lat="44.72105" lon="6.68933">
        <ele>2220.4</ele>
        <time>2018-08-11T12:10:24Z</time>
      </trkpt>
      <trkpt lat="44.72106" lon="6.68919">
        <ele>2222.4</ele>
        <time>2018-08-11T12:10:32Z</time>
      </trkpt>
      <trkpt lat="44.72105" lon="6.68906">
        <ele>2224.5</ele>
        <time>2018-08-11T12:10:42Z</time>
      </trkpt>
      <trkpt lat="44.72107" lon="6.68892">
        <ele>2226.5</ele>
        <time>2018-08-11T12:10:51Z</time>
      </trkpt>
      <trkpt lat="44.72113" lon="6.68881">
        <ele>2228.2</ele>
        <time>2018-08-11T12:11:01Z</time>
      </trkpt>
      <trkpt lat="44.72119" lon="6.6887">
        <ele>2230.5</ele>
        <time>2018-08-11T12:11:09Z</time>
      </trkpt>
      <trkpt lat="44.72125" lon="6.6886">
        <ele>2232.2</ele>
        <time>2018-08-11T12:11:16Z</time>
      </trkpt>
      <trkpt lat="44.72126" lon="6.68846">
        <ele>2234</ele>
        <time>2018-08-11T12:11:28Z</time>
      </trkpt>
      <trkpt lat="44.72128" lon="6.68833">
        <ele>2236.3</ele>
        <time>2018-08-11T12:11:39Z</time>
      </trkpt>
      <trkpt lat="44.7213" lon="6.6882">
        <ele>2238.8</ele>
        <time>2018-08-11T12:11:51Z</time>
      </trkpt>
      <trkpt lat="44.72135" lon="6.68808">
        <ele>2241.6</ele>
        <time>2018-08-11T12:12:00Z</time>
      </trkpt>
      <trkpt lat="44.7214" lon="6.68797">
        <ele>2244.4</ele>
        <time>2018-08-11T12:12:08Z</time>
      </trkpt>
      <trkpt lat="44.72142" lon="6.68783">
        <ele>2246.7</ele>
        <time>2018-08-11T12:12:18Z</time>
      </trkpt>
      <trkpt lat="44.72145" lon="6.6877">
        <ele>2249.7</ele>
        <time>2018-08-11T12:12:25Z</time>
      </trkpt>
      <trkpt lat="44.72149" lon="6.68758">
        <ele>2252.8</ele>
        <time>2018-08-11T12:12:33Z</time>
      </trkpt>
      <trkpt lat="44.72149" lon="6.68744">
        <ele>2255.2</ele>
        <time>2018-08-11T12:12:41Z</time>
      </trkpt>
      <trkpt lat="44.72152" lon="6.68731">
        <ele>2257.9</ele>
        <time>2018-08-11T12:12:52Z</time>
      </trkpt>
      <trkpt lat="44.72159" lon="6.68721">
        <ele>2260.3</ele>
        <time>2018-08-11T12:13:02Z</time>
      </trkpt>
      <trkpt lat="44.72164" lon="6.6871">
        <ele>2262.7</ele>
        <time>2018-08-11T12:13:10Z</time>
      </trkpt>
      <trkpt lat="44.7217" lon="6.68699">
        <ele>2264.8</ele>
        <time>2018-08-11T12:13:16Z</time>
      </trkpt>
      <trkpt lat="44.72176" lon="6.68689">
        <ele>2267.8</ele>
        <time>2018-08-11T12:13:22Z</time>
      </trkpt>
      <trkpt lat="44.72184" lon="6.68679">
        <ele>2270.4</ele>
        <time>2018-08-11T12:13:32Z</time>
      </trkpt>
      <trkpt lat="44.7219" lon="6.68669">
        <ele>2272.5</ele>
        <time>2018-08-11T12:13:42Z</time>
      </trkpt>
      <trkpt lat="44.72196" lon="6.68658">
        <ele>2275.3</ele>
        <time>2018-08-11T12:13:50Z</time>
      </trkpt>
      <trkpt lat="44.72205" lon="6.68651">
        <ele>2277.4</ele>
        <time>2018-08-11T12:13:58Z</time>
      </trkpt>
      <trkpt lat="44.7221" lon="6.68641">
        <ele>2280.4</ele>
        <time>2018-08-11T12:14:10Z</time>
      </trkpt>
      <trkpt lat="44.72212" lon="6.68626">
        <ele>2283.6</ele>
        <time>2018-08-11T12:14:19Z</time>
      </trkpt>
      <trkpt lat="44.72219" lon="6.68612">
        <ele>2288.1</ele>
        <time>2018-08-11T12:14:30Z</time>
      </trkpt>
      <trkpt lat="44.72219" lon="6.68599">
        <ele>2290.8</ele>
        <time>2018-08-11T12:14:47Z</time>
      </trkpt>
      <trkpt lat="44.72225" lon="6.68589">
        <ele>2293.3</ele>
        <time>2018-08-11T12:15:05Z</time>
      </trkpt>
      <trkpt lat="44.72233" lon="6.68582">
        <ele>2296.7</ele>
        <time>2018-08-11T12:15:15Z</time>
      </trkpt>
      <trkpt lat="44.7224" lon="6.68575">
        <ele>2298.9</ele>
        <time>2018-08-11T12:15:23Z</time>
      </trkpt>
      <trkpt lat="44.72248" lon="6.68568">
        <ele>2301.5</ele>
        <time>2018-08-11T12:15:33Z</time>
      </trkpt>
      <trkpt lat="44.72256" lon="6.68563">
        <ele>2303.9</ele>
        <time>2018-08-11T12:15:44Z</time>
      </trkpt>
      <trkpt lat="44.72267" lon="6.68558">
        <ele>2307.4</ele>
        <time>2018-08-11T12:15:53Z</time>
      </trkpt>
      <trkpt lat="44.72276" lon="6.68554">
        <ele>2309.2</ele>
        <time>2018-08-11T12:16:02Z</time>
      </trkpt>
      <trkpt lat="44.72285" lon="6.68546">
        <ele>2311.9</ele>
        <time>2018-08-11T12:16:14Z</time>
      </trkpt>
      <trkpt lat="44.72293" lon="6.68538">
        <ele>2315</ele>
        <time>2018-08-11T12:16:22Z</time>
      </trkpt>
      <trkpt lat="44.72301" lon="6.68532">
        <ele>2316.7</ele>
        <time>2018-08-11T12:16:40Z</time>
      </trkpt>
      <trkpt lat="44.72309" lon="6.68526">
        <ele>2318.9</ele>
        <time>2018-08-11T12:16:53Z</time>
      </trkpt>
      <trkpt lat="44.72317" lon="6.6852">
        <ele>2321</ele>
        <time>2018-08-11T12:17:04Z</time>
      </trkpt>
      <trkpt lat="44.72326" lon="6.68517">
        <ele>2323.8</ele>
        <time>2018-08-11T12:17:16Z</time>
      </trkpt>
      <trkpt lat="44.72328" lon="6.68505">
        <ele>2326.7</ele>
        <time>2018-08-11T12:17:25Z</time>
      </trkpt>
      <trkpt lat="44.72332" lon="6.68492">
        <ele>2330.8</ele>
        <time>2018-08-11T12:17:37Z</time>
      </trkpt>
      <trkpt lat="44.72339" lon="6.68484">
        <ele>2335.3</ele>
        <time>2018-08-11T12:17:50Z</time>
      </trkpt>
      <trkpt lat="44.72343" lon="6.68473">
        <ele>2339</ele>
        <time>2018-08-11T12:18:00Z</time>
      </trkpt>
      <trkpt lat="44.72351" lon="6.68465">
        <ele>2343</ele>
        <time>2018-08-11T12:18:19Z</time>
      </trkpt>
      <trkpt lat="44.72359" lon="6.68458">
        <ele>2343.8</ele>
        <time>2018-08-11T12:18:33Z</time>
      </trkpt>
      <trkpt lat="44.72366" lon="6.68467">
        <ele>2342.5</ele>
        <time>2018-08-11T12:18:45Z</time>
      </trkpt>
      <trkpt lat="44.72374" lon="6.6846">
        <ele>2346.4</ele>
        <time>2018-08-11T12:19:03Z</time>
      </trkpt>
      <trkpt lat="44.72379" lon="6.6845">
        <ele>2350.4</ele>
        <time>2018-08-11T12:19:15Z</time>
      </trkpt>
      <trkpt lat="44.72387" lon="6.68441">
        <ele>2354.7</ele>
        <time>2018-08-11T12:19:27Z</time>
      </trkpt>
      <trkpt lat="44.72396" lon="6.68434">
        <ele>2358</ele>
        <time>2018-08-11T12:19:38Z</time>
      </trkpt>
      <trkpt lat="44.72406" lon="6.6843">
        <ele>2361.2</ele>
        <time>2018-08-11T12:19:46Z</time>
      </trkpt>
      <trkpt lat="44.72415" lon="6.68422">
        <ele>2365.6</ele>
        <time>2018-08-11T12:19:53Z</time>
      </trkpt>
      <trkpt lat="44.72423" lon="6.68427">
        <ele>2362.6</ele>
        <time>2018-08-11T12:20:05Z</time>
      </trkpt>
      <trkpt lat="44.72429" lon="6.68439">
        <ele>2362.4</ele>
        <time>2018-08-11T12:20:14Z</time>
      </trkpt>
      <trkpt lat="44.72437" lon="6.68448">
        <ele>2363.1</ele>
        <time>2018-08-11T12:20:23Z</time>
      </trkpt>
      <trkpt lat="44.72444" lon="6.68457">
        <ele>2365.3</ele>
        <time>2018-08-11T12:20:29Z</time>
      </trkpt>
      <trkpt lat="44.7245" lon="6.68467">
        <ele>2365.3</ele>
        <time>2018-08-11T12:20:38Z</time>
      </trkpt>
      <trkpt lat="44.72456" lon="6.68476">
        <ele>2367.8</ele>
        <time>2018-08-11T12:20:47Z</time>
      </trkpt>
      <trkpt lat="44.72464" lon="6.68485">
        <ele>2371.6</ele>
        <time>2018-08-11T12:20:58Z</time>
      </trkpt>
      <trkpt lat="44.72471" lon="6.68493">
        <ele>2373.9</ele>
        <time>2018-08-11T12:21:09Z</time>
      </trkpt>
      <trkpt lat="44.72479" lon="6.685">
        <ele>2377.5</ele>
        <time>2018-08-11T12:21:19Z</time>
      </trkpt>
      <trkpt lat="44.72488" lon="6.68503">
        <ele>2382.4</ele>
        <time>2018-08-11T12:21:26Z</time>
      </trkpt>
      <trkpt lat="44.72496" lon="6.6851">
        <ele>2386.4</ele>
        <time>2018-08-11T12:21:35Z</time>
      </trkpt>
      <trkpt lat="44.72505" lon="6.68518">
        <ele>2390.3</ele>
        <time>2018-08-11T12:21:43Z</time>
      </trkpt>
      <trkpt lat="44.72514" lon="6.68521">
        <ele>2395.6</ele>
        <time>2018-08-11T12:21:51Z</time>
      </trkpt>
      <trkpt lat="44.72522" lon="6.68514">
        <ele>2399.5</ele>
        <time>2018-08-11T12:21:59Z</time>
      </trkpt>
      <trkpt lat="44.72529" lon="6.68505">
        <ele>2403.7</ele>
        <time>2018-08-11T12:22:10Z</time>
      </trkpt>
      <trkpt lat="44.72537" lon="6.68498">
        <ele>2407.2</ele>
        <time>2018-08-11T12:22:21Z</time>
      </trkpt>
      <trkpt lat="44.72542" lon="6.68487">
        <ele>2410.7</ele>
        <time>2018-08-11T12:22:32Z</time>
      </trkpt>
      <trkpt lat="44.72543" lon="6.68473">
        <ele>2413.5</ele>
        <time>2018-08-11T12:22:41Z</time>
      </trkpt>
      <trkpt lat="44.72546" lon="6.68461">
        <ele>2412.6</ele>
        <time>2018-08-11T12:22:52Z</time>
      </trkpt>
      <trkpt lat="44.7255" lon="6.68448">
        <ele>2415.9</ele>
        <time>2018-08-11T12:23:05Z</time>
      </trkpt>
      <trkpt lat="44.72553" lon="6.68435">
        <ele>2418.6</ele>
        <time>2018-08-11T12:23:18Z</time>
      </trkpt>
      <trkpt lat="44.72553" lon="6.68421">
        <ele>2421.6</ele>
        <time>2018-08-11T12:23:33Z</time>
      </trkpt>
      <trkpt lat="44.72555" lon="6.68408">
        <ele>2423.7</ele>
        <time>2018-08-11T12:23:45Z</time>
      </trkpt>
      <trkpt lat="44.72554" lon="6.68394">
        <ele>2426.4</ele>
        <time>2018-08-11T12:23:57Z</time>
      </trkpt>
      <trkpt lat="44.72551" lon="6.6838">
        <ele>2428.1</ele>
        <time>2018-08-11T12:24:05Z</time>
      </trkpt>
      <trkpt lat="44.7255" lon="6.68366">
        <ele>2429.2</ele>
        <time>2018-08-11T12:24:13Z</time>
      </trkpt>
      <trkpt lat="44.72551" lon="6.68354">
        <ele>2431.2</ele>
        <time>2018-08-11T12:24:24Z</time>
      </trkpt>
      <trkpt lat="44.72554" lon="6.68341">
        <ele>2435.9</ele>
        <time>2018-08-11T12:24:34Z</time>
      </trkpt>
      <trkpt lat="44.72554" lon="6.68327">
        <ele>2439.8</ele>
        <time>2018-08-11T12:24:45Z</time>
      </trkpt>
      <trkpt lat="44.72554" lon="6.68314">
        <ele>2440.9</ele>
        <time>2018-08-11T12:24:56Z</time>
      </trkpt>
      <trkpt lat="44.72553" lon="6.68301">
        <ele>2443.7</ele>
        <time>2018-08-11T12:25:08Z</time>
      </trkpt>
      <trkpt lat="44.72547" lon="6.68291">
        <ele>2443.5</ele>
        <time>2018-08-11T12:25:22Z</time>
      </trkpt>
      <trkpt lat="44.7254" lon="6.68282">
        <ele>2442.8</ele>
        <time>2018-08-11T12:25:35Z</time>
      </trkpt>
      <trkpt lat="44.72533" lon="6.68272">
        <ele>2441.2</ele>
        <time>2018-08-11T12:25:45Z</time>
      </trkpt>
      <trkpt lat="44.72528" lon="6.68261">
        <ele>2441.6</ele>
        <time>2018-08-11T12:25:55Z</time>
      </trkpt>
      <trkpt lat="44.72523" lon="6.68249">
        <ele>2443.1</ele>
        <time>2018-08-11T12:26:04Z</time>
      </trkpt>
      <trkpt lat="44.7252" lon="6.68236">
        <ele>2443.8</ele>
        <time>2018-08-11T12:26:15Z</time>
      </trkpt>
      <trkpt lat="44.72516" lon="6.68223">
        <ele>2445</ele>
        <time>2018-08-11T12:26:34Z</time>
      </trkpt>
      <trkpt lat="44.7251" lon="6.68213">
        <ele>2446.3</ele>
        <time>2018-08-11T12:26:43Z</time>
      </trkpt>
      <trkpt lat="44.72506" lon="6.68201">
        <ele>2447.9</ele>
        <time>2018-08-11T12:26:55Z</time>
      </trkpt>
      <trkpt lat="44.72501" lon="6.68188">
        <ele>2449.2</ele>
        <time>2018-08-11T12:27:07Z</time>
      </trkpt>
      <trkpt lat="44.72501" lon="6.68175">
        <ele>2450.7</ele>
        <time>2018-08-11T12:27:15Z</time>
      </trkpt>
      <trkpt lat="44.725" lon="6.68162">
        <ele>2452.2</ele>
        <time>2018-08-11T12:27:25Z</time>
      </trkpt>
      <trkpt lat="44.72497" lon="6.68149">
        <ele>2453.3</ele>
        <time>2018-08-11T12:27:37Z</time>
      </trkpt>
      <trkpt lat="44.72495" lon="6.68136">
        <ele>2454.2</ele>
        <time>2018-08-11T12:27:49Z</time>
      </trkpt>
      <trkpt lat="44.7249" lon="6.68124">
        <ele>2455.3</ele>
        <time>2018-08-11T12:28:01Z</time>
      </trkpt>
      <trkpt lat="44.72492" lon="6.68111">
        <ele>2456</ele>
        <time>2018-08-11T12:28:12Z</time>
      </trkpt>
      <trkpt lat="44.72494" lon="6.68099">
        <ele>2456.6</ele>
        <time>2018-08-11T12:28:20Z</time>
      </trkpt>
      <trkpt lat="44.72493" lon="6.68086">
        <ele>2456.6</ele>
        <time>2018-08-11T12:28:30Z</time>
      </trkpt>
      <trkpt lat="44.72489" lon="6.68074">
        <ele>2456.2</ele>
        <time>2018-08-11T12:28:47Z</time>
      </trkpt>
      <trkpt lat="44.72485" lon="6.68062">
        <ele>2455.4</ele>
        <time>2018-08-11T12:29:04Z</time>
      </trkpt>
      <trkpt lat="44.72486" lon="6.68049">
        <ele>2455</ele>
        <time>2018-08-11T12:29:15Z</time>
      </trkpt>
      <trkpt lat="44.72495" lon="6.68044">
        <ele>2454.8</ele>
        <time>2018-08-11T12:29:46Z</time>
      </trkpt>
      <trkpt lat="44.72505" lon="6.68044">
        <ele>2455.9</ele>
        <time>2018-08-11T12:30:03Z</time>
      </trkpt>
      <trkpt lat="44.72514" lon="6.68048">
        <ele>2457.7</ele>
        <time>2018-08-11T12:30:19Z</time>
      </trkpt>
      <trkpt lat="44.72523" lon="6.68048">
        <ele>2459.8</ele>
        <time>2018-08-11T12:30:40Z</time>
      </trkpt>
      <trkpt lat="44.72531" lon="6.68054">
        <ele>2463.2</ele>
        <time>2018-08-11T12:31:00Z</time>
      </trkpt>
      <trkpt lat="44.7254" lon="6.6805">
        <ele>2466.2</ele>
        <time>2018-08-11T12:31:23Z</time>
      </trkpt>
      <trkpt lat="44.72548" lon="6.68055">
        <ele>2469.7</ele>
        <time>2018-08-11T12:31:55Z</time>
      </trkpt>
      <trkpt lat="44.72557" lon="6.68051">
        <ele>2474.8</ele>
        <time>2018-08-11T12:33:06Z</time>
      </trkpt>
      <trkpt lat="44.72566" lon="6.68047">
        <ele>2480.3</ele>
        <time>2018-08-11T12:33:57Z</time>
      </trkpt>
      <trkpt lat="44.72574" lon="6.68054">
        <ele>2487.4</ele>
        <time>2018-08-11T12:34:19Z</time>
      </trkpt>
      <trkpt lat="44.72583" lon="6.68057">
        <ele>2495.3</ele>
        <time>2018-08-11T12:35:11Z</time>
      </trkpt>
      <trkpt lat="44.72581" lon="6.68044">
        <ele>2491.1</ele>
        <time>2018-08-11T12:40:26Z</time>
      </trkpt>
      <trkpt lat="44.72571" lon="6.68045">
        <ele>2484.1</ele>
        <time>2018-08-11T12:40:40Z</time>
      </trkpt>
      <trkpt lat="44.72562" lon="6.68046">
        <ele>2477.9</ele>
        <time>2018-08-11T12:40:57Z</time>
      </trkpt>
      <trkpt lat="44.72554" lon="6.68052">
        <ele>2473</ele>
        <time>2018-08-11T12:41:18Z</time>
      </trkpt>
      <trkpt lat="44.72545" lon="6.68052">
        <ele>2468</ele>
        <time>2018-08-11T12:41:35Z</time>
      </trkpt>
      <trkpt lat="44.72536" lon="6.68051">
        <ele>2464.5</ele>
        <time>2018-08-11T12:41:46Z</time>
      </trkpt>
      <trkpt lat="44.72527" lon="6.68051">
        <ele>2461.3</ele>
        <time>2018-08-11T12:42:01Z</time>
      </trkpt>
      <trkpt lat="44.72518" lon="6.68046">
        <ele>2458.6</ele>
        <time>2018-08-11T12:42:14Z</time>
      </trkpt>
      <trkpt lat="44.72509" lon="6.6804">
        <ele>2456.8</ele>
        <time>2018-08-11T12:42:26Z</time>
      </trkpt>
      <trkpt lat="44.72501" lon="6.68046">
        <ele>2455.8</ele>
        <time>2018-08-11T12:42:40Z</time>
      </trkpt>
      <trkpt lat="44.72492" lon="6.68044">
        <ele>2455</ele>
        <time>2018-08-11T12:42:52Z</time>
      </trkpt>
      <trkpt lat="44.72483" lon="6.68047">
        <ele>2454.8</ele>
        <time>2018-08-11T12:43:09Z</time>
      </trkpt>
      <trkpt lat="44.72474" lon="6.68044">
        <ele>2454.6</ele>
        <time>2018-08-11T12:43:21Z</time>
      </trkpt>
      <trkpt lat="44.72474" lon="6.68031">
        <ele>2453.3</ele>
        <time>2018-08-11T12:43:36Z</time>
      </trkpt>
      <trkpt lat="44.72479" lon="6.6802">
        <ele>2451.8</ele>
        <time>2018-08-11T12:45:36Z</time>
      </trkpt>
      <trkpt lat="44.72478" lon="6.68033">
        <ele>2453.5</ele>
        <time>2018-08-11T12:47:10Z</time>
      </trkpt>
      <trkpt lat="44.72484" lon="6.68041">
        <ele>2454.7</ele>
        <time>2018-08-11T12:47:49Z</time>
      </trkpt>
      <trkpt lat="44.72488" lon="6.68053">
        <ele>2455.1</ele>
        <time>2018-08-11T12:48:01Z</time>
      </trkpt>
      <trkpt lat="44.72492" lon="6.68066">
        <ele>2455.6</ele>
        <time>2018-08-11T12:48:19Z</time>
      </trkpt>
      <trkpt lat="44.72494" lon="6.6808">
        <ele>2456.4</ele>
        <time>2018-08-11T12:48:29Z</time>
      </trkpt>
      <trkpt lat="44.72494" lon="6.68092">
        <ele>2456.6</ele>
        <time>2018-08-11T12:48:42Z</time>
      </trkpt>
      <trkpt lat="44.72493" lon="6.68106">
        <ele>2456.5</ele>
        <time>2018-08-11T12:48:48Z</time>
      </trkpt>
      <trkpt lat="44.72494" lon="6.6812">
        <ele>2455.6</ele>
        <time>2018-08-11T12:48:54Z</time>
      </trkpt>
      <trkpt lat="44.72495" lon="6.68133">
        <ele>2454.7</ele>
        <time>2018-08-11T12:49:01Z</time>
      </trkpt>
      <trkpt lat="44.72495" lon="6.68146">
        <ele>2453.6</ele>
        <time>2018-08-11T12:49:07Z</time>
      </trkpt>
      <trkpt lat="44.72494" lon="6.68159">
        <ele>2452.6</ele>
        <time>2018-08-11T12:49:21Z</time>
      </trkpt>
      <trkpt lat="44.72499" lon="6.68172">
        <ele>2451</ele>
        <time>2018-08-11T12:49:26Z</time>
      </trkpt>
      <trkpt lat="44.725" lon="6.68184">
        <ele>2449.4</ele>
        <time>2018-08-11T12:49:30Z</time>
      </trkpt>
      <trkpt lat="44.72499" lon="6.68197">
        <ele>2448.4</ele>
        <time>2018-08-11T12:49:36Z</time>
      </trkpt>
      <trkpt lat="44.72497" lon="6.6821">
        <ele>2446.7</ele>
        <time>2018-08-11T12:49:52Z</time>
      </trkpt>
      <trkpt lat="44.72497" lon="6.68223">
        <ele>2445.2</ele>
        <time>2018-08-11T12:50:02Z</time>
      </trkpt>
      <trkpt lat="44.725" lon="6.68236">
        <ele>2444</ele>
        <time>2018-08-11T12:50:11Z</time>
      </trkpt>
      <trkpt lat="44.72503" lon="6.68249">
        <ele>2443.3</ele>
        <time>2018-08-11T12:50:18Z</time>
      </trkpt>
      <trkpt lat="44.72507" lon="6.68261">
        <ele>2441.7</ele>
        <time>2018-08-11T12:50:25Z</time>
      </trkpt>
      <trkpt lat="44.72513" lon="6.68271">
        <ele>2441.1</ele>
        <time>2018-08-11T12:50:29Z</time>
      </trkpt>
      <trkpt lat="44.72519" lon="6.68282">
        <ele>2442.6</ele>
        <time>2018-08-11T12:50:39Z</time>
      </trkpt>
      <trkpt lat="44.72525" lon="6.68293">
        <ele>2443.5</ele>
        <time>2018-08-11T12:50:45Z</time>
      </trkpt>
      <trkpt lat="44.72526" lon="6.68306">
        <ele>2443.7</ele>
        <time>2018-08-11T12:50:54Z</time>
      </trkpt>
      <trkpt lat="44.72525" lon="6.68318">
        <ele>2440.9</ele>
        <time>2018-08-11T12:51:01Z</time>
      </trkpt>
      <trkpt lat="44.72525" lon="6.68333">
        <ele>2438.8</ele>
        <time>2018-08-11T12:51:07Z</time>
      </trkpt>
      <trkpt lat="44.72525" lon="6.6835">
        <ele>2433.8</ele>
        <time>2018-08-11T12:51:16Z</time>
      </trkpt>
      <trkpt lat="44.72524" lon="6.68364">
        <ele>2429.9</ele>
        <time>2018-08-11T12:51:23Z</time>
      </trkpt>
      <trkpt lat="44.72522" lon="6.68376">
        <ele>2428.5</ele>
        <time>2018-08-11T12:51:29Z</time>
      </trkpt>
      <trkpt lat="44.72523" lon="6.68391">
        <ele>2427.2</ele>
        <time>2018-08-11T12:51:36Z</time>
      </trkpt>
      <trkpt lat="44.72525" lon="6.68403">
        <ele>2425</ele>
        <time>2018-08-11T12:51:42Z</time>
      </trkpt>
      <trkpt lat="44.72528" lon="6.68416">
        <ele>2422.7</ele>
        <time>2018-08-11T12:51:49Z</time>
      </trkpt>
      <trkpt lat="44.72529" lon="6.6843">
        <ele>2419</ele>
        <time>2018-08-11T12:51:55Z</time>
      </trkpt>
      <trkpt lat="44.7253" lon="6.68444">
        <ele>2416.9</ele>
        <time>2018-08-11T12:52:02Z</time>
      </trkpt>
      <trkpt lat="44.72529" lon="6.68458">
        <ele>2412.7</ele>
        <time>2018-08-11T12:52:13Z</time>
      </trkpt>
      <trkpt lat="44.72525" lon="6.68471">
        <ele>2413.5</ele>
        <time>2018-08-11T12:52:24Z</time>
      </trkpt>
      <trkpt lat="44.72521" lon="6.68483">
        <ele>2411</ele>
        <time>2018-08-11T12:52:35Z</time>
      </trkpt>
      <trkpt lat="44.72521" lon="6.68497">
        <ele>2407.2</ele>
        <time>2018-08-11T12:52:47Z</time>
      </trkpt>
      <trkpt lat="44.7252" lon="6.6851">
        <ele>2403.4</ele>
        <time>2018-08-11T12:52:55Z</time>
      </trkpt>
      <trkpt lat="44.72516" lon="6.68522">
        <ele>2399.1</ele>
        <time>2018-08-11T12:53:04Z</time>
      </trkpt>
      <trkpt lat="44.72509" lon="6.68533">
        <ele>2393.8</ele>
        <time>2018-08-11T12:53:14Z</time>
      </trkpt>
      <trkpt lat="44.72502" lon="6.68542">
        <ele>2389.2</ele>
        <time>2018-08-11T12:53:21Z</time>
      </trkpt>
      <trkpt lat="44.72493" lon="6.68547">
        <ele>2385.6</ele>
        <time>2018-08-11T12:53:34Z</time>
      </trkpt>
      <trkpt lat="44.72484" lon="6.68543">
        <ele>2381.1</ele>
        <time>2018-08-11T12:53:45Z</time>
      </trkpt>
      <trkpt lat="44.72474" lon="6.6854">
        <ele>2375.4</ele>
        <time>2018-08-11T12:53:51Z</time>
      </trkpt>
      <trkpt lat="44.72464" lon="6.68536">
        <ele>2373</ele>
        <time>2018-08-11T12:53:57Z</time>
      </trkpt>
      <trkpt lat="44.72456" lon="6.68532">
        <ele>2369.5</ele>
        <time>2018-08-11T12:54:06Z</time>
      </trkpt>
      <trkpt lat="44.72446" lon="6.68529">
        <ele>2365.7</ele>
        <time>2018-08-11T12:54:15Z</time>
      </trkpt>
      <trkpt lat="44.72436" lon="6.68524">
        <ele>2365.5</ele>
        <time>2018-08-11T12:54:20Z</time>
      </trkpt>
      <trkpt lat="44.72431" lon="6.68513">
        <ele>2363.5</ele>
        <time>2018-08-11T12:54:26Z</time>
      </trkpt>
      <trkpt lat="44.72423" lon="6.68506">
        <ele>2362.4</ele>
        <time>2018-08-11T12:54:34Z</time>
      </trkpt>
      <trkpt lat="44.72414" lon="6.685">
        <ele>2362.5</ele>
        <time>2018-08-11T12:54:38Z</time>
      </trkpt>
      <trkpt lat="44.72406" lon="6.68492">
        <ele>2365.6</ele>
        <time>2018-08-11T12:54:43Z</time>
      </trkpt>
      <trkpt lat="44.72399" lon="6.68483">
        <ele>2361.6</ele>
        <time>2018-08-11T12:54:53Z</time>
      </trkpt>
      <trkpt lat="44.72388" lon="6.68487">
        <ele>2358</ele>
        <time>2018-08-11T12:55:02Z</time>
      </trkpt>
      <trkpt lat="44.72379" lon="6.6849">
        <ele>2354.8</ele>
        <time>2018-08-11T12:55:07Z</time>
      </trkpt>
      <trkpt lat="44.72369" lon="6.68494">
        <ele>2350.2</ele>
        <time>2018-08-11T12:55:12Z</time>
      </trkpt>
      <trkpt lat="44.72361" lon="6.68499">
        <ele>2346.2</ele>
        <time>2018-08-11T12:55:20Z</time>
      </trkpt>
      <trkpt lat="44.72354" lon="6.68509">
        <ele>2341.9</ele>
        <time>2018-08-11T12:55:30Z</time>
      </trkpt>
      <trkpt lat="44.72349" lon="6.6852">
        <ele>2337.4</ele>
        <time>2018-08-11T12:55:41Z</time>
      </trkpt>
      <trkpt lat="44.72344" lon="6.68531">
        <ele>2334</ele>
        <time>2018-08-11T12:55:54Z</time>
      </trkpt>
      <trkpt lat="44.72336" lon="6.68539">
        <ele>2330.4</ele>
        <time>2018-08-11T12:56:06Z</time>
      </trkpt>
      <trkpt lat="44.72329" lon="6.68549">
        <ele>2325.4</ele>
        <time>2018-08-11T12:56:19Z</time>
      </trkpt>
      <trkpt lat="44.72322" lon="6.68558">
        <ele>2321.5</ele>
        <time>2018-08-11T12:56:26Z</time>
      </trkpt>
      <trkpt lat="44.72315" lon="6.68567">
        <ele>2318.7</ele>
        <time>2018-08-11T12:56:34Z</time>
      </trkpt>
      <trkpt lat="44.72308" lon="6.68576">
        <ele>2315.7</ele>
        <time>2018-08-11T12:56:41Z</time>
      </trkpt>
      <trkpt lat="44.723" lon="6.6858">
        <ele>2312.5</ele>
        <time>2018-08-11T12:56:46Z</time>
      </trkpt>
      <trkpt lat="44.7229" lon="6.68581">
        <ele>2310.3</ele>
        <time>2018-08-11T12:56:58Z</time>
      </trkpt>
      <trkpt lat="44.72281" lon="6.68586">
        <ele>2306.9</ele>
        <time>2018-08-11T12:57:10Z</time>
      </trkpt>
      <trkpt lat="44.72272" lon="6.68591">
        <ele>2303.5</ele>
        <time>2018-08-11T12:57:23Z</time>
      </trkpt>
      <trkpt lat="44.72265" lon="6.68598">
        <ele>2299.5</ele>
        <time>2018-08-11T12:57:31Z</time>
      </trkpt>
      <trkpt lat="44.72256" lon="6.68602">
        <ele>2297.1</ele>
        <time>2018-08-11T12:57:39Z</time>
      </trkpt>
      <trkpt lat="44.72246" lon="6.68605">
        <ele>2293.4</ele>
        <time>2018-08-11T12:57:46Z</time>
      </trkpt>
      <trkpt lat="44.72237" lon="6.68609">
        <ele>2290.8</ele>
        <time>2018-08-11T12:57:52Z</time>
      </trkpt>
      <trkpt lat="44.72227" lon="6.68612">
        <ele>2289.4</ele>
        <time>2018-08-11T12:57:57Z</time>
      </trkpt>
      <trkpt lat="44.72218" lon="6.68617">
        <ele>2286.3</ele>
        <time>2018-08-11T12:58:02Z</time>
      </trkpt>
      <trkpt lat="44.72208" lon="6.68623">
        <ele>2284.3</ele>
        <time>2018-08-11T12:58:08Z</time>
      </trkpt>
      <trkpt lat="44.722" lon="6.68628">
        <ele>2281.7</ele>
        <time>2018-08-11T12:58:13Z</time>
      </trkpt>
      <trkpt lat="44.72191" lon="6.68636">
        <ele>2279.2</ele>
        <time>2018-08-11T12:58:21Z</time>
      </trkpt>
      <trkpt lat="44.72182" lon="6.68641">
        <ele>2277.9</ele>
        <time>2018-08-11T12:58:26Z</time>
      </trkpt>
      <trkpt lat="44.72174" lon="6.68647">
        <ele>2275.2</ele>
        <time>2018-08-11T12:58:34Z</time>
      </trkpt>
      <trkpt lat="44.7217" lon="6.68658">
        <ele>2272.4</ele>
        <time>2018-08-11T12:58:43Z</time>
      </trkpt>
      <trkpt lat="44.72165" lon="6.68669">
        <ele>2270.2</ele>
        <time>2018-08-11T12:58:48Z</time>
      </trkpt>
      <trkpt lat="44.72158" lon="6.68678">
        <ele>2267.7</ele>
        <time>2018-08-11T12:58:53Z</time>
      </trkpt>
      <trkpt lat="44.72154" lon="6.6869">
        <ele>2265.5</ele>
        <time>2018-08-11T12:58:59Z</time>
      </trkpt>
      <trkpt lat="44.7215" lon="6.68702">
        <ele>2263.4</ele>
        <time>2018-08-11T12:59:07Z</time>
      </trkpt>
      <trkpt lat="44.72141" lon="6.68705">
        <ele>2261.3</ele>
        <time>2018-08-11T12:59:13Z</time>
      </trkpt>
      <trkpt lat="44.72133" lon="6.68713">
        <ele>2259.2</ele>
        <time>2018-08-11T12:59:20Z</time>
      </trkpt>
      <trkpt lat="44.72129" lon="6.68724">
        <ele>2257.1</ele>
        <time>2018-08-11T12:59:26Z</time>
      </trkpt>
      <trkpt lat="44.72125" lon="6.68736">
        <ele>2255</ele>
        <time>2018-08-11T12:59:33Z</time>
      </trkpt>
      <trkpt lat="44.72118" lon="6.68748">
        <ele>2252.2</ele>
        <time>2018-08-11T12:59:38Z</time>
      </trkpt>
      <trkpt lat="44.72112" lon="6.68758">
        <ele>2249.9</ele>
        <time>2018-08-11T12:59:45Z</time>
      </trkpt>
      <trkpt lat="44.72106" lon="6.68768">
        <ele>2247.4</ele>
        <time>2018-08-11T12:59:53Z</time>
      </trkpt>
      <trkpt lat="44.72099" lon="6.68779">
        <ele>2244.8</ele>
        <time>2018-08-11T13:00:03Z</time>
      </trkpt>
      <trkpt lat="44.72097" lon="6.68792">
        <ele>2242.9</ele>
        <time>2018-08-11T13:00:11Z</time>
      </trkpt>
      <trkpt lat="44.72098" lon="6.68805">
        <ele>2240.2</ele>
        <time>2018-08-11T13:00:17Z</time>
      </trkpt>
      <trkpt lat="44.72094" lon="6.68817">
        <ele>2238</ele>
        <time>2018-08-11T13:00:24Z</time>
      </trkpt>
      <trkpt lat="44.72091" lon="6.6883">
        <ele>2235.3</ele>
        <time>2018-08-11T13:00:30Z</time>
      </trkpt>
      <trkpt lat="44.72088" lon="6.68845">
        <ele>2233.1</ele>
        <time>2018-08-11T13:00:38Z</time>
      </trkpt>
      <trkpt lat="44.72084" lon="6.68857">
        <ele>2231.4</ele>
        <time>2018-08-11T13:00:45Z</time>
      </trkpt>
      <trkpt lat="44.72084" lon="6.68871">
        <ele>2229.1</ele>
        <time>2018-08-11T13:00:54Z</time>
      </trkpt>
      <trkpt lat="44.72085" lon="6.68885">
        <ele>2227.5</ele>
        <time>2018-08-11T13:01:02Z</time>
      </trkpt>
      <trkpt lat="44.72089" lon="6.68897">
        <ele>2225.5</ele>
        <time>2018-08-11T13:01:11Z</time>
      </trkpt>
      <trkpt lat="44.72089" lon="6.68911">
        <ele>2223.4</ele>
        <time>2018-08-11T13:01:16Z</time>
      </trkpt>
      <trkpt lat="44.72083" lon="6.68921">
        <ele>2221.4</ele>
        <time>2018-08-11T13:01:23Z</time>
      </trkpt>
      <trkpt lat="44.72077" lon="6.68931">
        <ele>2219.6</ele>
        <time>2018-08-11T13:01:32Z</time>
      </trkpt>
      <trkpt lat="44.72078" lon="6.68944">
        <ele>2217.6</ele>
        <time>2018-08-11T13:01:48Z</time>
      </trkpt>
      <trkpt lat="44.72077" lon="6.68958">
        <ele>2215.8</ele>
        <time>2018-08-11T13:01:54Z</time>
      </trkpt>
      <trkpt lat="44.72077" lon="6.68971">
        <ele>2214.7</ele>
        <time>2018-08-11T13:02:05Z</time>
      </trkpt>
      <trkpt lat="44.7208" lon="6.68984">
        <ele>2213.1</ele>
        <time>2018-08-11T13:02:23Z</time>
      </trkpt>
      <trkpt lat="44.72081" lon="6.68997">
        <ele>2212</ele>
        <time>2018-08-11T13:02:29Z</time>
      </trkpt>
      <trkpt lat="44.72085" lon="6.6901">
        <ele>2210.2</ele>
        <time>2018-08-11T13:02:36Z</time>
      </trkpt>
      <trkpt lat="44.72092" lon="6.69019">
        <ele>2209.1</ele>
        <time>2018-08-11T13:02:46Z</time>
      </trkpt>
      <trkpt lat="44.72095" lon="6.69032">
        <ele>2207.3</ele>
        <time>2018-08-11T13:02:59Z</time>
      </trkpt>
      <trkpt lat="44.72095" lon="6.69045">
        <ele>2205.6</ele>
        <time>2018-08-11T13:03:06Z</time>
      </trkpt>
      <trkpt lat="44.72095" lon="6.69058">
        <ele>2203.7</ele>
        <time>2018-08-11T13:03:12Z</time>
      </trkpt>
      <trkpt lat="44.72095" lon="6.69072">
        <ele>2201.9</ele>
        <time>2018-08-11T13:03:25Z</time>
      </trkpt>
      <trkpt lat="44.72093" lon="6.69085">
        <ele>2200.3</ele>
        <time>2018-08-11T13:03:40Z</time>
      </trkpt>
      <trkpt lat="44.72089" lon="6.69098">
        <ele>2198.8</ele>
        <time>2018-08-11T13:03:51Z</time>
      </trkpt>
      <trkpt lat="44.72093" lon="6.69109">
        <ele>2198</ele>
        <time>2018-08-11T13:04:04Z</time>
      </trkpt>
      <trkpt lat="44.72099" lon="6.69119">
        <ele>2196.6</ele>
        <time>2018-08-11T13:04:11Z</time>
      </trkpt>
      <trkpt lat="44.72106" lon="6.69128">
        <ele>2195.2</ele>
        <time>2018-08-11T13:04:15Z</time>
      </trkpt>
      <trkpt lat="44.72111" lon="6.6914">
        <ele>2194</ele>
        <time>2018-08-11T13:04:19Z</time>
      </trkpt>
      <trkpt lat="44.72116" lon="6.69151">
        <ele>2193.2</ele>
        <time>2018-08-11T13:04:23Z</time>
      </trkpt>
      <trkpt lat="44.72124" lon="6.69159">
        <ele>2191.5</ele>
        <time>2018-08-11T13:04:28Z</time>
      </trkpt>
      <trkpt lat="44.7213" lon="6.69168">
        <ele>2190.1</ele>
        <time>2018-08-11T13:04:33Z</time>
      </trkpt>
      <trkpt lat="44.72138" lon="6.69176">
        <ele>2188.6</ele>
        <time>2018-08-11T13:04:48Z</time>
      </trkpt>
      <trkpt lat="44.72147" lon="6.69185">
        <ele>2187.2</ele>
        <time>2018-08-11T13:04:53Z</time>
      </trkpt>
      <trkpt lat="44.72156" lon="6.69189">
        <ele>2186.2</ele>
        <time>2018-08-11T13:04:57Z</time>
      </trkpt>
      <trkpt lat="44.72165" lon="6.69193">
        <ele>2184.9</ele>
        <time>2018-08-11T13:05:04Z</time>
      </trkpt>
      <trkpt lat="44.72174" lon="6.69197">
        <ele>2184.1</ele>
        <time>2018-08-11T13:05:22Z</time>
      </trkpt>
      <trkpt lat="44.72183" lon="6.69202">
        <ele>2183.2</ele>
        <time>2018-08-11T13:05:30Z</time>
      </trkpt>
      <trkpt lat="44.72191" lon="6.69207">
        <ele>2182.3</ele>
        <time>2018-08-11T13:05:35Z</time>
      </trkpt>
      <trkpt lat="44.72201" lon="6.69211">
        <ele>2181.4</ele>
        <time>2018-08-11T13:05:40Z</time>
      </trkpt>
      <trkpt lat="44.72211" lon="6.69212">
        <ele>2180.7</ele>
        <time>2018-08-11T13:05:45Z</time>
      </trkpt>
      <trkpt lat="44.7222" lon="6.69217">
        <ele>2180.2</ele>
        <time>2018-08-11T13:05:50Z</time>
      </trkpt>
      <trkpt lat="44.72228" lon="6.69225">
        <ele>2179.6</ele>
        <time>2018-08-11T13:05:55Z</time>
      </trkpt>
      <trkpt lat="44.72235" lon="6.69234">
        <ele>2178.2</ele>
        <time>2018-08-11T13:06:00Z</time>
      </trkpt>
      <trkpt lat="44.72245" lon="6.69237">
        <ele>2176.2</ele>
        <time>2018-08-11T13:06:07Z</time>
      </trkpt>
      <trkpt lat="44.72253" lon="6.69243">
        <ele>2173.9</ele>
        <time>2018-08-11T13:06:15Z</time>
      </trkpt>
      <trkpt lat="44.72262" lon="6.69249">
        <ele>2171.7</ele>
        <time>2018-08-11T13:06:26Z</time>
      </trkpt>
      <trkpt lat="44.72271" lon="6.69258">
        <ele>2169.1</ele>
        <time>2018-08-11T13:06:32Z</time>
      </trkpt>
      <trkpt lat="44.72279" lon="6.69266">
        <ele>2166.5</ele>
        <time>2018-08-11T13:06:37Z</time>
      </trkpt>
      <trkpt lat="44.72284" lon="6.69279">
        <ele>2164.8</ele>
        <time>2018-08-11T13:06:47Z</time>
      </trkpt>
      <trkpt lat="44.72291" lon="6.69289">
        <ele>2164.3</ele>
        <time>2018-08-11T13:06:52Z</time>
      </trkpt>
      <trkpt lat="44.72299" lon="6.69296">
        <ele>2161.8</ele>
        <time>2018-08-11T13:06:56Z</time>
      </trkpt>
      <trkpt lat="44.72307" lon="6.69302">
        <ele>2160.8</ele>
        <time>2018-08-11T13:07:00Z</time>
      </trkpt>
      <trkpt lat="44.72316" lon="6.69307">
        <ele>2160.1</ele>
        <time>2018-08-11T13:07:07Z</time>
      </trkpt>
      <trkpt lat="44.72325" lon="6.69311">
        <ele>2159.2</ele>
        <time>2018-08-11T13:07:19Z</time>
      </trkpt>
      <trkpt lat="44.72333" lon="6.69319">
        <ele>2156.5</ele>
        <time>2018-08-11T13:07:32Z</time>
      </trkpt>
      <trkpt lat="44.72342" lon="6.69323">
        <ele>2155.9</ele>
        <time>2018-08-11T13:07:39Z</time>
      </trkpt>
      <trkpt lat="44.72352" lon="6.69323">
        <ele>2157.4</ele>
        <time>2018-08-11T13:07:46Z</time>
      </trkpt>
      <trkpt lat="44.72361" lon="6.69326">
        <ele>2156.9</ele>
        <time>2018-08-11T13:07:55Z</time>
      </trkpt>
      <trkpt lat="44.72369" lon="6.69335">
        <ele>2154</ele>
        <time>2018-08-11T13:08:01Z</time>
      </trkpt>
      <trkpt lat="44.72377" lon="6.6934">
        <ele>2153.5</ele>
        <time>2018-08-11T13:08:09Z</time>
      </trkpt>
      <trkpt lat="44.72387" lon="6.69346">
        <ele>2153.2</ele>
        <time>2018-08-11T13:08:16Z</time>
      </trkpt>
      <trkpt lat="44.72396" lon="6.69348">
        <ele>2153.7</ele>
        <time>2018-08-11T13:08:22Z</time>
      </trkpt>
      <trkpt lat="44.72407" lon="6.6935">
        <ele>2155.4</ele>
        <time>2018-08-11T13:08:28Z</time>
      </trkpt>
      <trkpt lat="44.72415" lon="6.69353">
        <ele>2155.6</ele>
        <time>2018-08-11T13:08:42Z</time>
      </trkpt>
      <trkpt lat="44.72425" lon="6.69356">
        <ele>2156</ele>
        <time>2018-08-11T13:08:54Z</time>
      </trkpt>
      <trkpt lat="44.72436" lon="6.69356">
        <ele>2158</ele>
        <time>2018-08-11T13:09:01Z</time>
      </trkpt>
      <trkpt lat="44.72445" lon="6.69357">
        <ele>2160.3</ele>
        <time>2018-08-11T13:09:11Z</time>
      </trkpt>
      <trkpt lat="44.72456" lon="6.69359">
        <ele>2163.1</ele>
        <time>2018-08-11T13:09:18Z</time>
      </trkpt>
      <trkpt lat="44.72465" lon="6.69366">
        <ele>2162.3</ele>
        <time>2018-08-11T13:09:23Z</time>
      </trkpt>
      <trkpt lat="44.72475" lon="6.69368">
        <ele>2164.7</ele>
        <time>2018-08-11T13:09:32Z</time>
      </trkpt>
      <trkpt lat="44.72483" lon="6.69373">
        <ele>2164.7</ele>
        <time>2018-08-11T13:09:37Z</time>
      </trkpt>
      <trkpt lat="44.72491" lon="6.69381">
        <ele>2165.9</ele>
        <time>2018-08-11T13:09:44Z</time>
      </trkpt>
      <trkpt lat="44.72501" lon="6.69384">
        <ele>2167.2</ele>
        <time>2018-08-11T13:09:53Z</time>
      </trkpt>
      <trkpt lat="44.72511" lon="6.69386">
        <ele>2168.2</ele>
        <time>2018-08-11T13:09:59Z</time>
      </trkpt>
      <trkpt lat="44.7252" lon="6.69388">
        <ele>2170.1</ele>
        <time>2018-08-11T13:10:06Z</time>
      </trkpt>
      <trkpt lat="44.72529" lon="6.69392">
        <ele>2171.4</ele>
        <time>2018-08-11T13:10:11Z</time>
      </trkpt>
      <trkpt lat="44.72538" lon="6.69394">
        <ele>2172.6</ele>
        <time>2018-08-11T13:10:16Z</time>
      </trkpt>
      <trkpt lat="44.72548" lon="6.69396">
        <ele>2173.8</ele>
        <time>2018-08-11T13:10:24Z</time>
      </trkpt>
      <trkpt lat="44.72558" lon="6.69395">
        <ele>2175</ele>
        <time>2018-08-11T13:10:31Z</time>
      </trkpt>
      <trkpt lat="44.72567" lon="6.69395">
        <ele>2176</ele>
        <time>2018-08-11T13:10:40Z</time>
      </trkpt>
      <trkpt lat="44.72577" lon="6.69397">
        <ele>2176.5</ele>
        <time>2018-08-11T13:10:45Z</time>
      </trkpt>
      <trkpt lat="44.72586" lon="6.69398">
        <ele>2176.7</ele>
        <time>2018-08-11T13:10:51Z</time>
      </trkpt>
      <trkpt lat="44.72597" lon="6.69399">
        <ele>2177</ele>
        <time>2018-08-11T13:10:58Z</time>
      </trkpt>
      <trkpt lat="44.72606" lon="6.69401">
        <ele>2176.9</ele>
        <time>2018-08-11T13:11:02Z</time>
      </trkpt>
      <trkpt lat="44.72616" lon="6.69403">
        <ele>2176.6</ele>
        <time>2018-08-11T13:11:07Z</time>
      </trkpt>
      <trkpt lat="44.72626" lon="6.69404">
        <ele>2176.4</ele>
        <time>2018-08-11T13:11:16Z</time>
      </trkpt>
      <trkpt lat="44.72636" lon="6.69402">
        <ele>2176.2</ele>
        <time>2018-08-11T13:11:27Z</time>
      </trkpt>
      <trkpt lat="44.72646" lon="6.69399">
        <ele>2176</ele>
        <time>2018-08-11T13:11:32Z</time>
      </trkpt>
      <trkpt lat="44.72657" lon="6.69398">
        <ele>2175.5</ele>
        <time>2018-08-11T13:11:36Z</time>
      </trkpt>
      <trkpt lat="44.72669" lon="6.69398">
        <ele>2175.1</ele>
        <time>2018-08-11T13:11:40Z</time>
      </trkpt>
      <trkpt lat="44.72678" lon="6.69397">
        <ele>2174.7</ele>
        <time>2018-08-11T13:11:44Z</time>
      </trkpt>
      <trkpt lat="44.72687" lon="6.69398">
        <ele>2174.4</ele>
        <time>2018-08-11T13:11:52Z</time>
      </trkpt>
      <trkpt lat="44.72697" lon="6.69396">
        <ele>2174.2</ele>
        <time>2018-08-11T13:12:02Z</time>
      </trkpt>
      <trkpt lat="44.72706" lon="6.69395">
        <ele>2174</ele>
        <time>2018-08-11T13:12:06Z</time>
      </trkpt>
      <trkpt lat="44.72717" lon="6.69394">
        <ele>2173.9</ele>
        <time>2018-08-11T13:12:10Z</time>
      </trkpt>
      <trkpt lat="44.72727" lon="6.69395">
        <ele>2173.9</ele>
        <time>2018-08-11T13:12:19Z</time>
      </trkpt>
      <trkpt lat="44.72738" lon="6.69399">
        <ele>2174.4</ele>
        <time>2018-08-11T13:12:25Z</time>
      </trkpt>
      <trkpt lat="44.72747" lon="6.694">
        <ele>2175.3</ele>
        <time>2018-08-11T13:12:31Z</time>
      </trkpt>
      <trkpt lat="44.72756" lon="6.69401">
        <ele>2175.8</ele>
        <time>2018-08-11T13:12:39Z</time>
      </trkpt>
      <trkpt lat="44.72766" lon="6.694">
        <ele>2176.6</ele>
        <time>2018-08-11T13:12:45Z</time>
      </trkpt>
      <trkpt lat="44.72776" lon="6.69396">
        <ele>2176.9</ele>
        <time>2018-08-11T13:12:51Z</time>
      </trkpt>
      <trkpt lat="44.72787" lon="6.69399">
        <ele>2176.9</ele>
        <time>2018-08-11T13:12:59Z</time>
      </trkpt>
      <trkpt lat="44.72797" lon="6.69399">
        <ele>2176.7</ele>
        <time>2018-08-11T13:13:03Z</time>
      </trkpt>
      <trkpt lat="44.72807" lon="6.69397">
        <ele>2176.4</ele>
        <time>2018-08-11T13:13:08Z</time>
      </trkpt>
      <trkpt lat="44.72817" lon="6.69394">
        <ele>2176.8</ele>
        <time>2018-08-11T13:13:12Z</time>
      </trkpt>
      <trkpt lat="44.72826" lon="6.69399">
        <ele>2177.7</ele>
        <time>2018-08-11T13:13:20Z</time>
      </trkpt>
      <trkpt lat="44.72831" lon="6.69412">
        <ele>2179</ele>
        <time>2018-08-11T13:13:29Z</time>
      </trkpt>
      <trkpt lat="44.72837" lon="6.69424">
        <ele>2180.2</ele>
        <time>2018-08-11T13:13:36Z</time>
      </trkpt>
      <trkpt lat="44.72843" lon="6.69434">
        <ele>2180.8</ele>
        <time>2018-08-11T13:13:58Z</time>
      </trkpt>
      <trkpt lat="44.72848" lon="6.69444">
        <ele>2181.2</ele>
        <time>2018-08-11T13:14:23Z</time>
      </trkpt>
      <trkpt lat="44.72852" lon="6.69456">
        <ele>2181.6</ele>
        <time>2018-08-11T13:14:33Z</time>
      </trkpt>
      <trkpt lat="44.72857" lon="6.69467">
        <ele>2181.9</ele>
        <time>2018-08-11T13:14:51Z</time>
      </trkpt>
      <trkpt lat="44.72864" lon="6.69476">
        <ele>2182.3</ele>
        <time>2018-08-11T13:15:00Z</time>
      </trkpt>
      <trkpt lat="44.72871" lon="6.69484">
        <ele>2182.7</ele>
        <time>2018-08-11T13:15:09Z</time>
      </trkpt>
      <trkpt lat="44.72879" lon="6.69492">
        <ele>2183.1</ele>
        <time>2018-08-11T13:15:21Z</time>
      </trkpt>
      <trkpt lat="44.72886" lon="6.695">
        <ele>2183.6</ele>
        <time>2018-08-11T13:15:34Z</time>
      </trkpt>
      <trkpt lat="44.72896" lon="6.69505">
        <ele>2184.1</ele>
        <time>2018-08-11T13:15:48Z</time>
      </trkpt>
      <trkpt lat="44.72901" lon="6.69516">
        <ele>2184.6</ele>
        <time>2018-08-11T13:16:01Z</time>
      </trkpt>
      <trkpt lat="44.72909" lon="6.69522">
        <ele>2185.2</ele>
        <time>2018-08-11T13:16:13Z</time>
      </trkpt>
      <trkpt lat="44.72918" lon="6.69525">
        <ele>2185.6</ele>
        <time>2018-08-11T13:16:28Z</time>
      </trkpt>
      <trkpt lat="44.72927" lon="6.69527">
        <ele>2186</ele>
        <time>2018-08-11T13:16:38Z</time>
      </trkpt>
      <trkpt lat="44.72935" lon="6.69518">
        <ele>2186.4</ele>
        <time>2018-08-11T13:16:43Z</time>
      </trkpt>
      <trkpt lat="44.72941" lon="6.69508">
        <ele>2186.9</ele>
        <time>2018-08-11T13:16:51Z</time>
      </trkpt>
      <trkpt lat="44.72949" lon="6.695">
        <ele>2187.5</ele>
        <time>2018-08-11T13:17:01Z</time>
      </trkpt>
      <trkpt lat="44.72957" lon="6.69491">
        <ele>2188.5</ele>
        <time>2018-08-11T13:17:09Z</time>
      </trkpt>
      <trkpt lat="44.72964" lon="6.69484">
        <ele>2189.5</ele>
        <time>2018-08-11T13:17:17Z</time>
      </trkpt>
      <trkpt lat="44.72973" lon="6.6948">
        <ele>2190.6</ele>
        <time>2018-08-11T13:17:30Z</time>
      </trkpt>
      <trkpt lat="44.72982" lon="6.69475">
        <ele>2191.7</ele>
        <time>2018-08-11T13:17:41Z</time>
      </trkpt>
      <trkpt lat="44.72991" lon="6.69472">
        <ele>2192.6</ele>
        <time>2018-08-11T13:17:53Z</time>
      </trkpt>
      <trkpt lat="44.72999" lon="6.69467">
        <ele>2194.2</ele>
        <time>2018-08-11T13:18:02Z</time>
      </trkpt>
      <trkpt lat="44.73008" lon="6.69462">
        <ele>2196.1</ele>
        <time>2018-08-11T13:18:11Z</time>
      </trkpt>
      <trkpt lat="44.73017" lon="6.69458">
        <ele>2198.5</ele>
        <time>2018-08-11T13:18:21Z</time>
      </trkpt>
      <trkpt lat="44.73026" lon="6.69454">
        <ele>2200.6</ele>
        <time>2018-08-11T13:18:33Z</time>
      </trkpt>
      <trkpt lat="44.73034" lon="6.69447">
        <ele>2202.2</ele>
        <time>2018-08-11T13:18:42Z</time>
      </trkpt>
      <trkpt lat="44.73043" lon="6.6945">
        <ele>2203.6</ele>
        <time>2018-08-11T13:18:55Z</time>
      </trkpt>
      <trkpt lat="44.73052" lon="6.69454">
        <ele>2204.6</ele>
        <time>2018-08-11T13:19:04Z</time>
      </trkpt>
      <trkpt lat="44.7306" lon="6.69462">
        <ele>2205.7</ele>
        <time>2018-08-11T13:19:21Z</time>
      </trkpt>
      <trkpt lat="44.73066" lon="6.69471">
        <ele>2206.8</ele>
        <time>2018-08-11T13:19:36Z</time>
      </trkpt>
      <trkpt lat="44.73074" lon="6.69477">
        <ele>2207.8</ele>
        <time>2018-08-11T13:19:51Z</time>
      </trkpt>
      <trkpt lat="44.73083" lon="6.69484">
        <ele>2208.8</ele>
        <time>2018-08-11T13:20:04Z</time>
      </trkpt>
      <trkpt lat="44.7309" lon="6.69493">
        <ele>2209.9</ele>
        <time>2018-08-11T13:20:19Z</time>
      </trkpt>
      <trkpt lat="44.73097" lon="6.69501">
        <ele>2211</ele>
        <time>2018-08-11T13:20:31Z</time>
      </trkpt>
      <trkpt lat="44.73104" lon="6.6951">
        <ele>2212.3</ele>
        <time>2018-08-11T13:20:41Z</time>
      </trkpt>
      <trkpt lat="44.73111" lon="6.69519">
        <ele>2213.3</ele>
        <time>2018-08-11T13:20:53Z</time>
      </trkpt>
      <trkpt lat="44.73118" lon="6.69528">
        <ele>2214.1</ele>
        <time>2018-08-11T13:21:05Z</time>
      </trkpt>
      <trkpt lat="44.73126" lon="6.69535">
        <ele>2214.8</ele>
        <time>2018-08-11T13:21:14Z</time>
      </trkpt>
      <trkpt lat="44.7313" lon="6.69547">
        <ele>2215.7</ele>
        <time>2018-08-11T13:21:33Z</time>
      </trkpt>
      <trkpt lat="44.73132" lon="6.69559">
        <ele>2216.7</ele>
        <time>2018-08-11T13:21:46Z</time>
      </trkpt>
      <trkpt lat="44.73135" lon="6.69572">
        <ele>2217.7</ele>
        <time>2018-08-11T13:22:00Z</time>
      </trkpt>
      <trkpt lat="44.7314" lon="6.69583">
        <ele>2218.4</ele>
        <time>2018-08-11T13:22:09Z</time>
      </trkpt>
      <trkpt lat="44.73143" lon="6.69595">
        <ele>2219</ele>
        <time>2018-08-11T13:22:23Z</time>
      </trkpt>
      <trkpt lat="44.73143" lon="6.69609">
        <ele>2220.3</ele>
        <time>2018-08-11T13:22:38Z</time>
      </trkpt>
      <trkpt lat="44.73143" lon="6.69622">
        <ele>2223.1</ele>
        <time>2018-08-11T13:22:53Z</time>
      </trkpt>
      <trkpt lat="44.73144" lon="6.69635">
        <ele>2226.3</ele>
        <time>2018-08-11T13:23:04Z</time>
      </trkpt>
      <trkpt lat="44.73145" lon="6.69649">
        <ele>2228.9</ele>
        <time>2018-08-11T13:23:16Z</time>
      </trkpt>
      <trkpt lat="44.73148" lon="6.69662">
        <ele>2231.7</ele>
        <time>2018-08-11T13:23:27Z</time>
      </trkpt>
      <trkpt lat="44.73147" lon="6.69675">
        <ele>2234.4</ele>
        <time>2018-08-11T13:23:37Z</time>
      </trkpt>
      <trkpt lat="44.73145" lon="6.69688">
        <ele>2236.5</ele>
        <time>2018-08-11T13:23:48Z</time>
      </trkpt>
      <trkpt lat="44.73145" lon="6.697">
        <ele>2238.6</ele>
        <time>2018-08-11T13:24:01Z</time>
      </trkpt>
      <trkpt lat="44.73145" lon="6.69713">
        <ele>2240.9</ele>
        <time>2018-08-11T13:24:13Z</time>
      </trkpt>
      <trkpt lat="44.73149" lon="6.69726">
        <ele>2243.4</ele>
        <time>2018-08-11T13:24:26Z</time>
      </trkpt>
      <trkpt lat="44.7315" lon="6.69739">
        <ele>2245.7</ele>
        <time>2018-08-11T13:24:42Z</time>
      </trkpt>
      <trkpt lat="44.73154" lon="6.69752">
        <ele>2247.9</ele>
        <time>2018-08-11T13:24:57Z</time>
      </trkpt>
      <trkpt lat="44.73152" lon="6.69764">
        <ele>2249.4</ele>
        <time>2018-08-11T13:25:12Z</time>
      </trkpt>
      <trkpt lat="44.73155" lon="6.69777">
        <ele>2251.1</ele>
        <time>2018-08-11T13:25:28Z</time>
      </trkpt>
      <trkpt lat="44.7316" lon="6.69789">
        <ele>2253</ele>
        <time>2018-08-11T13:25:40Z</time>
      </trkpt>
      <trkpt lat="44.73159" lon="6.69802">
        <ele>2254.5</ele>
        <time>2018-08-11T13:25:50Z</time>
      </trkpt>
      <trkpt lat="44.73156" lon="6.69815">
        <ele>2255.9</ele>
        <time>2018-08-11T13:25:58Z</time>
      </trkpt>
      <trkpt lat="44.73149" lon="6.69824">
        <ele>2256.5</ele>
        <time>2018-08-11T13:26:08Z</time>
      </trkpt>
      <trkpt lat="44.73143" lon="6.69833">
        <ele>2256.9</ele>
        <time>2018-08-11T13:26:20Z</time>
      </trkpt>
      <trkpt lat="44.73139" lon="6.69845">
        <ele>2258.5</ele>
        <time>2018-08-11T13:26:31Z</time>
      </trkpt>
      <trkpt lat="44.73133" lon="6.69857">
        <ele>2261.6</ele>
        <time>2018-08-11T13:26:41Z</time>
      </trkpt>
      <trkpt lat="44.73134" lon="6.6987">
        <ele>2264</ele>
        <time>2018-08-11T13:26:51Z</time>
      </trkpt>
      <trkpt lat="44.73136" lon="6.69882">
        <ele>2265.6</ele>
        <time>2018-08-11T13:26:59Z</time>
      </trkpt>
      <trkpt lat="44.73138" lon="6.69895">
        <ele>2266.9</ele>
        <time>2018-08-11T13:27:07Z</time>
      </trkpt>
      <trkpt lat="44.73138" lon="6.69909">
        <ele>2268.2</ele>
        <time>2018-08-11T13:27:17Z</time>
      </trkpt>
      <trkpt lat="44.73139" lon="6.69922">
        <ele>2269.6</ele>
        <time>2018-08-11T13:27:27Z</time>
      </trkpt>
      <trkpt lat="44.73135" lon="6.69935">
        <ele>2270.9</ele>
        <time>2018-08-11T13:27:38Z</time>
      </trkpt>
      <trkpt lat="44.73131" lon="6.69946">
        <ele>2272.2</ele>
        <time>2018-08-11T13:27:51Z</time>
      </trkpt>
      <trkpt lat="44.73129" lon="6.6996">
        <ele>2273.5</ele>
        <time>2018-08-11T13:28:05Z</time>
      </trkpt>
      <trkpt lat="44.7313" lon="6.69972">
        <ele>2274.1</ele>
        <time>2018-08-11T13:28:17Z</time>
      </trkpt>
      <trkpt lat="44.73129" lon="6.69985">
        <ele>2274.7</ele>
        <time>2018-08-11T13:28:31Z</time>
      </trkpt>
      <trkpt lat="44.73129" lon="6.69999">
        <ele>2274.9</ele>
        <time>2018-08-11T13:28:41Z</time>
      </trkpt>
      <trkpt lat="44.7312" lon="6.70007">
        <ele>2274.7</ele>
        <time>2018-08-11T13:28:52Z</time>
      </trkpt>
      <trkpt lat="44.73112" lon="6.70014">
        <ele>2274.5</ele>
        <time>2018-08-11T13:29:01Z</time>
      </trkpt>
      <trkpt lat="44.73103" lon="6.70019">
        <ele>2274.3</ele>
        <time>2018-08-11T13:29:07Z</time>
      </trkpt>
      <trkpt lat="44.73093" lon="6.70026">
        <ele>2273.9</ele>
        <time>2018-08-11T13:29:17Z</time>
      </trkpt>
      <trkpt lat="44.73084" lon="6.70032">
        <ele>2273.4</ele>
        <time>2018-08-11T13:29:27Z</time>
      </trkpt>
      <trkpt lat="44.73074" lon="6.70036">
        <ele>2272.8</ele>
        <time>2018-08-11T13:29:33Z</time>
      </trkpt>
      <trkpt lat="44.73065" lon="6.70038">
        <ele>2272</ele>
        <time>2018-08-11T13:29:44Z</time>
      </trkpt>
      <trkpt lat="44.73056" lon="6.7004">
        <ele>2270.9</ele>
        <time>2018-08-11T13:29:51Z</time>
      </trkpt>
      <trkpt lat="44.73048" lon="6.70048">
        <ele>2269.5</ele>
        <time>2018-08-11T13:29:56Z</time>
      </trkpt>
      <trkpt lat="44.7304" lon="6.70056">
        <ele>2267.6</ele>
        <time>2018-08-11T13:30:07Z</time>
      </trkpt>
      <trkpt lat="44.73032" lon="6.70061">
        <ele>2266.5</ele>
        <time>2018-08-11T13:30:14Z</time>
      </trkpt>
      <trkpt lat="44.73025" lon="6.7007">
        <ele>2266</ele>
        <time>2018-08-11T13:30:24Z</time>
      </trkpt>
      <trkpt lat="44.73026" lon="6.70083">
        <ele>2266</ele>
        <time>2018-08-11T13:30:36Z</time>
      </trkpt>
      <trkpt lat="44.7303" lon="6.70096">
        <ele>2265.9</ele>
        <time>2018-08-11T13:30:42Z</time>
      </trkpt>
      <trkpt lat="44.7303" lon="6.7011">
        <ele>2265.7</ele>
        <time>2018-08-11T13:30:52Z</time>
      </trkpt>
      <trkpt lat="44.7303" lon="6.70123">
        <ele>2265.2</ele>
        <time>2018-08-11T13:31:03Z</time>
      </trkpt>
      <trkpt lat="44.73021" lon="6.70131">
        <ele>2264.6</ele>
        <time>2018-08-11T13:31:10Z</time>
      </trkpt>
      <trkpt lat="44.73014" lon="6.70139">
        <ele>2264.2</ele>
        <time>2018-08-11T13:31:20Z</time>
      </trkpt>
      <trkpt lat="44.73006" lon="6.70146">
        <ele>2263.7</ele>
        <time>2018-08-11T13:31:28Z</time>
      </trkpt>
      <trkpt lat="44.73002" lon="6.70158">
        <ele>2263.5</ele>
        <time>2018-08-11T13:31:33Z</time>
      </trkpt>
      <trkpt lat="44.72993" lon="6.70163">
        <ele>2263.3</ele>
        <time>2018-08-11T13:31:38Z</time>
      </trkpt>
      <trkpt lat="44.72983" lon="6.70168">
        <ele>2263.2</ele>
        <time>2018-08-11T13:31:49Z</time>
      </trkpt>
      <trkpt lat="44.72974" lon="6.70174">
        <ele>2263.1</ele>
        <time>2018-08-11T13:32:01Z</time>
      </trkpt>
      <trkpt lat="44.72964" lon="6.70182">
        <ele>2263</ele>
        <time>2018-08-11T13:32:08Z</time>
      </trkpt>
      <trkpt lat="44.72957" lon="6.70189">
        <ele>2262.7</ele>
        <time>2018-08-11T13:32:15Z</time>
      </trkpt>
      <trkpt lat="44.72948" lon="6.70195">
        <ele>2262.3</ele>
        <time>2018-08-11T13:32:20Z</time>
      </trkpt>
      <trkpt lat="44.72939" lon="6.70199">
        <ele>2261.7</ele>
        <time>2018-08-11T13:32:31Z</time>
      </trkpt>
      <trkpt lat="44.7293" lon="6.70205">
        <ele>2261.1</ele>
        <time>2018-08-11T13:32:42Z</time>
      </trkpt>
      <trkpt lat="44.72924" lon="6.70214">
        <ele>2260.8</ele>
        <time>2018-08-11T13:32:50Z</time>
      </trkpt>
      <trkpt lat="44.72916" lon="6.70221">
        <ele>2260.1</ele>
        <time>2018-08-11T13:32:59Z</time>
      </trkpt>
      <trkpt lat="44.72909" lon="6.70229">
        <ele>2259.4</ele>
        <time>2018-08-11T13:33:06Z</time>
      </trkpt>
      <trkpt lat="44.72902" lon="6.70238">
        <ele>2258.5</ele>
        <time>2018-08-11T13:33:14Z</time>
      </trkpt>
      <trkpt lat="44.72892" lon="6.70244">
        <ele>2257.4</ele>
        <time>2018-08-11T13:33:24Z</time>
      </trkpt>
      <trkpt lat="44.72885" lon="6.70255">
        <ele>2256.4</ele>
        <time>2018-08-11T13:33:34Z</time>
      </trkpt>
      <trkpt lat="44.72881" lon="6.70269">
        <ele>2255.4</ele>
        <time>2018-08-11T13:33:43Z</time>
      </trkpt>
      <trkpt lat="44.7288" lon="6.70283">
        <ele>2254.6</ele>
        <time>2018-08-11T13:33:54Z</time>
      </trkpt>
      <trkpt lat="44.72879" lon="6.70296">
        <ele>2253.8</ele>
        <time>2018-08-11T13:34:00Z</time>
      </trkpt>
      <trkpt lat="44.72882" lon="6.70308">
        <ele>2253</ele>
        <time>2018-08-11T13:34:08Z</time>
      </trkpt>
      <trkpt lat="44.72886" lon="6.70322">
        <ele>2252.5</ele>
        <time>2018-08-11T13:34:17Z</time>
      </trkpt>
      <trkpt lat="44.72889" lon="6.70336">
        <ele>2251.8</ele>
        <time>2018-08-11T13:34:26Z</time>
      </trkpt>
      <trkpt lat="44.72889" lon="6.70349">
        <ele>2251.3</ele>
        <time>2018-08-11T13:34:44Z</time>
      </trkpt>
      <trkpt lat="44.72892" lon="6.70362">
        <ele>2250.9</ele>
        <time>2018-08-11T13:34:57Z</time>
      </trkpt>
      <trkpt lat="44.72897" lon="6.70373">
        <ele>2250.7</ele>
        <time>2018-08-11T13:35:05Z</time>
      </trkpt>
      <trkpt lat="44.72901" lon="6.70386">
        <ele>2250.6</ele>
        <time>2018-08-11T13:35:11Z</time>
      </trkpt>
      <trkpt lat="44.72907" lon="6.70399">
        <ele>2250.7</ele>
        <time>2018-08-11T13:35:16Z</time>
      </trkpt>
      <trkpt lat="44.72911" lon="6.7041">
        <ele>2250.7</ele>
        <time>2018-08-11T13:35:23Z</time>
      </trkpt>
      <trkpt lat="44.72919" lon="6.7042">
        <ele>2250.8</ele>
        <time>2018-08-11T13:35:30Z</time>
      </trkpt>
      <trkpt lat="44.72924" lon="6.70432">
        <ele>2250.9</ele>
        <time>2018-08-11T13:35:37Z</time>
      </trkpt>
      <trkpt lat="44.72926" lon="6.70446">
        <ele>2250.9</ele>
        <time>2018-08-11T13:35:48Z</time>
      </trkpt>
      <trkpt lat="44.72925" lon="6.70461">
        <ele>2250.5</ele>
        <time>2018-08-11T13:35:54Z</time>
      </trkpt>
      <trkpt lat="44.72925" lon="6.70474">
        <ele>2251</ele>
        <time>2018-08-11T13:36:03Z</time>
      </trkpt>
      <trkpt lat="44.72926" lon="6.70487">
        <ele>2251.3</ele>
        <time>2018-08-11T13:36:12Z</time>
      </trkpt>
      <trkpt lat="44.72925" lon="6.70501">
        <ele>2251.5</ele>
        <time>2018-08-11T13:36:18Z</time>
      </trkpt>
      <trkpt lat="44.72927" lon="6.70515">
        <ele>2251.7</ele>
        <time>2018-08-11T13:36:27Z</time>
      </trkpt>
      <trkpt lat="44.7293" lon="6.70528">
        <ele>2251.8</ele>
        <time>2018-08-11T13:36:34Z</time>
      </trkpt>
      <trkpt lat="44.72933" lon="6.70541">
        <ele>2252.1</ele>
        <time>2018-08-11T13:36:40Z</time>
      </trkpt>
      <trkpt lat="44.72934" lon="6.70554">
        <ele>2252.3</ele>
        <time>2018-08-11T13:36:48Z</time>
      </trkpt>
      <trkpt lat="44.72935" lon="6.70567">
        <ele>2252.4</ele>
        <time>2018-08-11T13:36:56Z</time>
      </trkpt>
      <trkpt lat="44.72931" lon="6.70579">
        <ele>2252.7</ele>
        <time>2018-08-11T13:37:09Z</time>
      </trkpt>
      <trkpt lat="44.72924" lon="6.70589">
        <ele>2252.8</ele>
        <time>2018-08-11T13:37:15Z</time>
      </trkpt>
      <trkpt lat="44.72915" lon="6.70596">
        <ele>2252.7</ele>
        <time>2018-08-11T13:37:23Z</time>
      </trkpt>
      <trkpt lat="44.72909" lon="6.70605">
        <ele>2252.4</ele>
        <time>2018-08-11T13:37:31Z</time>
      </trkpt>
      <trkpt lat="44.72905" lon="6.70618">
        <ele>2251.5</ele>
        <time>2018-08-11T13:37:42Z</time>
      </trkpt>
      <trkpt lat="44.72899" lon="6.70627">
        <ele>2250.5</ele>
        <time>2018-08-11T13:37:52Z</time>
      </trkpt>
      <trkpt lat="44.7289" lon="6.70637">
        <ele>2249.4</ele>
        <time>2018-08-11T13:38:03Z</time>
      </trkpt>
      <trkpt lat="44.72881" lon="6.70641">
        <ele>2249.3</ele>
        <time>2018-08-11T13:38:12Z</time>
      </trkpt>
      <trkpt lat="44.72877" lon="6.70653">
        <ele>2249.4</ele>
        <time>2018-08-11T13:38:17Z</time>
      </trkpt>
      <trkpt lat="44.72874" lon="6.70666">
        <ele>2249.5</ele>
        <time>2018-08-11T13:38:25Z</time>
      </trkpt>
      <trkpt lat="44.72869" lon="6.70677">
        <ele>2249.7</ele>
        <time>2018-08-11T13:38:34Z</time>
      </trkpt>
      <trkpt lat="44.72863" lon="6.70688">
        <ele>2250.4</ele>
        <time>2018-08-11T13:38:43Z</time>
      </trkpt>
      <trkpt lat="44.72861" lon="6.70702">
        <ele>2251.5</ele>
        <time>2018-08-11T13:38:53Z</time>
      </trkpt>
      <trkpt lat="44.72855" lon="6.70713">
        <ele>2252.9</ele>
        <time>2018-08-11T13:39:06Z</time>
      </trkpt>
      <trkpt lat="44.72849" lon="6.70723">
        <ele>2254.7</ele>
        <time>2018-08-11T13:39:16Z</time>
      </trkpt>
      <trkpt lat="44.72845" lon="6.70736">
        <ele>2255.7</ele>
        <time>2018-08-11T13:39:30Z</time>
      </trkpt>
      <trkpt lat="44.72841" lon="6.70749">
        <ele>2256</ele>
        <time>2018-08-11T13:39:39Z</time>
      </trkpt>
      <trkpt lat="44.7284" lon="6.70762">
        <ele>2256.2</ele>
        <time>2018-08-11T13:39:54Z</time>
      </trkpt>
      <trkpt lat="44.7284" lon="6.70776">
        <ele>2256</ele>
        <time>2018-08-11T13:40:07Z</time>
      </trkpt>
      <trkpt lat="44.7284" lon="6.70789">
        <ele>2256</ele>
        <time>2018-08-11T13:40:15Z</time>
      </trkpt>
      <trkpt lat="44.72839" lon="6.70803">
        <ele>2256</ele>
        <time>2018-08-11T13:40:22Z</time>
      </trkpt>
      <trkpt lat="44.7284" lon="6.70816">
        <ele>2256.2</ele>
        <time>2018-08-11T13:40:31Z</time>
      </trkpt>
      <trkpt lat="44.7284" lon="6.7083">
        <ele>2256.2</ele>
        <time>2018-08-11T13:40:39Z</time>
      </trkpt>
      <trkpt lat="44.7284" lon="6.70843">
        <ele>2256</ele>
        <time>2018-08-11T13:40:46Z</time>
      </trkpt>
      <trkpt lat="44.72835" lon="6.70854">
        <ele>2255.5</ele>
        <time>2018-08-11T13:41:01Z</time>
      </trkpt>
      <trkpt lat="44.72833" lon="6.70868">
        <ele>2255.3</ele>
        <time>2018-08-11T13:41:08Z</time>
      </trkpt>
      <trkpt lat="44.72834" lon="6.70882">
        <ele>2255.4</ele>
        <time>2018-08-11T13:41:19Z</time>
      </trkpt>
      <trkpt lat="44.7283" lon="6.70893">
        <ele>2255.8</ele>
        <time>2018-08-11T13:41:29Z</time>
      </trkpt>
      <trkpt lat="44.72828" lon="6.70905">
        <ele>2256.4</ele>
        <time>2018-08-11T13:41:36Z</time>
      </trkpt>
      <trkpt lat="44.72827" lon="6.70919">
        <ele>2256.9</ele>
        <time>2018-08-11T13:41:46Z</time>
      </trkpt>
      <trkpt lat="44.72825" lon="6.70932">
        <ele>2257.5</ele>
        <time>2018-08-11T13:41:56Z</time>
      </trkpt>
      <trkpt lat="44.7282" lon="6.70946">
        <ele>2258.8</ele>
        <time>2018-08-11T13:42:04Z</time>
      </trkpt>
      <trkpt lat="44.72819" lon="6.70959">
        <ele>2260</ele>
        <time>2018-08-11T13:42:14Z</time>
      </trkpt>
      <trkpt lat="44.72816" lon="6.70974">
        <ele>2261</ele>
        <time>2018-08-11T13:42:25Z</time>
      </trkpt>
      <trkpt lat="44.72817" lon="6.70987">
        <ele>2262.4</ele>
        <time>2018-08-11T13:42:30Z</time>
      </trkpt>
      <trkpt lat="44.72818" lon="6.71">
        <ele>2263.8</ele>
        <time>2018-08-11T13:42:50Z</time>
      </trkpt>
      <trkpt lat="44.72819" lon="6.71015">
        <ele>2265</ele>
        <time>2018-08-11T13:42:54Z</time>
      </trkpt>
      <trkpt lat="44.72818" lon="6.71028">
        <ele>2266.5</ele>
        <time>2018-08-11T13:43:00Z</time>
      </trkpt>
      <trkpt lat="44.72817" lon="6.71041">
        <ele>2267.7</ele>
        <time>2018-08-11T13:43:04Z</time>
      </trkpt>
      <trkpt lat="44.72818" lon="6.71056">
        <ele>2269.9</ele>
        <time>2018-08-11T13:43:13Z</time>
      </trkpt>
      <trkpt lat="44.72812" lon="6.71068">
        <ele>2272.1</ele>
        <time>2018-08-11T13:43:21Z</time>
      </trkpt>
      <trkpt lat="44.72813" lon="6.71082">
        <ele>2273.8</ele>
        <time>2018-08-11T13:43:27Z</time>
      </trkpt>
      <trkpt lat="44.72811" lon="6.71095">
        <ele>2275.3</ele>
        <time>2018-08-11T13:43:36Z</time>
      </trkpt>
      <trkpt lat="44.72808" lon="6.71109">
        <ele>2276.9</ele>
        <time>2018-08-11T13:43:46Z</time>
      </trkpt>
      <trkpt lat="44.72804" lon="6.71122">
        <ele>2278.8</ele>
        <time>2018-08-11T13:43:55Z</time>
      </trkpt>
      <trkpt lat="44.72798" lon="6.71132">
        <ele>2280.8</ele>
        <time>2018-08-11T13:44:07Z</time>
      </trkpt>
      <trkpt lat="44.72791" lon="6.71141">
        <ele>2282</ele>
        <time>2018-08-11T13:44:16Z</time>
      </trkpt>
      <trkpt lat="44.72784" lon="6.7115">
        <ele>2283</ele>
        <time>2018-08-11T13:44:25Z</time>
      </trkpt>
      <trkpt lat="44.7278" lon="6.71161">
        <ele>2284.2</ele>
        <time>2018-08-11T13:44:33Z</time>
      </trkpt>
      <trkpt lat="44.72779" lon="6.71174">
        <ele>2285</ele>
        <time>2018-08-11T13:44:40Z</time>
      </trkpt>
      <trkpt lat="44.72776" lon="6.71188">
        <ele>2285</ele>
        <time>2018-08-11T13:44:44Z</time>
      </trkpt>
      <trkpt lat="44.72771" lon="6.71199">
        <ele>2285</ele>
        <time>2018-08-11T13:44:55Z</time>
      </trkpt>
    </trkseg>
  </trk>
</gpx>